Date StartTime U_cm/s V_cm/s W_cm/s Ustd_cm/s Vstd_cm/s Wstd_cm/s Uvar_(cm/s)^2 Vvar_(cm/s)^2 Wvar_(cm/s)^2 KE_(m/s)^2 TurbulentKE_(m/s)^2 HorizWindSpeed_cm/s FrictionSpeec_cm/s DragCoef SpeedOfSound_m/s SonicTemperature_C Pressure_mb 
09/01/2014  00:00:00      -50.331      112.486      -17.251       41.795       50.833       22.779     1746.853     2583.977      518.896        1.017        0.242      123.233       20.025        0.026      344.459       21.293      860.939
09/01/2014  00:01:00      -77.988      145.977      -20.503       67.486       60.084       34.873     4554.335     3610.079     1216.101        1.859        0.469      165.504       20.731        0.016      344.499       21.359      860.954
09/01/2014  00:02:00     -144.607       95.984      -26.412       44.696       56.594       27.894     1997.765     3202.857      778.087        1.840        0.299      173.563       20.924        0.015      344.538       21.428      860.979
09/01/2014  00:03:00     -135.033       38.082      -25.220       41.860       78.352       31.095     1752.222     6139.073      966.880        1.459        0.443      140.300       28.215        0.040      344.286       20.998      860.987
09/01/2014  00:04:00     -130.338        1.588      -16.191       29.530       24.919       18.834      872.019      620.968      354.710        0.955        0.092      130.348       17.804        0.019      344.181       20.816      860.998
09/01/2014  00:05:00      -97.085       23.344      -14.533       20.644       20.199       15.517      426.171      407.983      240.767        0.563        0.054       99.852       12.177        0.015      344.245       20.925      861.010
09/01/2014  00:06:00      -87.917       22.167       -9.732       28.076       17.160       15.219      788.272      294.457      231.616        0.481        0.066       90.669       11.462        0.016      344.263       20.958      861.013
09/01/2014  00:07:00      -91.435       33.678      -13.024       24.414       21.073       14.695      596.025      444.068      215.949        0.546        0.063       97.440       12.500        0.016      344.201       20.850      861.018
09/01/2014  00:08:00     -116.225       34.689      -12.049       21.458       38.804       15.469      460.459     1505.740      239.283        0.853        0.110      121.291        9.919        0.007      344.140       20.747      861.022
09/01/2014  00:09:00     -103.164       20.195      -10.053       30.570       17.794       16.779      934.521      316.623      281.534        0.634        0.077      105.122       14.380        0.019      344.157       20.775      861.037
09/01/2014  00:10:00      -91.620        4.745       -4.634       25.212       29.313       18.637      635.649      859.253      347.348        0.514        0.092       91.742       16.885        0.034      344.110       20.696      861.035
09/01/2014  00:11:00      -32.722       27.591        1.724       28.436       29.348       21.209      808.595      861.300      449.827        0.198        0.106       42.802       19.114        0.199      343.965       20.449      861.038
09/01/2014  00:12:00      -66.623       47.778      -15.856       16.103       17.963       12.650      259.316      322.667      160.012        0.386        0.037       81.984       10.841        0.017      344.069       20.627      861.043
09/01/2014  00:13:00      -40.613       63.890       -8.314       27.465       33.669       15.906      754.345     1133.599      252.996        0.397        0.107       75.705       14.960        0.039      344.097       20.673      861.042
09/01/2014  00:14:00      -55.875       79.282      -18.645       26.102       25.151       13.462      681.300      632.585      181.238        0.562        0.075       96.993       10.795        0.012      344.058       20.606      861.040
09/01/2014  00:15:00      -75.690       61.509      -19.602       28.467       43.749       17.619      810.379     1914.012      310.446        0.647        0.152       97.531       17.218        0.031      344.021       20.545      861.046
09/01/2014  00:16:00     -100.300       40.347      -14.080       36.977       33.920       21.249     1367.328     1150.597      451.525        0.743        0.148      108.111       19.172        0.031      344.078       20.641      861.046
09/01/2014  00:17:00     -113.054       69.263      -23.486       34.868       44.990       25.416     1215.806     2024.114      645.968        1.101        0.194      132.585       25.234        0.036      344.191       20.834      861.041
09/01/2014  00:18:00      -88.535       40.542       -7.863       35.592       31.615       15.864     1266.764      999.504      251.681        0.603        0.126       97.376       12.108        0.015      344.128       20.727      861.042
09/01/2014  00:19:00      -85.228      -15.549       -7.585       21.321       26.671       13.432      454.595      711.328      180.425        0.445        0.067       86.635       10.444        0.015      344.114       20.704      861.046
09/01/2014  00:20:00      -96.004      -20.790      -14.291       26.301       22.017       11.069      691.755      484.743      122.515        0.558        0.065       98.229        9.179        0.009      344.051       20.595      861.041
09/01/2014  00:21:00     -140.191      -36.089      -13.506       27.780       17.805       18.853      771.755      317.034      355.452        1.129        0.072      144.762       16.692        0.013      343.882       20.307      861.047
09/01/2014  00:22:00      -83.064      -13.685      -10.460       17.144       16.578        9.351      293.906      274.822       87.441        0.393        0.033       84.184        8.683        0.011      343.875       20.294      861.048
09/01/2014  00:23:00      -98.060        7.822      -11.083       23.095       20.709       11.637      533.373      428.878      135.425        0.545        0.055       98.372        8.808        0.008      343.918       20.369      861.042
09/01/2014  00:24:00      -93.940       55.153      -16.399       47.233       50.153       28.512     2230.959     2515.369      812.943        0.885        0.278      108.934       32.595        0.090      344.008       20.522      861.063
09/01/2014  00:25:00      -98.846       33.859      -12.359       33.136       35.828       19.063     1098.010     1283.666      363.402        0.691        0.137      104.484        7.936        0.006      344.159       20.778      861.064
09/01/2014  00:26:00      -65.969      -10.009       -6.203       18.278       25.724       13.047      334.101      661.730      170.222        0.283        0.058       66.724       10.104        0.023      343.970       20.457      861.052
09/01/2014  00:27:00     -108.365       26.709      -12.830       35.466       32.690       17.532     1257.866     1068.615      307.384        0.763        0.132      111.608       13.304        0.014      343.926       20.381      861.062
09/01/2014  00:28:00     -153.015       -1.929      -15.522       20.807       27.677       15.439      432.914      765.995      238.360        1.255        0.072      153.027       10.922        0.005      343.759       20.096      861.070
09/01/2014  00:29:00     -129.166        6.371      -14.446       24.727       25.857       16.365      611.435      668.589      267.824        0.924        0.077      129.323       12.134        0.009      343.791       20.151      861.060
09/01/2014  00:30:00     -118.410       36.473       -6.234       39.467       21.255       16.168     1557.608      451.778      261.390        0.883        0.114      123.900        9.944        0.006      343.882       20.307      861.043
09/01/2014  00:31:00      -91.397       30.706       -6.201       33.756       33.760       21.042     1139.441     1139.729      442.748        0.603        0.136       96.417       18.037        0.035      343.839       20.233      861.057
09/01/2014  00:32:00     -114.698       48.670       -7.523       37.425       30.895       21.061     1400.612      954.503      443.561        0.919        0.140      124.597       13.355        0.011      343.956       20.432      861.068
09/01/2014  00:33:00     -112.828       85.315      -24.459       40.941       42.823       29.102     1676.127     1833.801      846.927        1.248        0.218      141.453       30.881        0.048      344.058       20.607      861.080
09/01/2014  00:34:00      -98.778       84.228      -22.602       36.745       34.556       22.952     1350.163     1194.099      526.804        1.022        0.154      129.813       19.992        0.024      344.057       20.606      861.100
09/01/2014  00:35:00     -110.415       83.090      -22.155       31.715       30.709       24.619     1005.833      943.035      606.114        1.107        0.128      138.186       19.256        0.019      344.096       20.672      861.111
09/01/2014  00:36:00      -95.612       84.241      -17.966       34.051       41.684       25.452     1159.473     1737.590      647.826        1.005        0.177      127.429       25.227        0.039      344.046       20.585      861.129
09/01/2014  00:37:00      -87.382       82.952      -26.127       24.706       27.639       15.280      610.407      763.925      233.464        0.840        0.080      120.485       13.201        0.012      344.002       20.511      861.150
09/01/2014  00:38:00      -64.862       19.131      -13.183       38.249       19.351       13.445     1462.966      374.468      180.769        0.338        0.101       67.625       12.882        0.036      344.028       20.557      861.167
09/01/2014  00:39:00      -91.873       74.602      -23.411       24.034       42.346       19.606      577.612     1793.221      384.382        0.865        0.138      118.347       16.684        0.020      343.957       20.434      861.188
09/01/2014  00:40:00      -72.314       47.750      -14.239       30.349       25.893       15.153      921.047      670.427      229.602        0.477        0.091       86.657        6.886        0.006      343.926       20.382      861.218
09/01/2014  00:41:00      -40.970       73.497       -6.264       43.025       70.523       31.839     1851.171     4973.442     1013.730        0.748        0.392       84.145       44.295        0.277      344.061       20.612      861.226
09/01/2014  00:42:00      -80.386       12.102       -3.982       33.606       27.287       22.859     1129.336      744.565      522.515        0.451        0.120       81.292       15.342        0.036      344.008       20.522      861.228
09/01/2014  00:43:00      -59.032       17.144       -6.431       24.456       26.196       16.190      598.076      686.240      262.113        0.268        0.077       61.472       10.619        0.030      344.076       20.638      861.232
09/01/2014  00:44:00      -86.660       37.954      -18.232       51.381       49.153       21.435     2640.042     2416.053      459.469        0.740        0.276       94.607       27.444        0.084      344.035       20.570      861.240
09/01/2014  00:45:00      -88.182       46.250      -15.332       43.498       30.708       27.788     1892.084      942.975      772.200        0.688        0.180       99.575       20.298        0.042      344.186       20.826      861.254
09/01/2014  00:46:00      -91.030      100.038      -21.289       61.148       63.730       39.518     3739.077     4061.492     1561.637        1.405        0.468      135.256       36.423        0.073      344.210       20.866      861.263
09/01/2014  00:47:00      -66.311       89.918      -16.559       55.997       63.172       26.805     3135.652     3990.644      718.492        1.030        0.392      111.725       18.480        0.027      344.155       20.772      861.259
09/01/2014  00:48:00     -100.780       76.242      -20.937       40.039       54.631       22.116     1603.150     2984.595      489.119        1.074        0.254      126.371       21.345        0.029      344.171       20.801      861.238
09/01/2014  00:49:00     -106.163      133.346      -24.792       65.713       80.467       37.441     4318.194     6474.866     1401.837        2.093        0.610      170.446       41.413        0.059      344.267       20.962      861.227
09/01/2014  00:50:00     -127.445      134.901      -17.950       55.030       73.823       33.768     3028.247     5449.777     1140.262        2.219        0.481      185.582       32.185        0.030      344.237       20.911      861.246
09/01/2014  00:51:00     -131.763      182.131      -30.857       60.839       63.726       38.568     3701.413     4060.953     1487.456        3.037        0.462      224.796       35.489        0.025      344.319       21.051      861.252
09/01/2014  00:52:00     -155.937      130.219      -27.662       44.922       54.749       35.999     2018.003     2997.504     1295.901        2.417        0.316      203.158       26.892        0.018      344.260       20.950      861.262
09/01/2014  00:53:00     -111.787       29.817      -16.351       34.282       47.101       25.779     1175.278     2218.547      664.581        0.885        0.203      115.695       15.858        0.019      344.180       20.817      861.260
09/01/2014  00:54:00     -124.751        9.179      -21.156       71.111       40.434       25.681     5056.717     1634.939      659.511        1.172        0.368      125.088       22.625        0.033      344.173       20.802      861.275
09/01/2014  00:55:00     -122.819       26.882      -14.866       47.217       58.640       33.429     2229.422     3438.691     1117.512        1.141        0.339      125.726       21.585        0.029      344.136       20.740      861.278
09/01/2014  00:56:00     -161.947       32.510      -22.491       64.224       92.894       28.658     4124.773     8629.265      821.266        2.068        0.679      165.178       18.481        0.013      344.046       20.585      861.279
09/01/2014  00:57:00     -153.588      -58.555        8.418       85.398       82.750       47.816     7292.856     6847.502     2286.412        2.175        0.821      164.371       34.325        0.044      343.996       20.500      861.279
09/01/2014  00:58:00     -155.253       31.958      -10.391       77.388       54.683       39.599     5988.825     2990.201     1568.085        1.789        0.527      158.508       40.464        0.065      343.931       20.389      861.290
09/01/2014  00:59:00     -163.962      -61.052      -16.437       42.495       53.409       30.103     1805.866     2852.560      906.168        1.822        0.278      174.960       18.370        0.011      343.918       20.367      861.279
09/01/2014  01:00:00     -176.512      -45.707      -12.156       57.030       63.442       34.959     3252.462     4024.825     1222.130        2.094        0.425      182.333       16.286        0.008      343.831       20.218      861.278
09/01/2014  01:01:00     -139.674      -32.524       -6.562       61.499       39.516       34.635     3782.081     1561.516     1199.550        1.358        0.327      143.411       25.781        0.032      343.727       20.039      861.296
09/01/2014  01:02:00      -69.907        8.089       -5.509       41.192       39.512       25.118     1696.812     1561.206      630.921        0.444        0.194       70.373       25.350        0.130      343.708       20.008      861.310
09/01/2014  01:03:00      -83.230       11.043       -2.991       51.627       57.180       27.421     2665.365     3269.502      751.894        0.687        0.334       83.960       13.376        0.025      343.701       19.997      861.321
09/01/2014  01:04:00     -133.005       58.751      -16.811       53.013       56.644       30.420     2810.424     3208.529      925.363        1.418        0.347      145.403       26.788        0.034      343.739       20.063      861.317
09/01/2014  01:05:00      -83.851       46.800       -8.427       54.713       70.452       35.923     2993.498     4963.477     1290.453        0.927        0.462       96.027       28.702        0.089      343.693       19.984      861.314
09/01/2014  01:06:00      -99.237       60.914      -21.345       41.143       40.854       32.241     1692.765     1669.082     1039.491        0.921        0.220      116.441       21.458        0.034      343.756       20.090      861.323
09/01/2014  01:07:00     -160.352       55.618      -16.057       64.287       48.703       30.807     4132.809     2371.948      949.068        1.826        0.373      169.723       30.417        0.032      343.731       20.048      861.338
09/01/2014  01:08:00     -136.379       44.361      -11.954       40.817       25.945       25.080     1666.020      673.166      629.005        1.184        0.148      143.412       10.672        0.006      343.679       19.960      861.339
09/01/2014  01:09:00     -128.666       61.526      -30.642       48.793       40.419       24.133     2380.728     1633.693      582.402        1.294        0.230      142.619       20.676        0.021      343.736       20.058      861.339
09/01/2014  01:10:00      -96.877        5.647       -5.191       46.994       46.830       24.468     2208.451     2193.031      598.669        0.722        0.250       97.041       27.402        0.080      343.697       19.992      861.355
09/01/2014  01:11:00      -59.677       22.770       -0.810       35.022       35.473       21.576     1226.568     1258.306      465.531        0.351        0.148       63.873       14.703        0.053      343.656       19.920      861.365
09/01/2014  01:12:00     -110.366      123.351      -18.098       79.006       97.505       40.178     6241.887     9507.257     1614.300        2.254        0.868      165.518       48.193        0.085      343.733       20.052      861.355
09/01/2014  01:13:00     -134.820      125.442      -25.252       67.536       87.052       38.512     4561.104     7578.134     1483.160        2.408        0.681      184.152       37.945        0.042      343.773       20.119      861.346
09/01/2014  01:14:00     -145.662      125.123      -28.991       72.718       83.271       40.397     5287.885     6934.078     1631.948        2.578        0.693      192.024       37.243        0.038      343.811       20.185      861.357
09/01/2014  01:15:00      -66.436       79.552       -4.096       52.045       62.632       34.516     2708.634     3922.828     1191.375        0.929        0.391      103.645       25.918        0.063      343.799       20.167      861.356
09/01/2014  01:16:00     -132.370       94.768      -19.766       64.138       65.918       35.471     4113.723     4345.179     1258.210        1.830        0.486      162.797       28.884        0.031      343.841       20.236      861.354
09/01/2014  01:17:00     -150.942      220.150      -42.980       98.615      107.844       56.096     9724.840    11630.360     3146.735        4.879        1.225      266.926       64.606        0.059      343.866       20.275      861.353
09/01/2014  01:18:00     -104.649      220.966      -27.878       67.185       95.991       42.950     4513.885     9214.280     1844.705        3.806        0.779      244.494       34.525        0.020      343.854       20.255      861.350
09/01/2014  01:19:00     -125.636      227.351      -27.832      107.774      108.935       62.381    11615.308    11866.939     3891.338        4.781        1.369      259.755       47.081        0.033      343.916       20.361      861.349
09/01/2014  01:20:00     -109.831      256.604      -22.853       70.347      110.935       52.550     4948.690    12306.674     2761.503        4.922        1.001      279.121       44.206        0.025      343.876       20.294      861.364
09/01/2014  01:21:00     -126.514      228.947      -38.175       84.172      111.604       56.328     7084.844    12455.378     3172.823        4.629        1.136      261.577       61.627        0.056      343.871       20.282      861.365
09/01/2014  01:22:00     -124.531      256.611      -29.204       68.272       95.706       52.644     4661.034     9159.546     2771.418        4.940        0.830      285.231       54.424        0.036      343.820       20.198      861.358
09/01/2014  01:23:00     -125.884      242.867      -37.428       80.493      102.488       54.859     6479.075    10503.692     3009.507        4.811        1.000      273.553       49.040        0.032      343.824       20.204      861.370
09/01/2014  01:24:00     -152.089      227.950      -36.256       99.357      133.125       59.989     9871.870    17722.207     3598.682        5.379        1.560      274.030       64.501        0.055      343.855       20.259      861.366
09/01/2014  01:25:00     -154.694      320.574      -42.347       72.072       99.585       56.236     5194.394     9917.151     3162.501        7.338        0.914      355.947       45.308        0.016      343.896       20.326      861.369
09/01/2014  01:26:00     -170.155      249.920      -37.384       83.817       96.896       59.188     7025.360     9388.756     3503.169        5.636        0.996      302.345       53.574        0.031      343.879       20.299      861.367
09/01/2014  01:27:00     -131.856      232.241      -33.157       48.126      109.040       42.457     2316.100    11889.716     1802.627        4.421        0.800      267.061       42.302        0.025      343.834       20.222      861.364
09/01/2014  01:28:00     -152.147      281.533      -43.125       74.520       95.788       51.722     5553.287     9175.341     2675.132        6.083        0.870      320.015       47.147        0.022      343.817       20.193      861.356
09/01/2014  01:29:00     -136.966      216.921      -44.084       68.435       88.132       44.151     4683.365     7767.307     1949.326        4.108        0.720      256.543       43.369        0.029      343.797       20.158      861.359
09/01/2014  01:30:00     -143.008      211.271      -31.280       92.296      119.344       57.994     8518.497    14243.053     3363.317        4.609        1.306      255.121       52.453        0.042      343.779       20.129      861.362
09/01/2014  01:31:00     -105.304      201.187      -14.757       81.223      103.139       50.825     6597.156    10637.621     2583.183        3.580        0.991      227.079       48.077        0.045      343.725       20.035      861.349
09/01/2014  01:32:00      -99.493      191.374      -13.509       71.052      104.917       54.007     5048.450    11007.480     2916.728        3.284        0.949      215.692       59.287        0.076      343.679       19.958      861.343
09/01/2014  01:33:00     -159.211      231.454      -45.028       70.717       98.276       44.258     5000.918     9658.149     1958.734        4.878        0.831      280.925       45.939        0.027      343.726       20.037      861.355
09/01/2014  01:34:00     -128.756      140.556      -23.843       60.126       85.872       45.695     3615.115     7374.059     2088.013        2.499        0.654      190.615       47.990        0.063      343.681       19.961      861.344
09/01/2014  01:35:00     -133.973       96.441      -11.674       82.687       81.356       39.872     6837.082     6618.791     1589.792        2.121        0.752      165.074       42.235        0.065      343.709       20.009      861.353
09/01/2014  01:36:00     -154.928      138.918      -28.377       98.968       57.018       39.516     9794.577     3251.054     1561.541        2.935        0.730      208.089       26.594        0.016      343.645       19.900      861.357
09/01/2014  01:37:00     -193.558      187.286      -36.250       73.037      119.450       51.610     5334.413    14268.212     2663.565        4.806        1.113      269.334       57.992        0.046      343.642       19.893      861.348
09/01/2014  01:38:00     -165.842      196.576      -43.818       69.026       72.934       44.280     4764.637     5319.350     1960.725        4.005        0.602      257.189       43.410        0.028      343.639       19.888      861.357
09/01/2014  01:39:00     -161.465      144.404      -30.165       58.525       54.886       41.420     3425.143     3012.437     1715.603        2.799        0.408      216.618       35.411        0.027      343.614       19.847      861.353
09/01/2014  01:40:00     -170.858      236.526      -44.240       48.764       95.209       38.957     2377.947     9064.678     1517.628        5.002        0.648      291.782       30.484        0.011      343.634       19.881      861.342
09/01/2014  01:41:00     -210.139      293.501      -54.201       90.710      104.516       62.251     8228.248    10923.566     3875.140        7.813        1.151      360.973       67.697        0.035      343.693       19.981      861.340
09/01/2014  01:42:00     -195.038      210.105      -55.789       72.987       73.601       45.748     5327.072     5417.174     2092.845        4.906        0.642      286.677       44.602        0.024      343.677       19.953      861.348
09/01/2014  01:43:00     -115.618      154.066      -20.154       82.770       84.649       49.912     6850.865     7165.396     2491.201        2.701        0.825      192.623       56.036        0.085      343.587       19.801      861.346
09/01/2014  01:44:00     -118.192      165.114      -34.739       59.861       66.713       44.188     3583.303     4450.615     1952.602        2.621        0.499      203.057       43.165        0.045      343.539       19.720      861.347
09/01/2014  01:45:00     -139.916      186.324      -30.053       50.526       86.361       39.595     2552.894     7458.150     1567.775        3.339        0.579      233.008       32.826        0.020      343.538       19.717      861.357
09/01/2014  01:46:00     -152.712      183.655      -39.289       51.195       80.486       40.308     2620.949     6478.039     1624.729        3.466        0.536      238.852       30.064        0.016      343.590       19.805      861.355
09/01/2014  01:47:00     -165.621      155.325      -44.181       41.028       54.633       32.876     1683.287     2984.809     1080.838        2.963        0.287      227.060       30.978        0.019      343.563       19.758      861.357
09/01/2014  01:48:00     -160.581      158.496      -39.932       57.393       60.913       37.304     3293.930     3710.345     1391.563        3.045        0.420      225.626       36.503        0.026      343.542       19.724      861.364
09/01/2014  01:49:00     -135.090      153.559      -31.159       54.231       70.265       33.713     2941.029     4937.104     1136.596        2.591        0.451      204.523       31.833        0.024      343.504       19.660      861.365
09/01/2014  01:50:00     -169.257      161.207      -32.849       77.664      105.910       45.945     6031.681    11216.913     2110.926        3.753        0.968      233.743       50.966        0.048      343.498       19.649      861.362
09/01/2014  01:51:00     -122.495      103.667      -20.663       61.765       61.815       42.398     3814.862     3821.056     1797.575        1.780        0.472      160.474       39.596        0.061      343.503       19.658      861.350
09/01/2014  01:52:00      -98.791       70.333      -10.657       58.567       62.158       37.487     3430.121     3863.587     1405.260        1.176        0.435      121.270       34.378        0.080      343.478       19.616      861.349
09/01/2014  01:53:00      -78.378       47.718       -7.270       43.297       94.608       37.571     1874.605     8950.581     1411.615        1.035        0.612       91.761       36.809        0.161      343.512       19.676      861.345
09/01/2014  01:54:00     -136.566      -42.153       -6.998       48.603       56.007       29.405     2362.228     3136.783      864.677        1.342        0.318      142.923       22.426        0.025      343.467       19.599      861.352
09/01/2014  01:55:00     -215.782      -68.539      -16.549       55.939       46.701       27.459     3129.128     2180.984      753.993        2.880        0.303      226.405       19.003        0.007      343.356       19.407      861.368
09/01/2014  01:56:00     -193.511      -44.205      -13.362       47.883       63.728       32.155     2292.815     4061.294     1033.944        2.348        0.369      198.495       26.419        0.018      343.181       19.109      861.378
09/01/2014  01:57:00     -187.765      -35.328      -24.036       70.875       48.980       30.912     5023.308     2399.016      955.578        2.273        0.419      191.060       34.927        0.033      343.194       19.132      861.386
09/01/2014  01:58:00      -80.758       -4.985       -6.978       75.222       44.050       30.196     5658.355     1940.404      911.823        0.755        0.426       80.911       29.874        0.136      343.212       19.165      861.386
09/01/2014  01:59:00      -41.941       51.413      -13.188       36.788       38.180       31.152     1353.342     1457.697      970.424        0.418        0.189       66.350       28.373        0.183      343.295       19.305      861.375
09/01/2014  02:00:00      -55.378        3.144        3.160       30.487       40.499       22.771      929.435     1640.146      518.523        0.309        0.154       55.468       14.406        0.067      343.302       19.319      861.367
09/01/2014  02:01:00      -97.265      -31.959      -13.083       47.074       25.964       21.823     2215.976      674.155      476.246        0.701        0.168      102.381       23.181        0.051      343.326       19.359      861.378
09/01/2014  02:02:00     -143.129      -41.576       -9.789       54.114       48.509       31.351     2928.342     2353.092      982.878        1.429        0.313      149.045       28.992        0.038      343.341       19.384      861.390
09/01/2014  02:03:00     -120.855      -30.438       -8.388       74.282       42.275       38.116     5517.867     1787.149     1452.857        1.218        0.438      124.629       38.751        0.097      343.218       19.175      861.402
09/01/2014  02:04:00     -179.810      -54.526      -14.478       47.987       46.439       27.587     2302.738     2156.559      761.049        2.037        0.261      187.895       13.681        0.005      343.177       19.105      861.405
09/01/2014  02:05:00     -164.047      -66.772       -4.206       98.929       56.436       40.061     9786.851     3185.057     1604.877        2.298        0.729      177.116       45.626        0.066      343.212       19.163      861.382
09/01/2014  02:06:00      -77.104      -54.022       13.574       70.373       53.363       33.730     4952.376     2847.586     1137.681        0.899        0.447       94.146       35.140        0.139      343.556       19.750      861.353
09/01/2014  02:07:00      -71.509       69.650       -7.163       49.466       60.038       32.418     2446.846     3604.602     1050.911        0.856        0.355       99.823       33.528        0.113      343.380       19.451      861.395
09/01/2014  02:08:00     -113.946       14.695      -10.748       34.164       49.611       15.195     1167.158     2461.236      230.873        0.859        0.193      114.889       11.542        0.010      343.276       19.273      861.415
09/01/2014  02:09:00     -133.195      -38.097       -8.937       34.895       25.486       19.147     1217.666      649.520      366.621        1.075        0.112      138.536       16.882        0.015      343.289       19.296      861.407
09/01/2014  02:10:00     -151.002      -51.099      -11.020       27.586       22.602       14.661      760.972      510.861      214.949        1.351        0.074      159.414        6.657        0.002      343.403       19.488      861.409
09/01/2014  02:11:00     -102.918      -70.385       -1.394       50.022       35.071       29.466     2502.244     1230.006      868.257        1.007        0.230      124.684       30.594        0.060      343.325       19.356      861.394
09/01/2014  02:12:00     -110.039      -53.587        2.951       49.429       31.172       23.412     2443.226      971.687      548.103        0.948        0.198      122.394       21.174        0.030      343.209       19.160      861.394
09/01/2014  02:13:00     -136.118      -32.412        2.844       51.203       39.153       27.977     2621.763     1532.920      782.722        1.226        0.247      139.924       25.614        0.034      343.251       19.231      861.397
09/01/2014  02:14:00     -126.707      -33.002       -0.453       50.647       42.273       22.127     2565.139     1786.995      489.623        1.099        0.242      130.934       22.026        0.028      343.589       19.807      861.394
09/01/2014  02:15:00      -94.456      -21.329       -3.937       39.673       34.713       18.968     1573.957     1204.985      359.768        0.626        0.157       96.835       18.681        0.037      343.345       19.391      861.394
09/01/2014  02:16:00      -63.960       -7.408        4.035       35.060       39.592       21.021     1229.180     1567.523      441.887        0.370        0.162       64.387       14.513        0.051      343.330       19.366      861.402
09/01/2014  02:17:00      -58.167      -26.088        8.067       29.810       24.606       16.837      888.610      605.448      283.475        0.295        0.089       63.749       17.728        0.077      343.288       19.292      861.410
09/01/2014  02:18:00      -66.564      -42.744       -3.175       26.804       17.767       14.838      718.472      315.669      220.176        0.376        0.063       79.106        7.172        0.008      343.432       19.540      861.412
09/01/2014  02:19:00      -72.859      -49.818       -0.572       27.333       25.944       14.885      747.092      673.105      221.557        0.472        0.082       88.263       14.944        0.029      343.422       19.523      861.406
09/01/2014  02:20:00      -60.058      -25.385       -0.729       35.692       20.294       18.367     1273.909      411.830      337.345        0.314        0.101       65.202       17.624        0.073      343.359       19.415      861.412
09/01/2014  02:21:00      -70.631        2.152       -1.295       25.774       16.680       10.236      664.312      278.229      104.781        0.302        0.052       70.664        4.206        0.004      343.340       19.382      861.423
09/01/2014  02:22:00      -32.890       -7.115        0.083       13.662       12.855        6.711      186.644      165.240       45.037        0.076        0.020       33.651        3.347        0.010      343.317       19.344      861.426
09/01/2014  02:23:00      -14.588      -58.633      -10.572       24.228       31.805       14.381      587.014     1011.542      206.822        0.278        0.090       60.421       11.500        0.036      343.459       19.586      861.417
09/01/2014  02:24:00      -21.973      -57.322        0.015       29.512       52.083       19.518      870.949     2712.686      380.951        0.387        0.198       61.389       24.150        0.155      343.389       19.468      861.417
09/01/2014  02:25:00      -21.382      -35.684       -2.088       24.551       38.608       22.809      602.728     1490.581      520.229        0.217        0.131       41.600       16.697        0.161      343.287       19.293      861.423
09/01/2014  02:26:00      -47.450      -11.446       -0.416       19.965       22.302       13.029      398.594      497.375      169.753        0.172        0.053       48.811        9.845        0.041      343.239       19.210      861.440
09/01/2014  02:27:00      -15.041      -21.102       -2.403       24.742       14.575       15.240      612.179      212.431      232.252        0.087        0.053       25.914       10.161        0.154      343.193       19.131      861.458
09/01/2014  02:28:00      -54.733     -113.244       -4.182       26.731       21.152       13.923      714.520      447.426      193.842        0.860        0.068      125.777        9.652        0.006      343.183       19.115      861.452
09/01/2014  02:29:00      -53.221      -48.879        9.531       29.262       24.179       18.136      856.243      584.627      328.921        0.354        0.088       72.261       10.154        0.020      343.134       19.032      861.440
09/01/2014  02:30:00      -49.442     -113.067       -4.415       49.246       55.347       25.682     2425.123     3063.289      659.557        1.070        0.307      123.404       33.772        0.075      343.146       19.052      861.431
09/01/2014  02:31:00     -139.796     -129.312      -12.924       43.594       46.914       25.858     1900.432     2200.879      668.657        2.060        0.238      190.433       13.096        0.005      343.129       19.022      861.437
09/01/2014  02:32:00      -69.644      -69.831        3.426       48.809       46.149       31.764     2382.279     2129.738     1008.930        0.763        0.276       98.623       21.051        0.046      343.049       18.888      861.433
09/01/2014  02:33:00      -25.228      -62.483        4.147       44.420       44.899       31.980     1973.104     2015.925     1022.713        0.478        0.251       67.384       29.635        0.193      343.058       18.903      861.429
09/01/2014  02:34:00      -19.902     -112.903       -5.355       44.294       31.653       23.297     1961.983     1001.930      542.751        0.834        0.175      114.643       16.747        0.021      343.160       19.077      861.432
09/01/2014  02:35:00       12.496      -76.261       -9.655       27.028       31.125       28.945      730.496      968.761      837.809        0.430        0.127       77.278       14.501        0.035      343.242       19.215      861.431
09/01/2014  02:36:00      -31.774      -41.020      -10.160       56.628       29.842       17.054     3206.773      890.537      290.824        0.359        0.219       51.887       15.395        0.088      343.251       19.231      861.446
09/01/2014  02:37:00      -93.260      -39.296        4.769       34.144       29.325       17.816     1165.830      859.939      317.398        0.630        0.117      101.200        6.796        0.005      343.125       19.018      861.467
09/01/2014  02:38:00      -75.666      -39.425       -6.531       32.996       25.766       15.243     1088.749      663.862      232.361        0.465        0.099       85.321       11.411        0.018      343.031       18.856      861.477
09/01/2014  02:39:00      -50.147      -30.929        1.279       35.453       16.441       19.612     1256.938      270.304      384.620        0.269        0.096       58.918       16.455        0.078      343.008       18.818      861.475
09/01/2014  02:40:00      -66.668      -71.950        3.381       43.619       38.848       19.768     1902.585     1509.154      390.759        0.672        0.190       98.089       23.049        0.055      342.886       18.609      861.463
09/01/2014  02:41:00      -54.713      -71.569       -6.107       30.869       25.757       15.037      952.875      663.430      226.101        0.500        0.092       90.087       12.386        0.019      342.830       18.516      861.456
09/01/2014  02:42:00      -86.171      -89.874       -6.398       28.456       19.323       17.069      809.771      373.374      291.355        0.851        0.074      124.510       15.795        0.016      342.799       18.462      861.437
09/01/2014  02:43:00      -68.974      -47.647        1.837       29.736       25.620       19.669      884.211      656.370      386.851        0.448        0.096       83.832       13.658        0.027      342.735       18.351      861.441
09/01/2014  02:44:00      -15.812      -25.956       12.068       37.388       23.721       16.142     1397.865      562.672      260.566        0.164        0.111       30.393       16.637        0.300      342.662       18.228      861.441
09/01/2014  02:45:00      -22.757      -35.093        0.265       21.249       17.780       15.174      451.534      316.125      230.243        0.137        0.050       41.826       12.568        0.090      342.759       18.392      861.438
09/01/2014  02:46:00      -65.780      -45.421       -8.797       14.182       23.423       10.229      201.115      548.659      104.640        0.366        0.043       79.938        8.947        0.013      342.782       18.433      861.439
09/01/2014  02:47:00      -32.399      -43.355        2.406       35.003       12.388       15.731     1225.228      153.457      247.479        0.228        0.081       54.123       13.461        0.062      342.821       18.497      861.433
09/01/2014  02:48:00        7.006      -34.547        0.679       13.318       15.232       16.145      177.376      232.008      260.667        0.096        0.034       35.250        6.974        0.039      342.802       18.464      861.437
09/01/2014  02:49:00        5.022       -4.305      -11.749       17.929       10.286        8.237      321.453      105.796       67.851        0.034        0.025        6.615        4.945        0.559      342.792       18.454      861.435
09/01/2014  02:50:00       -0.706        3.527        7.412        7.773        9.702        9.335       60.422       94.138       87.149        0.015        0.012        3.597        4.815        1.793      342.710       18.311      861.433
09/01/2014  02:51:00       -2.267        8.602        5.319        9.416        9.207        5.170       88.652       84.769       26.731        0.015        0.010        8.896        5.523        0.386      342.677       18.253      861.432
09/01/2014  02:52:00        5.124        3.340       10.470       10.270       10.710        7.694      105.474      114.711       59.204        0.021        0.014        6.117        5.951        0.947      342.590       18.106      861.442
09/01/2014  02:53:00      -47.799      -13.519       -5.507       16.226       12.545        8.221      263.272      157.369       67.591        0.149        0.024       49.674        8.186        0.027      342.823       18.503      861.442
09/01/2014  02:54:00      -19.976      -32.806       -4.603       27.531       11.724        8.188      757.961      137.457       67.038        0.123        0.048       38.409        6.289        0.027      342.660       18.224      861.437
09/01/2014  02:55:00        4.196      -47.837       -6.789       12.342       20.668        9.268      152.325      427.179       85.897        0.151        0.033       48.021        7.351        0.023      342.805       18.471      861.414
09/01/2014  02:56:00        7.022      -37.972       -8.460       17.150       24.173       13.451      294.139      584.345      180.927        0.131        0.053       38.616       10.401        0.073      342.729       18.343      861.411
09/01/2014  02:57:00       -2.679       -4.320       14.374        7.418       10.271        5.347       55.033      105.487       28.587        0.021        0.009        5.083        4.704        0.857      342.645       18.199      861.418
09/01/2014  02:58:00      -36.355       -2.687       -3.587       25.697       22.023       11.363      660.353      485.006      129.110        0.131        0.064       36.454       10.403        0.081      342.441       17.853      861.432
09/01/2014  02:59:00      -33.426      -21.621        3.872       23.400       14.610       12.801      547.575      213.438      163.873        0.126        0.046       39.809       12.699        0.102      342.428       17.831      861.448
09/01/2014  03:00:00      -40.413      -33.969        7.299       22.681       16.533       15.425      514.448      273.330      237.945        0.193        0.051       52.793       13.892        0.069      342.477       17.915      861.454
09/01/2014  03:01:00      -14.987      -41.108       -1.296       16.568       12.404        9.905      274.497      153.865       98.101        0.122        0.026       43.755        4.241        0.009      342.636       18.186      861.441
09/01/2014  03:02:00      -32.564      -32.712        1.562       25.725       21.115       17.657      661.798      445.851      311.776        0.178        0.071       46.157       14.675        0.101      342.534       18.010      861.440
09/01/2014  03:03:00      -46.629      -44.299        4.955       37.176       32.897       20.927     1382.080     1082.222      437.941        0.353        0.145       64.317       12.612        0.038      342.441       17.854      861.447
09/01/2014  03:04:00      -45.087      -50.823        1.758       43.652       36.730       26.150     1905.512     1349.090      683.809        0.428        0.197       67.940       16.039        0.056      342.379       17.748      861.452
09/01/2014  03:05:00      -71.518      -45.111        2.408       49.946       34.642       30.016     2494.574     1200.099      900.963        0.587        0.230       84.557       16.641        0.039      342.386       17.758      861.465
09/01/2014  03:06:00      -65.557      -32.078        5.786       42.180       25.667       21.674     1779.145      658.801      469.754        0.413        0.145       72.984       15.390        0.044      342.297       17.606      861.467
09/01/2014  03:07:00       -6.830      -36.712        6.888       18.132       29.550       17.481      328.767      873.174      305.586        0.147        0.075       37.342       13.688        0.134      342.438       17.848      861.461
09/01/2014  03:08:00      -50.114      -38.000        6.521       38.837       27.543       19.165     1508.343      758.604      367.278        0.332        0.132       62.892       16.318        0.067      342.341       17.684      861.460
09/01/2014  03:09:00      -90.210      -58.072        2.481       31.401       24.737       18.536      986.041      611.897      343.586        0.673        0.097      107.286       10.002        0.009      342.283       17.585      861.466
09/01/2014  03:10:00      -31.890      -46.628        5.178       35.556       25.540       18.446     1264.198      652.304      340.245        0.274        0.113       56.490       13.000        0.053      342.364       17.723      861.467
09/01/2014  03:11:00      -15.903      -27.695        4.633       37.736       30.807       22.198     1424.004      949.058      492.755        0.195        0.143       31.936       17.819        0.311      342.350       17.699      861.466
09/01/2014  03:12:00      -73.945      -42.871        5.261       56.357       28.518       23.959     3176.153      813.261      574.047        0.595        0.228       85.474       23.193        0.074      342.245       17.520      861.469
09/01/2014  03:13:00      -45.248      -47.162       10.802       51.680       26.818       22.498     2670.795      719.215      506.178        0.414        0.195       65.358       22.677        0.120      342.288       17.592      861.473
09/01/2014  03:14:00      -19.516      -67.817        6.311       18.383       40.396       15.114      337.940     1631.855      228.429        0.361        0.110       70.569        7.260        0.011      342.496       17.945      861.475
09/01/2014  03:15:00       18.428       18.141        9.732       23.465       19.758       13.235      550.625      390.374      175.165        0.094        0.056       25.859        8.824        0.116      342.369       17.730      861.476
09/01/2014  03:16:00        9.487       22.351       -3.290       11.975       16.945        6.309      143.392      287.142       39.809        0.054        0.024       24.281        9.007        0.138      342.462       17.887      861.493
09/01/2014  03:17:00      -26.073      -17.246       -1.292       21.131       22.165       10.338      446.499      491.288      106.868        0.101        0.052       31.261       10.090        0.104      342.516       17.979      861.500
09/01/2014  03:18:00        0.867      -49.270       -6.642       23.658       26.535       17.735      559.686      704.124      314.544        0.203        0.079       49.278       12.530        0.065      342.522       17.990      861.494
09/01/2014  03:19:00      -18.027      -10.002        3.111       20.782       19.104       12.759      431.912      364.953      162.785        0.070        0.048       20.616        7.301        0.125      342.382       17.752      861.487
09/01/2014  03:20:00      -26.484       -0.202        5.501       28.537       18.052        9.015      814.383      325.870       81.279        0.098        0.061       26.485        5.464        0.043      342.359       17.714      861.501
09/01/2014  03:21:00        3.544       -3.722       11.671       13.894       12.187        7.496      193.033      148.511       56.188        0.028        0.020        5.140        7.193        1.959      342.224       17.484      861.518
09/01/2014  03:22:00      -28.483      -29.441        0.365       25.233       17.239       11.687      636.699      297.174      136.575        0.137        0.054       40.964        4.419        0.012      342.278       17.575      861.523
09/01/2014  03:23:00       -6.877      -32.447        1.464       14.591       25.445       13.790      212.895      647.431      190.160        0.108        0.053       33.168       12.278        0.137      342.249       17.527      861.519
09/01/2014  03:24:00        2.345       -4.134        9.237       10.828       15.857        8.042      117.246      251.431       64.676        0.027        0.022        4.753        4.557        0.919      342.199       17.441      861.509
09/01/2014  03:25:00      -12.356       -0.832        8.426       13.746       14.507        7.979      188.941      210.449       63.663        0.034        0.023       12.384        5.898        0.227      342.155       17.369      861.506
09/01/2014  03:26:00      -45.989       15.156       -3.080       12.738       12.085        7.923      162.249      146.045       62.776        0.136        0.019       48.422        5.855        0.015      342.129       17.323      861.507
09/01/2014  03:27:00      -46.879        4.613       -6.536        8.335       11.310        6.503       69.464      127.906       42.283        0.125        0.012       47.105        4.400        0.009      342.103       17.279      861.506
09/01/2014  03:28:00      -52.587      -12.482       -2.357       14.222        8.686        5.855      202.276       75.452       34.282        0.162        0.016       54.048        6.054        0.013      342.119       17.306      861.509
09/01/2014  03:29:00      -49.631      -21.268        0.396       13.349       13.216        9.034      178.197      174.670       81.606        0.168        0.022       53.996        6.855        0.016      341.990       17.087      861.512
09/01/2014  03:30:00      -83.227      -38.490      -10.007        9.850       14.683        9.359       97.027      215.580       87.596        0.445        0.020       91.696        5.118        0.003      341.943       17.008      861.520
09/01/2014  03:31:00      -28.812      -35.728       -2.471       37.817       14.749       12.650     1430.114      217.526      160.026        0.196        0.090       45.898       14.603        0.101      341.900       16.934      861.509
09/01/2014  03:32:00      -13.622      -21.976       -8.729       13.973       14.320        5.845      195.254      205.076       34.159        0.059        0.022       25.855        2.924        0.013      341.982       17.073      861.498
09/01/2014  03:33:00      -43.684      -12.647       -8.558       17.607        8.755        6.644      310.005       76.642       44.138        0.129        0.022       45.478        4.887        0.012      342.019       17.139      861.492
09/01/2014  03:34:00      -59.031       -7.048       -7.505       16.967       12.784       10.650      287.894      163.440      113.429        0.208        0.028       59.450       10.377        0.030      341.970       17.055      861.497
09/01/2014  03:35:00     -102.606      -32.512       -6.387       33.986       19.317       13.287     1155.080      373.152      176.546        0.666        0.085      107.634       15.024        0.019      341.851       16.850      861.489
09/01/2014  03:36:00     -126.248      -44.695       -3.408       17.991       13.789        9.836      323.673      190.129       96.755        0.928        0.031      133.927       10.505        0.006      341.886       16.909      861.487
09/01/2014  03:37:00      -73.398      -42.203        1.914       35.402       23.734       15.666     1253.285      563.319      245.417        0.462        0.103       84.666       12.024        0.020      341.882       16.905      861.474
09/01/2014  03:38:00      -56.345      -44.906       -0.358       21.795       15.543       14.430      475.003      241.591      208.225        0.306        0.046       72.051       10.115        0.020      341.918       16.965      861.468
09/01/2014  03:39:00      -73.833      -45.314       -1.189       36.128       21.079       17.177     1305.222      444.324      295.055        0.477        0.102       86.629       15.612        0.032      341.849       16.848      861.474
09/01/2014  03:40:00     -117.446      -51.829       -8.359       21.943       25.390       15.732      481.506      644.646      247.503        0.896        0.069      128.374       11.992        0.009      341.853       16.855      861.478
09/01/2014  03:41:00      -98.891       12.868      -13.375       33.885       28.505       14.169     1148.168      812.544      200.754        0.614        0.108       99.725       10.778        0.012      341.611       16.445      861.490
09/01/2014  03:42:00      -89.355      -11.247       -5.918       34.949       27.030       17.590     1221.422      730.647      309.419        0.520        0.113       90.060       15.707        0.030      341.646       16.504      861.493
09/01/2014  03:43:00      -89.655      -39.569       -6.795       18.718       18.494       12.868      350.354      342.044      165.591        0.525        0.043       97.999        9.817        0.010      341.694       16.584      861.493
09/01/2014  03:44:00      -97.184      -45.246       -3.418       21.893       29.541       12.597      479.305      872.665      158.675        0.651        0.076      107.200        6.042        0.003      341.684       16.567      861.491
09/01/2014  03:45:00     -112.346      -56.980        0.425       23.949       23.731       14.188      573.567      563.182      201.301        0.860        0.067      125.970       11.942        0.009      341.594       16.414      861.481
09/01/2014  03:46:00     -111.913      -57.870       -2.026       34.978       25.210       19.996     1223.436      635.523      399.834        0.907        0.113      125.990       15.065        0.014      341.581       16.392      861.461
09/01/2014  03:47:00      -82.326      -55.420        6.527       36.122       24.530       18.120     1304.768      601.724      328.331        0.606        0.112       99.242       17.756        0.032      341.546       16.333      861.451
09/01/2014  03:48:00      -77.870      -77.390        7.472       60.367       54.890       28.959     3644.183     3012.892      838.600        0.980        0.375      109.786       31.522        0.082      341.593       16.414      861.461
09/01/2014  03:49:00      -96.305      -95.358        2.400       46.259       44.228       27.187     2139.865     1956.083      739.112        1.160        0.242      135.528       29.840        0.048      341.642       16.496      861.458
09/01/2014  03:50:00     -106.903      -48.347       -9.078       40.109       30.893       21.343     1608.735      954.395      455.518        0.843        0.151      117.327       16.064        0.019      341.591       16.411      861.463
09/01/2014  03:51:00     -125.461      -63.197        6.279       55.998       41.386       25.429     3135.802     1712.770      646.642        1.263        0.275      140.479       24.066        0.029      341.532       16.309      861.475
09/01/2014  03:52:00      -74.294      -58.342        0.572       41.318       31.444       23.483     1707.201      988.696      551.431        0.608        0.162       94.464       18.732        0.039      341.503       16.261      861.488
09/01/2014  03:53:00      -72.434      -64.454       -0.930       52.485       26.184       22.777     2754.703      685.610      518.800        0.668        0.198       96.959       29.818        0.095      341.515       16.280      861.491
09/01/2014  03:54:00      -56.260      -46.715       -2.757       35.692       36.757       21.903     1273.954     1351.114      479.723        0.423        0.155       73.126       21.461        0.086      341.530       16.307      861.481
09/01/2014  03:55:00      -42.575      -48.105       11.101       50.808       26.768       26.762     2581.455      716.552      716.178        0.413        0.201       64.240       31.150        0.235      341.543       16.330      861.491
09/01/2014  03:56:00      -41.468      -47.035        3.528       47.862       36.939       19.503     2290.777     1364.486      380.367        0.399        0.202       62.704       16.575        0.070      341.539       16.321      861.492
09/01/2014  03:57:00      -84.336      -62.277        4.660       39.811       35.012       24.864     1584.937     1225.837      618.203        0.722        0.171      104.838       21.470        0.042      341.422       16.123      861.492
09/01/2014  03:58:00      -69.800      -58.076        7.815       33.769       36.769       17.718     1140.313     1351.994      313.928        0.556        0.140       90.802       19.206        0.045      341.425       16.128      861.496
09/01/2014  03:59:00      -66.074      -63.181        1.335       38.276       30.179       18.831     1465.077      910.787      354.610        0.554        0.137       91.420       22.152        0.059      341.470       16.205      861.509
09/01/2014  04:00:00     -106.747      -57.307       -0.667       33.994       32.107       20.303     1155.624     1030.880      412.203        0.864        0.130      121.156       12.087        0.010      341.468       16.201      861.513
09/01/2014  04:01:00      -93.483      -61.576        2.318       30.212       30.419       22.942      912.758      925.314      526.332        0.745        0.118      111.941       15.873        0.020      341.424       16.127      861.520
09/01/2014  04:02:00     -112.256      -35.994       -7.063       40.295       34.156       25.406     1623.678     1166.607      645.455        0.869        0.172      117.886       22.864        0.038      341.384       16.059      861.520
09/01/2014  04:03:00      -84.750      -55.495        0.775       30.177       27.010       14.320      910.667      729.547      205.070        0.605        0.092      101.303       12.995        0.016      341.356       16.011      861.516
09/01/2014  04:04:00      -59.114      -39.533        4.186       42.002       31.957       24.793     1764.128     1021.252      614.714        0.424        0.170       71.115       24.048        0.114      341.379       16.049      861.513
09/01/2014  04:05:00     -110.597      -42.019       -3.805       26.098       25.224       15.537      681.102      636.270      241.389        0.778        0.078      118.310       11.926        0.010      341.326       15.962      861.507
09/01/2014  04:06:00      -98.256      -11.017       -0.102       39.257       26.246       19.249     1541.098      688.845      370.516        0.619        0.130       98.871       20.652        0.044      341.233       15.803      861.520
09/01/2014  04:07:00     -128.046      -15.316       -8.281       24.862       20.524       18.974      618.117      421.215      360.031        0.905        0.070      128.959       16.419        0.016      341.187       15.726      861.526
09/01/2014  04:08:00     -114.970      -19.491       -5.538       29.615       29.335       17.915      877.059      860.569      320.934        0.784        0.103      116.611       14.522        0.016      341.173       15.701      861.515
09/01/2014  04:09:00     -117.808      -32.509       -3.016       30.198       22.387       16.698      911.906      501.182      278.816        0.832        0.085      122.211       18.269        0.022      341.240       15.817      861.519
09/01/2014  04:10:00     -121.676      -42.867      -15.435       10.189       14.511       10.877      103.812      210.571      118.304        0.866        0.022      129.006        5.420        0.002      341.249       15.831      861.513
09/01/2014  04:11:00     -112.223      -50.100       -5.146       18.690       19.144       13.181      349.312      366.500      173.739        0.801        0.044      122.898        9.584        0.006      341.218       15.778      861.505
09/01/2014  04:12:00     -119.683      -40.256        0.344       29.856       16.959       13.780      891.362      287.615      189.895        0.866        0.068      126.272       14.603        0.013      341.205       15.754      861.502
09/01/2014  04:13:00      -68.674      -28.825       -0.950       32.121       19.885       17.583     1031.738      395.418      309.167        0.364        0.087       74.478       16.053        0.046      341.229       15.798      861.491
09/01/2014  04:14:00     -101.884      -39.205       -5.838       16.440       19.710        9.809      270.273      388.495       96.226        0.635        0.038      109.167        5.914        0.003      341.280       15.884      861.483
09/01/2014  04:15:00      -47.913      -36.649        5.617       35.132       18.190       17.022     1234.273      330.875      289.746        0.276        0.093       60.323       17.786        0.087      341.289       15.901      861.482
09/01/2014  04:16:00      -97.064      -28.057       -3.270       16.769       16.211       10.577      281.193      262.783      111.874        0.544        0.033      101.038        6.348        0.004      341.329       15.966      861.490
09/01/2014  04:17:00      -89.328      -29.823        2.871       18.090       15.162       12.042      327.258      229.896      145.015        0.479        0.035       94.175       11.076        0.014      341.280       15.885      861.486
09/01/2014  04:18:00      -57.605      -40.645       -0.887       29.267       12.940       17.321      856.587      167.438      300.011        0.315        0.066       70.501       12.124        0.030      341.337       15.980      861.493
09/01/2014  04:19:00      -14.212      -24.782       -5.419       18.083       11.055        9.019      327.010      122.205       81.346        0.069        0.027       28.568        4.364        0.023      341.382       16.055      861.491
09/01/2014  04:20:00      -43.059      -24.463        1.071       18.764       10.908        9.261      352.079      118.983       85.770        0.151        0.028       49.523        6.502        0.017      341.397       16.081      861.485
09/01/2014  04:21:00      -70.721      -16.437       -4.374        9.532        9.701        6.755       90.861       94.115       45.637        0.276        0.012       72.606        2.428        0.001      341.490       16.239      861.501
09/01/2014  04:22:00      -74.441      -24.805      -10.027        9.811       14.810        6.511       96.249      219.346       42.387        0.331        0.018       78.465        2.961        0.001      341.427       16.132      861.499
09/01/2014  04:23:00      -64.410      -33.409        3.732       18.744       13.887       11.250      351.348      192.856      126.553        0.297        0.034       72.559       10.711        0.022      341.402       16.090      861.491
09/01/2014  04:24:00        8.577      -26.888        1.960       11.435       12.928       13.589      130.753      167.130      184.674        0.064        0.024       28.222        7.174        0.065      341.392       16.072      861.499
09/01/2014  04:25:00       -1.057      -43.832       -6.795       10.287       11.395       12.092      105.830      129.840      146.207        0.118        0.019       43.844        7.717        0.031      341.490       16.239      861.502
09/01/2014  04:26:00      -28.234       -8.149       -3.283       16.847       20.074        8.565      283.808      402.958       73.355        0.082        0.038       29.386        8.472        0.083      341.492       16.243      861.514
09/01/2014  04:27:00      -51.826        3.395        0.593       12.362       13.382        9.229      152.830      179.084       85.179        0.156        0.021       51.937        6.077        0.014      341.397       16.081      861.519
09/01/2014  04:28:00      -67.245      -18.215       -7.736       10.656       11.950        8.057      113.549      142.807       64.922        0.262        0.016       69.669        5.319        0.006      341.343       15.990      861.525
09/01/2014  04:29:00      -30.289      -23.723       -3.574       20.818       11.779       10.160      433.394      138.742      103.226        0.108        0.034       38.473        6.100        0.025      341.396       16.079      861.533
09/01/2014  04:30:00      -43.695      -24.062        0.925       21.554       12.069       11.916      464.581      145.657      141.992        0.162        0.038       49.883       11.114        0.050      341.340       15.983      861.535
09/01/2014  04:31:00      -71.131      -44.224       -2.816       39.082       17.397       17.597     1527.437      302.668      309.662        0.458        0.107       83.758       18.021        0.046      341.296       15.912      861.535
09/01/2014  04:32:00      -82.032      -52.682       -1.408       38.244       23.211       15.309     1462.627      538.771      234.374        0.587        0.112       97.491        7.513        0.006      341.224       15.789      861.535
09/01/2014  04:33:00      -41.817      -56.572       -1.893       28.349       21.252       20.032      803.646      451.639      401.274        0.330        0.083       70.350       19.447        0.076      341.250       15.831      861.542
09/01/2014  04:34:00      -57.331      -46.932       -2.306       29.951       19.119       18.278      897.069      365.521      334.098        0.355        0.080       74.091       14.332        0.037      341.218       15.777      861.542
09/01/2014  04:35:00      -91.716      -43.918       -3.728       28.501       17.022       14.021      812.288      289.762      196.594        0.583        0.065      101.689       11.926        0.014      341.194       15.739      861.550
09/01/2014  04:36:00      -56.090      -48.140       -2.166       33.054       26.160       15.533     1092.593      684.333      241.262        0.374        0.101       73.916       16.196        0.048      341.226       15.791      861.557
09/01/2014  04:37:00      -67.254      -55.596        0.863       27.637       26.663       15.694      763.805      710.909      246.315        0.467        0.086       87.258       13.528        0.024      341.204       15.757      861.553
09/01/2014  04:38:00      -81.292      -46.756       -3.075       31.588       21.246       16.234      997.820      451.384      263.558        0.526        0.086       93.779       12.324        0.017      341.184       15.721      861.538
09/01/2014  04:39:00      -81.670      -44.510        0.745       31.618       25.757       18.411      999.695      663.430      338.964        0.533        0.100       93.011       14.807        0.025      341.128       15.625      861.529
09/01/2014  04:40:00     -106.385      -41.709       -5.951       19.183       23.481       12.295      367.977      551.375      151.179        0.708        0.054      114.269        9.475        0.007      341.111       15.596      861.527
09/01/2014  04:41:00      -59.182      -50.834        3.800       51.618       33.744       21.985     2664.387     1138.639      483.352        0.519        0.214       78.017       23.670        0.092      341.064       15.518      861.525
09/01/2014  04:42:00     -114.472      -81.984       -3.275       42.750       52.439       21.710     1827.547     2749.814      471.312        1.244        0.252      140.802       19.502        0.019      341.107       15.590      861.531
09/01/2014  04:43:00      -95.019      -57.594       -2.587       66.230       37.547       28.891     4386.404     1409.780      834.714        0.949        0.332      111.111       34.924        0.099      341.104       15.584      861.537
09/01/2014  04:44:00      -78.089      -80.783        5.131       48.964       36.177       25.370     2397.493     1308.766      643.637        0.850        0.217      112.355       18.748        0.028      341.118       15.608      861.536
09/01/2014  04:45:00      -70.120      -73.102        6.392       45.327       47.024       26.129     2054.529     2211.256      682.742        0.762        0.247      101.295       27.813        0.075      341.050       15.493      861.534
09/01/2014  04:46:00      -37.833      -37.351       10.132       38.611       23.903       20.528     1490.818      571.347      421.383        0.271        0.124       53.165       18.698        0.124      341.096       15.574      861.556
09/01/2014  04:47:00      -31.103      -35.955        0.690       36.303       20.188       16.474     1317.932      407.559      271.395        0.213        0.100       47.541       12.592        0.070      341.141       15.649      861.569
09/01/2014  04:48:00      -21.815      -44.348        2.970       31.825       15.126       15.840     1012.830      228.811      250.919        0.197        0.075       49.424       12.537        0.064      341.166       15.690      861.575
09/01/2014  04:49:00      -19.553      -34.331       10.331       27.999       20.900       18.864      783.954      436.823      355.855        0.162        0.079       39.509       12.806        0.105      341.087       15.557      861.584
09/01/2014  04:50:00      -59.649      -40.591        3.171       43.064       30.799       21.278     1854.481      948.561      452.764        0.424        0.163       72.151       20.295        0.079      341.013       15.433      861.599
09/01/2014  04:51:00      -80.046      -46.973        1.602       39.570       24.589       24.685     1565.780      604.623      609.366        0.570        0.139       92.810       23.748        0.065      341.058       15.507      861.601
09/01/2014  04:52:00      -41.159      -46.762        3.249       36.815       27.316       18.487     1355.349      746.138      341.775        0.317        0.122       62.296       17.998        0.083      341.023       15.448      861.604
09/01/2014  04:53:00      -35.266      -48.489        5.896       21.805       26.913       16.010      475.437      724.325      256.322        0.254        0.073       59.958       10.164        0.029      341.050       15.495      861.611
09/01/2014  04:54:00      -39.576      -50.940        9.905       38.638       26.020       19.165     1492.916      677.051      367.306        0.340        0.127       64.507       20.868        0.105      341.053       15.499      861.611
09/01/2014  04:55:00     -121.413      -45.680      -14.781       41.241       25.426       17.874     1700.821      646.469      319.467        0.986        0.133      129.722       17.337        0.018      341.005       15.417      861.617
09/01/2014  04:56:00      -99.622      -45.563       -6.429       27.697       22.686       19.456      767.111      514.652      378.546        0.685        0.083      109.547       18.712        0.029      340.915       15.267      861.640
09/01/2014  04:57:00      -99.662      -57.428       -5.568       37.312       29.541       16.169     1392.160      872.680      261.425        0.789        0.126      115.024       12.000        0.011      340.930       15.291      861.648
09/01/2014  04:58:00      -81.863      -43.135        0.849       33.249       24.819       18.236     1105.476      615.989      332.568        0.531        0.103       92.532       15.444        0.028      340.810       15.087      861.645
09/01/2014  04:59:00      -27.410      -33.676        8.636       27.803       22.012       17.558      772.980      484.526      308.269        0.176        0.078       43.420       15.225        0.123      340.831       15.122      861.640
09/01/2014  05:00:00      -81.877      -50.655       -0.746       35.854       21.669       18.872     1285.507      469.549      356.135        0.569        0.106       96.279       18.382        0.036      340.821       15.107      861.654
09/01/2014  05:01:00     -116.470      -12.251       -7.025       33.418       31.455       20.982     1116.754      989.448      440.241        0.816        0.127      117.113       19.821        0.029      340.642       14.803      861.663
09/01/2014  05:02:00     -108.162      -35.787        1.129       34.680       28.161       17.211     1202.684      793.048      296.204        0.764        0.115      113.929       18.702        0.027      340.554       14.655      861.652
09/01/2014  05:03:00      -63.754      -36.777        2.176       40.964       23.735       19.488     1678.077      563.340      379.799        0.402        0.131       73.601       22.472        0.093      340.711       14.921      861.649
09/01/2014  05:04:00      -99.793      -46.340       -8.141       26.924       27.243       15.272      724.886      742.178      233.244        0.694        0.085      110.027       13.403        0.015      340.785       15.046      861.639
09/01/2014  05:05:00      -32.881      -39.562        4.596       35.247       27.820       18.472     1242.321      773.953      341.232        0.251        0.118       51.443       19.776        0.148      340.813       15.093      861.615
09/01/2014  05:06:00      -89.879      -65.909       -1.366       26.314       24.655       18.977      692.415      607.876      360.126        0.704        0.083      111.455       15.948        0.020      340.774       15.027      861.605
09/01/2014  05:07:00      -62.921      -58.704        7.409       51.854       29.349       20.081     2688.860      861.373      403.237        0.571        0.198       86.053       24.343        0.080      340.784       15.043      861.607
09/01/2014  05:08:00      -70.611      -63.361       10.806       33.642       30.858       24.686     1131.780      952.231      609.396        0.590        0.135       94.871       15.905        0.028      340.743       14.974      861.600
09/01/2014  05:09:00     -108.796      -59.333       -3.412       42.284       48.334       23.021     1787.952     2336.224      529.959        1.001        0.233      123.923       17.858        0.021      340.677       14.863      861.591
09/01/2014  05:10:00      -44.546      -72.257        1.262       50.276       48.244       24.694     2527.689     2327.506      609.796        0.633        0.273       84.885       20.241        0.057      340.727       14.949      861.583
09/01/2014  05:11:00      -73.469      -28.059        9.095       49.274       38.568       20.915     2427.965     1487.493      437.417        0.531        0.218       78.645       17.451        0.049      340.797       15.066      861.572
09/01/2014  05:12:00     -151.940      -64.073       -6.784       37.613       37.702       20.657     1414.774     1421.457      426.719        1.525        0.163      164.898       14.774        0.008      340.698       14.898      861.599
09/01/2014  05:13:00     -131.322        1.557       -7.049       51.068       52.094       31.029     2607.976     2713.749      962.801        1.179        0.314      131.331       25.132        0.037      340.387       14.372      861.631
09/01/2014  05:14:00     -127.362       -7.348       -4.276       64.874       37.998       26.921     4208.609     1443.810      724.757        1.133        0.319      127.574       28.023        0.048      340.225       14.098      861.625
09/01/2014  05:15:00      -96.805      -34.738       -3.133       39.379       25.543       23.480     1550.715      652.420      551.292        0.667        0.138      102.850       23.698        0.053      340.255       14.148      861.610
09/01/2014  05:16:00     -117.476      -38.730       -8.905       21.908       21.561       13.439      479.957      464.860      180.595        0.825        0.056      123.696        4.223        0.001      340.340       14.293      861.613
09/01/2014  05:17:00     -103.116      -10.999       -4.791       33.201       25.960       17.903     1102.310      673.936      320.509        0.644        0.105      103.701       12.000        0.013      340.304       14.232      861.615
09/01/2014  05:18:00     -101.428      -45.076        1.835       58.610       27.458       17.446     3435.150      753.931      304.358        0.841        0.225      110.993       22.933        0.043      340.326       14.269      861.616
09/01/2014  05:19:00     -117.284      -52.249       -2.391       30.203       24.714       17.378      912.243      610.796      301.984        0.916        0.091      128.396       13.822        0.012      340.431       14.445      861.613
09/01/2014  05:20:00     -109.632      -35.050        6.855       34.384       29.781       23.210     1182.248      886.891      538.696        0.795        0.130      115.099       21.990        0.037      340.437       14.456      861.606
09/01/2014  05:21:00     -124.134      -46.816       -1.592       18.591       22.896       18.503      345.628      524.212      342.347        0.941        0.061      132.669       11.635        0.008      340.490       14.545      861.613
09/01/2014  05:22:00      -59.128      -33.980        4.341       33.053       26.235       14.853     1092.469      688.286      220.599        0.334        0.100       68.197       13.010        0.036      340.482       14.532      861.614
09/01/2014  05:23:00      -69.314      -45.414        1.421       28.872       24.913       19.432      833.584      620.672      377.608        0.435        0.092       82.866       13.803        0.028      340.533       14.618      861.615
09/01/2014  05:24:00     -106.317      -45.774       -3.878       47.074       25.634       19.213     2216.002      657.095      369.142        0.833        0.162      115.752       18.371        0.025      340.550       14.649      861.630
09/01/2014  05:25:00      -80.507      -57.809        2.385       53.223       43.498       26.112     2832.733     1892.079      681.860        0.762        0.270       99.112       19.902        0.040      340.625       14.776      861.638
09/01/2014  05:26:00      -84.563      -53.268        7.714       48.312       41.840       25.414     2334.032     1750.568      645.885        0.739        0.237       99.942       27.017        0.073      340.559       14.664      861.640
09/01/2014  05:27:00      -61.847      -71.447        9.023       57.889       46.298       29.232     3351.097     2143.501      854.490        0.768        0.317       94.497       34.077        0.130      340.622       14.768      861.664
09/01/2014  05:28:00     -132.435      -82.804        2.880       45.422       31.226       28.887     2063.148      975.068      834.473        1.414        0.194      156.190       26.564        0.029      340.594       14.722      861.668
09/01/2014  05:29:00      -62.233      -71.410        6.011       48.070       45.654       20.684     2310.678     2084.297      427.834        0.691        0.241       94.722       27.310        0.083      340.540       14.631      861.666
09/01/2014  05:30:00      -64.452      -55.267        2.042       37.546       32.709       17.561     1409.718     1069.874      308.395        0.500        0.139       84.903       19.526        0.053      340.569       14.682      861.671
09/01/2014  05:31:00      -68.218      -51.458        1.865       54.508       36.363       31.180     2971.083     1322.283      972.188        0.628        0.263       85.449       26.558        0.097      340.601       14.734      861.679
09/01/2014  05:32:00      -96.148     -126.597       -0.445       52.977       36.424       32.211     2806.552     1326.678     1037.551        1.522        0.259      158.969       30.328        0.036      340.621       14.767      861.693
09/01/2014  05:33:00     -113.205     -128.145       -8.656       32.472       45.210       21.504     1054.399     2043.931      462.430        1.644        0.178      170.987       16.807        0.010      340.559       14.664      861.703
09/01/2014  05:34:00      -86.750      -82.693        7.042       59.199       37.900       26.282     3504.498     1436.444      690.756        1.002        0.282      119.849       22.579        0.035      340.525       14.606      861.695
09/01/2014  05:35:00     -115.317      -88.057       -7.025       41.777       27.754       20.367     1745.293      770.273      414.824        1.202        0.147      145.093       18.679        0.017      340.441       14.464      861.704
09/01/2014  05:36:00     -120.413      -71.180       -6.809       36.768       39.085       18.534     1351.882     1527.652      343.491        1.142        0.161      139.878       19.244        0.019      340.427       14.440      861.715
09/01/2014  05:37:00      -97.828      -60.616        0.720       46.161       37.063       22.960     2130.801     1373.667      527.139        0.864        0.202      115.085       26.536        0.053      340.411       14.411      861.714
09/01/2014  05:38:00      -89.841      -60.474       11.898       64.544       28.746       22.928     4165.963      826.321      525.714        0.869        0.276      108.298       22.940        0.045      340.394       14.384      861.726
09/01/2014  05:39:00      -50.177      -59.368        2.285       33.588       36.814       19.378     1128.179     1355.287      375.504        0.445        0.143       77.733       19.609        0.064      340.445       14.469      861.715
09/01/2014  05:40:00      -74.770      -95.566       -0.137       46.897       51.714       26.533     2199.312     2674.333      704.004        1.015        0.279      121.340       30.001        0.061      340.478       14.524      861.708
09/01/2014  05:41:00     -102.436      -90.518       -9.026       37.732       28.432       20.910     1423.687      808.381      437.233        1.072        0.133      136.700       20.212        0.022      340.472       14.513      861.726
09/01/2014  05:42:00      -80.749      -59.269        2.752       45.938       33.512       25.054     2110.302     1123.023      627.695        0.695        0.193      100.166       23.462        0.055      340.492       14.551      861.739
09/01/2014  05:43:00     -101.947      -71.959       -1.976       38.401       30.959       22.747     1474.654      958.463      517.447        0.926        0.148      124.785       17.110        0.019      340.508       14.577      861.755
09/01/2014  05:44:00      -96.639      -78.597       -2.106       22.526       25.150       16.581      507.430      632.520      274.928        0.847        0.071      124.565       11.744        0.009      340.518       14.594      861.779
09/01/2014  05:45:00      -77.809      -92.413      -10.660       32.532       35.296       23.610     1058.339     1245.824      557.429        0.878        0.143      120.807       22.904        0.036      340.503       14.568      861.800
09/01/2014  05:46:00      -89.128      -74.248       -0.970       39.733       39.789       26.731     1578.743     1583.146      714.555        0.867        0.194      116.003       24.866        0.046      340.448       14.476      861.818
09/01/2014  05:47:00     -131.626     -104.275       -3.799       55.471       30.911       27.061     3077.013      955.500      732.288        1.649        0.238      167.925       26.426        0.025      340.414       14.417      861.812
09/01/2014  05:48:00     -125.410     -103.498       -8.670       40.901       51.471       23.950     1672.930     2649.228      573.583        1.570        0.245      162.602       18.136        0.012      340.418       14.425      861.821
09/01/2014  05:49:00     -104.680      -88.194        1.688       36.260       32.539       23.505     1314.815     1058.813      552.485        1.083        0.146      136.880       19.639        0.021      340.420       14.427      861.827
09/01/2014  05:50:00      -66.906      -60.803        3.347       49.878       47.199       27.973     2487.828     2227.736      782.474        0.684        0.275       90.407       30.463        0.114      340.420       14.429      861.822
09/01/2014  05:51:00      -70.732      -65.542        4.405       50.114       27.167       21.297     2511.409      738.069      453.551        0.651        0.185       96.431       23.316        0.058      340.472       14.516      861.827
09/01/2014  05:52:00      -28.430      -37.561       12.019       44.966       26.345       21.636     2021.970      694.085      468.098        0.277        0.159       47.107       26.188        0.309      340.464       14.502      861.840
09/01/2014  05:53:00      -55.579      -60.794       -1.710       49.324       30.722       25.919     2432.836      943.838      671.781        0.542        0.202       82.371       22.398        0.074      340.485       14.535      861.859
09/01/2014  05:54:00      -99.461      -99.863       -4.216       49.782       35.559       24.429     2478.296     1264.470      596.796        1.211        0.217      140.944       25.779        0.033      340.494       14.551      861.870
09/01/2014  05:55:00      -82.608     -100.043       -6.785       35.088       41.176       20.447     1231.140     1695.473      418.087        1.011        0.167      129.741       14.512        0.013      340.453       14.482      861.880
09/01/2014  05:56:00      -94.437      -98.088       -8.895       39.361       30.745       27.664     1549.274      945.259      765.295        1.094        0.163      136.160       21.363        0.025      340.423       14.433      861.901
09/01/2014  05:57:00     -110.801      -74.347       -4.330       38.389       31.489       22.774     1473.743      991.566      518.639        1.040        0.149      133.433        8.763        0.004      340.438       14.458      861.917
09/01/2014  05:58:00     -118.998      -79.690       -0.363       35.654       32.170       18.942     1271.176     1034.895      358.789        1.159        0.133      143.217       15.533        0.012      340.358       14.325      861.930
09/01/2014  05:59:00     -115.491      -87.727       -6.332       39.653       32.290       23.432     1572.397     1042.647      549.059        1.212        0.158      145.031       22.881        0.025      340.357       14.323      861.939
09/01/2014  06:00:00      -61.835      -64.221        5.516       49.761       48.149       22.583     2476.183     2318.298      510.001        0.664        0.265       89.151       24.538        0.076      340.320       14.259      861.955
09/01/2014  06:01:00      -89.696      -73.848       -5.596       40.254       21.917       19.732     1620.410      480.347      389.364        0.801        0.125      116.184       15.386        0.018      340.383       14.368      861.971
09/01/2014  06:02:00      -61.712      -38.045        1.639       43.912       23.866       19.781     1928.236      569.586      391.277        0.407        0.144       72.497        8.127        0.013      340.349       14.308      861.982
09/01/2014  06:03:00      -61.314      -38.343        6.097       37.167       30.562       18.139     1381.359      934.027      329.032        0.396        0.132       72.316       17.128        0.056      340.343       14.300      861.994
09/01/2014  06:04:00      -78.738      -40.332        3.321       41.733       24.311       17.248     1741.652      591.005      297.499        0.523        0.132       88.466       17.261        0.038      340.347       14.305      862.019
09/01/2014  06:05:00      -64.972      -32.290        3.056       39.633       22.689       13.698     1570.750      514.801      187.633        0.377        0.114       72.553       14.751        0.041      340.251       14.143      862.042
09/01/2014  06:06:00      -47.733      -57.162        2.452       38.357       36.982       17.852     1471.243     1367.683      318.692        0.435        0.158       74.471       14.608        0.038      340.314       14.249      862.054
09/01/2014  06:07:00      -91.606      -99.732       -3.985       43.511       43.667       27.195     1893.200     1906.809      739.574        1.145        0.227      135.419       20.040        0.022      340.292       14.212      862.062
09/01/2014  06:08:00      -87.397      -48.656        2.882       52.441       33.752       21.505     2750.057     1139.228      462.485        0.718        0.218      100.028       26.440        0.070      340.256       14.151      862.067
09/01/2014  06:09:00     -105.245      -53.621       -8.557       36.680       29.257       15.179     1345.415      855.967      230.409        0.823        0.122      118.117       14.280        0.015      340.295       14.215      862.062
09/01/2014  06:10:00      -54.917      -53.415        9.620       62.355       34.714       26.333     3888.112     1205.087      693.421        0.587        0.289       76.610       33.536        0.192      340.211       14.076      862.068
09/01/2014  06:11:00      -85.341      -63.007        1.377       47.806       28.987       23.321     2285.449      840.218      543.848        0.746        0.183      106.080       24.336        0.053      340.224       14.097      862.075
09/01/2014  06:12:00     -129.807      -79.461        2.072       41.424       31.431       27.162     1715.931      987.929      737.801        1.330        0.172      152.197       24.313        0.026      340.176       14.017      862.082
09/01/2014  06:13:00      -91.093      -61.599        8.435       51.248       37.155       25.765     2626.315     1380.516      663.815        0.842        0.234      109.965       31.909        0.084      340.163       13.994      862.086
09/01/2014  06:14:00     -123.185      -55.390      -10.966       30.534       28.212       19.706      932.298      795.942      388.318        1.024        0.106      135.065       13.561        0.010      340.026       13.763      862.096
09/01/2014  06:15:00     -136.577      -34.305      -11.550       29.385       18.432       16.423      863.490      339.720      269.722        1.072        0.074      140.820       15.464        0.012      339.884       13.523      862.100
09/01/2014  06:16:00     -136.092      -46.967       -6.306       25.913       24.808       17.847      671.478      615.423      318.523        1.119        0.080      143.968       10.816        0.006      339.931       13.602      862.111
09/01/2014  06:17:00     -146.289      -43.839      -10.384       37.771       28.207       20.002     1426.618      795.633      400.097        1.303        0.131      152.717        9.141        0.004      339.889       13.532      862.123
09/01/2014  06:18:00     -157.879      -33.174       -7.075       39.706       31.526       27.373     1576.536      993.910      749.285        1.470        0.166      161.326       24.599        0.023      339.831       13.435      862.139
09/01/2014  06:19:00     -141.117      -38.613       -3.982       40.743       32.310       22.640     1660.028     1043.957      512.562        1.232        0.161      146.304       20.966        0.021      339.810       13.399      862.146
09/01/2014  06:20:00     -147.528      -27.542      -12.002       20.844       22.099       16.498      434.470      488.350      272.181        1.193        0.060      150.077        9.987        0.004      339.756       13.309      862.150
09/01/2014  06:21:00     -151.045      -28.033      -20.854       14.278       15.088       11.515      203.875      227.649      132.598        1.230        0.028      153.625        3.945        0.001      339.853       13.473      862.155
09/01/2014  06:22:00     -157.373      -22.821      -12.279       15.648       19.972       14.560      244.854      398.865      212.005        1.315        0.043      159.019       11.905        0.006      339.852       13.469      862.165
09/01/2014  06:23:00     -162.587      -29.619      -11.413       19.849       23.952       16.157      393.991      573.704      261.041        1.434        0.061      165.263        6.579        0.002      339.860       13.482      862.175
09/01/2014  06:24:00     -170.737      -26.073      -10.606       26.519       21.447       18.952      703.274      459.964      359.178        1.573        0.076      172.717       15.635        0.008      339.797       13.375      862.189
09/01/2014  06:25:00     -139.486      -57.751      -10.477       31.435       24.923       18.061      988.151      621.140      326.195        1.242        0.097      150.969       13.768        0.008      339.820       13.416      862.199
09/01/2014  06:26:00     -158.776      -30.233      -10.803       36.272       28.740       20.963     1315.686      825.973      439.467        1.441        0.129      161.629       19.835        0.015      339.822       13.419      862.215
09/01/2014  06:27:00     -163.484      -40.461       -9.612       41.937       27.026       23.596     1758.722      730.401      556.758        1.575        0.152      168.416       21.847        0.017      339.806       13.390      862.220
09/01/2014  06:28:00     -159.588      -58.599       -4.534       33.669       27.174       21.296     1133.574      738.429      453.528        1.562        0.116      170.006       15.831        0.009      339.836       13.441      862.237
09/01/2014  06:29:00     -150.172      -50.263       -9.477       20.323       27.165       17.411      413.034      737.958      303.142        1.331        0.073      158.361       10.997        0.005      339.836       13.441      862.242
09/01/2014  06:30:00     -143.151      -42.932      -15.733       27.920       19.416       15.272      779.544      376.972      233.245        1.199        0.069      149.450       11.431        0.006      339.721       13.247      862.254
09/01/2014  06:31:00     -144.632      -61.543        1.462       37.517       21.413       20.181     1407.520      458.500      407.268        1.349        0.114      157.181       19.844        0.016      339.827       13.427      862.252
09/01/2014  06:32:00     -137.073      -74.847       -5.373       40.747       31.792       21.445     1660.318     1010.761      459.905        1.377        0.157      156.177       21.007        0.018      339.882       13.520      862.255
09/01/2014  06:33:00     -115.012      -50.413        6.481       56.262       27.004       23.471     3165.409      729.220      550.900        1.013        0.222      125.576       21.046        0.028      339.852       13.469      862.259
09/01/2014  06:34:00      -86.367      -68.255       -0.981       21.465       17.927       15.295      460.732      321.366      233.927        0.657        0.051      110.082        9.096        0.007      339.966       13.662      862.269
09/01/2014  06:35:00     -120.840      -43.779      -15.613       21.914       20.337       13.338      480.212      413.605      177.913        0.892        0.054      128.526        7.839        0.004      339.886       13.527      862.280
09/01/2014  06:36:00      -95.362      -40.833       -5.898       35.642       21.578       14.689     1270.385      465.630      215.780        0.637        0.098      103.736        9.595        0.009      339.820       13.414      862.289
09/01/2014  06:37:00      -46.711      -32.662        4.138       38.520       14.745       14.482     1483.770      217.413      209.734        0.259        0.096       56.997       15.258        0.072      339.933       13.606      862.299
09/01/2014  06:38:00      -68.769      -46.212        2.465       31.891       25.577       18.468     1017.026      654.158      341.075        0.444        0.101       82.854       12.104        0.021      339.951       13.636      862.305
09/01/2014  06:39:00      -41.794      -30.851        5.496       35.633       24.768       16.433     1269.678      613.470      270.041        0.244        0.108       51.947       18.373        0.125      339.966       13.663      862.313
09/01/2014  06:40:00      -66.633      -41.582       -2.892       41.827       22.110       17.123     1749.517      488.844      293.212        0.435        0.127       78.543       14.014        0.032      340.028       13.766      862.329
09/01/2014  06:41:00      -85.293      -46.828       -4.900       40.858       45.220       28.044     1669.401     2044.862      786.455        0.700        0.225       97.302       17.380        0.032      340.110       13.905      862.342
09/01/2014  06:42:00     -103.901      -67.110       -3.553       57.543       42.859       27.669     3311.191     1836.912      765.595        1.061        0.296      123.690       14.858        0.014      340.103       13.892      862.358
09/01/2014  06:43:00     -133.660      -95.871      -14.996       50.586       30.725       30.802     2558.983      943.996      948.760        1.587        0.223      164.487       11.310        0.005      340.137       13.951      862.362
09/01/2014  06:44:00     -120.096     -101.087      -18.078       57.445       37.989       32.571     3299.971     1443.155     1060.883        1.539        0.290      156.977       24.184        0.024      340.152       13.975      862.365
09/01/2014  06:45:00     -134.433     -119.303      -14.298       35.823       45.456       25.944     1283.281     2066.245      673.103        1.827        0.201      179.737       20.254        0.013      340.118       13.918      862.366
09/01/2014  06:46:00     -146.539     -125.583      -11.114       57.695       47.442       34.020     3328.754     2250.752     1157.360        2.205        0.337      192.989       26.369        0.019      340.106       13.896      862.377
09/01/2014  06:47:00     -122.851     -121.559      -10.080       39.080       32.951       24.641     1527.262     1085.740      607.199        1.659        0.161      172.826       20.253        0.014      340.117       13.916      862.390
09/01/2014  06:48:00     -111.148      -65.612        4.374       39.236       34.191       24.410     1539.444     1169.033      595.862        0.999        0.165      129.069       22.975        0.032      340.154       13.978      862.402
09/01/2014  06:49:00      -63.898      -67.988       13.838       43.857       35.802       23.307     1923.464     1281.751      543.221        0.632        0.187       93.303       22.605        0.059      340.176       14.015      862.408
09/01/2014  06:50:00      -86.145      -71.448        7.825       45.307       43.173       24.167     2052.680     1863.927      584.043        0.854        0.225      111.918       21.634        0.037      340.165       13.996      862.413
09/01/2014  06:51:00     -115.892     -103.308        1.790       55.676       47.821       33.744     3099.797     2286.828     1138.680        1.531        0.326      155.253       33.377        0.046      340.138       13.950      862.409
09/01/2014  06:52:00     -148.455     -137.026       -6.719       55.213       47.136       36.343     3048.526     2221.836     1320.811        2.372        0.330      202.027       34.130        0.029      340.060       13.819      862.413
09/01/2014  06:53:00     -131.327     -129.727       -5.178       62.237       59.827       33.319     3873.433     3579.215     1110.156        2.133        0.428      184.596       16.745        0.008      339.984       13.690      862.419
09/01/2014  06:54:00     -146.875     -132.457      -19.022       62.836       59.524       29.260     3948.402     3543.120      856.157        2.391        0.417      197.781       30.503        0.024      339.978       13.680      862.425
09/01/2014  06:55:00     -122.054      -93.413      -13.377       56.751       35.618       33.007     3220.702     1268.645     1089.479        1.469        0.279      153.699       32.540        0.045      339.952       13.639      862.425
09/01/2014  06:56:00     -149.824     -118.182      -13.950       82.754       57.944       43.237     6848.214     3357.458     1869.397        2.434        0.604      190.825       49.730        0.068      339.857       13.474      862.434
09/01/2014  06:57:00     -133.466     -113.654       -7.989       54.232       59.996       36.872     2941.121     3599.554     1359.539        1.935        0.395      175.301       31.463        0.032      339.818       13.411      862.438
09/01/2014  06:58:00     -127.614      -59.556       -3.271       53.712       44.996       28.317     2885.015     2024.645      801.873        1.278        0.286      140.827       27.645        0.039      339.850       13.465      862.448
09/01/2014  06:59:00     -173.108      -86.756       -7.931       52.280       46.226       31.469     2733.228     2136.843      990.287        2.171        0.293      193.631       19.403        0.010      339.828       13.427      862.450
09/01/2014  07:00:00     -134.507      -81.076       -0.266       49.441       43.916       27.940     2444.388     1928.620      780.630        1.491        0.258      157.052       32.427        0.043      339.850       13.466      862.457
09/01/2014  07:01:00     -131.453      -90.307       -9.391       33.603       41.964       28.239     1129.181     1760.988      797.416        1.460        0.184      159.484       20.428        0.016      339.856       13.476      862.473
09/01/2014  07:02:00     -116.263     -122.392       -2.947       53.491       61.675       29.300     2861.323     3803.839      858.514        1.801        0.376      168.810       29.313        0.030      339.819       13.412      862.486
09/01/2014  07:03:00     -151.088     -124.409      -17.437       56.366       47.507       34.062     3177.122     2256.892     1160.248        2.260        0.330      195.717       34.256        0.031      339.794       13.370      862.495
09/01/2014  07:04:00     -151.679     -132.624       -9.324       63.188       62.457       30.461     3992.664     3900.855      927.860        2.475        0.441      201.484       34.581        0.029      339.785       13.353      862.510
09/01/2014  07:05:00     -123.684      -96.769        0.065       50.887       56.596       29.748     2589.499     3203.115      884.940        1.567        0.334      157.041       23.764        0.023      339.793       13.369      862.520
09/01/2014  07:06:00     -134.656      -74.693       10.165       74.597       39.599       35.809     5564.740     1568.111     1282.280        1.611        0.421      153.985       40.149        0.068      339.788       13.361      862.523
09/01/2014  07:07:00     -138.626     -124.218      -14.654       42.424       48.422       32.350     1799.817     2344.724     1046.540        2.003        0.260      186.138       24.228        0.017      339.863       13.484      862.522
09/01/2014  07:08:00     -171.216     -150.624      -16.472       41.265       40.613       28.293     1702.836     1649.410      800.514        2.821        0.208      228.041       12.312        0.003      339.875       13.503      862.531
09/01/2014  07:09:00     -104.027      -82.943       -6.860       72.217       54.039       37.524     5215.255     2920.171     1408.056        1.364        0.477      133.046       36.137        0.074      339.934       13.607      862.546
09/01/2014  07:10:00     -129.193      -89.603      -17.501       34.238       37.254       21.045     1172.228     1387.886      442.876        1.401        0.150      157.225       12.080        0.006      339.923       13.588      862.557
09/01/2014  07:11:00      -95.106     -101.102       -5.604       59.432       49.187       23.334     3532.161     2419.370      544.480        1.290        0.325      138.804       26.117        0.035      339.959       13.649      862.563
09/01/2014  07:12:00     -115.661      -85.139      -12.886       43.612       40.114       21.850     1902.040     1609.095      477.419        1.239        0.199      143.618       21.015        0.021      339.986       13.694      862.569
09/01/2014  07:13:00     -117.192      -81.981       -8.826       45.008       37.266       26.502     2025.721     1388.778      702.346        1.232        0.206      143.020       25.653        0.032      340.009       13.733      862.577
09/01/2014  07:14:00     -131.617      -91.924      -10.745       29.586       28.837       20.580      875.327      831.593      423.526        1.401        0.107      160.540        9.602        0.004      340.064       13.828      862.587
09/01/2014  07:15:00     -120.175     -102.814       -5.947       32.108       23.034       23.714     1030.893      530.582      562.334        1.359        0.106      158.155       18.848        0.014      340.059       13.819      862.589
09/01/2014  07:16:00     -118.641      -97.954       -5.058       50.380       42.318       26.562     2538.149     1790.816      705.521        1.436        0.252      153.853       27.865        0.033      340.080       13.855      862.587
09/01/2014  07:17:00     -107.800      -88.079       -2.459       38.566       38.823       24.980     1487.325     1507.224      624.008        1.150        0.181      139.208       22.640        0.026      340.100       13.887      862.577
09/01/2014  07:18:00      -76.540      -86.930        0.306       42.282       32.921       22.446     1787.732     1083.803      503.814        0.839        0.169      115.824       19.657        0.029      340.117       13.917      862.575
09/01/2014  07:19:00      -80.501      -63.545        6.871       37.969       33.582       21.060     1441.669     1127.767      443.534        0.679        0.151      102.559       18.648        0.033      340.173       14.010      862.588
09/01/2014  07:20:00      -55.796      -73.670        2.221       29.662       30.201       20.118      879.820      912.071      404.723        0.537        0.110       92.415       16.191        0.031      340.216       14.082      862.598
09/01/2014  07:21:00      -72.956      -40.650       -4.213       38.765       21.630       22.872     1502.693      467.838      523.117        0.474        0.125       83.516       18.655        0.050      340.282       14.195      862.599
09/01/2014  07:22:00      -34.348      -46.532        8.790       35.669       25.498       22.002     1272.298      650.134      484.090        0.291        0.120       57.836       24.193        0.175      340.435       14.454      862.597
09/01/2014  07:23:00      -67.119      -46.423       -4.417       28.817       30.480       16.076      830.438      929.004      258.444        0.435        0.101       81.610       14.247        0.030      340.320       14.260      862.604
09/01/2014  07:24:00      -67.870      -36.421       -1.552       18.108       16.680       12.522      327.886      278.233      156.793        0.335        0.038       77.025        4.936        0.004      340.365       14.335      862.604
09/01/2014  07:25:00      -43.146      -40.712        4.350       27.562       24.492       15.819      759.669      599.867      250.234        0.257        0.080       59.321       15.609        0.069      340.471       14.515      862.602
09/01/2014  07:26:00      -92.756      -21.830       -5.436       45.810       26.143       16.627     2098.519      683.480      276.451        0.608        0.153       95.291       15.708        0.027      340.397       14.390      862.606
09/01/2014  07:27:00      -83.185      -43.616        0.232       26.295       27.566       18.261      691.426      759.888      333.450        0.530        0.089       93.926       17.908        0.036      340.480       14.530      862.598
09/01/2014  07:28:00      -75.914      -64.551       -4.109       35.711       17.284       16.555     1275.248      298.744      274.080        0.590        0.092       99.648       16.102        0.026      340.518       14.593      862.596
09/01/2014  07:29:00      -96.909      -31.600       -6.622       21.391       28.507       15.414      457.588      812.641      237.581        0.597        0.075      101.931        8.994        0.008      340.474       14.518      862.598
09/01/2014  07:30:00      -65.984      -37.469        2.019       33.923       30.083       19.356     1150.757      904.991      374.666        0.410        0.122       75.881       19.366        0.065      340.571       14.682      862.595
09/01/2014  07:31:00      -97.104      -35.011      -10.588       29.294       26.130       17.303      858.157      682.797      299.407        0.630        0.092      103.223       14.117        0.019      340.607       14.744      862.612
09/01/2014  07:32:00     -103.152       -2.177      -12.351       23.354       19.311       15.821      545.422      372.901      250.293        0.598        0.058      103.175       13.495        0.017      340.608       14.747      862.622
09/01/2014  07:33:00      -84.197      -40.437      -11.660       18.617       17.194       13.396      346.604      295.638      179.457        0.484        0.041       93.404        2.213        0.001      340.734       14.959      862.645
09/01/2014  07:34:00      -85.362      -33.419      -15.260       21.759       18.845       13.499      473.435      355.130      182.216        0.482        0.051       91.671       11.892        0.017      340.773       15.025      862.654
09/01/2014  07:35:00      -83.460      -28.299       -8.395       19.613       18.465       17.334      384.687      340.960      300.460        0.443        0.051       88.127       10.049        0.013      340.889       15.221      862.668
09/01/2014  07:36:00      -66.913      -51.233       -6.552       24.969       21.279       15.388      623.441      452.807      236.779        0.423        0.066       84.275       10.807        0.016      340.891       15.224      862.671
09/01/2014  07:37:00      -52.516      -39.383       -1.564       25.425       22.773       14.906      646.443      518.606      222.181        0.285        0.069       65.643        6.787        0.011      340.907       15.253      862.679
09/01/2014  07:38:00       -8.803      -24.199       13.749       24.333       19.452       14.364      592.082      378.383      206.336        0.101        0.059       25.750       12.039        0.219      340.985       15.385      862.669
09/01/2014  07:39:00      -74.402      -44.593       -7.492       15.762       14.987       11.963      248.435      224.611      143.103        0.410        0.031       86.742        3.782        0.002      340.843       15.143      862.655
09/01/2014  07:40:00      -80.456      -41.037       -8.458       20.046       16.250       12.638      401.829      264.052      159.712        0.453        0.041       90.317        5.192        0.003      340.937       15.304      862.657
09/01/2014  07:41:00      -72.347      -40.057       -4.382       30.256       20.032       13.455      915.414      401.280      181.036        0.418        0.075       82.697       10.234        0.015      340.971       15.360      862.641
09/01/2014  07:42:00      -81.758      -23.204       -9.436       11.618       15.550       10.620      134.978      241.796      112.786        0.390        0.024       84.987        5.496        0.004      340.928       15.288      862.646
09/01/2014  07:43:00      -77.255      -39.520       -4.760       23.016       11.188       10.872      529.721      125.176      118.211        0.416        0.039       86.777       11.674        0.018      340.963       15.347      862.652
09/01/2014  07:44:00      -59.084      -31.381       -5.098       12.314       11.182        7.767      151.643      125.033       60.328        0.242        0.017       66.901        5.604        0.007      340.995       15.401      862.653
09/01/2014  07:45:00      -28.675      -30.454       -3.531       20.562       16.376       12.955      422.802      268.189      167.844        0.131        0.043       41.829       10.456        0.062      341.046       15.488      862.648
09/01/2014  07:46:00      -14.135      -25.001        0.768       16.569       17.949       13.469      274.518      322.156      181.424        0.080        0.039       28.720        8.964        0.097      341.255       15.841      862.652
09/01/2014  07:47:00      -36.351      -75.244       -1.095       16.723       20.106       13.155      279.670      404.240      173.065        0.392        0.043       83.565        9.800        0.014      341.072       15.530      862.657
09/01/2014  07:48:00      -49.884      -79.787       -4.797       24.343       23.166       14.601      592.586      536.651      213.179        0.511        0.067       94.098       13.763        0.021      341.123       15.619      862.648
09/01/2014  07:49:00      -58.857     -104.021       -7.547       20.249       31.986       16.696      410.012     1023.095      278.768        0.803        0.086      119.519        9.785        0.007      341.095       15.569      862.658
09/01/2014  07:50:00      -31.963      -40.989        3.142       20.907       31.864       19.751      437.097     1015.310      390.095        0.228        0.092       51.979       15.488        0.089      341.218       15.778      862.663
09/01/2014  07:51:00      -34.990      -39.102       11.725       33.961       38.095       23.670     1153.354     1451.234      560.272        0.303        0.158       52.472        7.013        0.018      341.271       15.869      862.669
09/01/2014  07:52:00      -78.361      -59.222       -7.849       45.646       37.175       26.890     2083.593     1381.993      723.053        0.695        0.209       98.222       18.742        0.036      341.227       15.794      862.667
09/01/2014  07:53:00      -82.662      -80.833      -11.017       33.294       30.442       21.859     1108.481      926.722      477.817        0.800        0.126      115.615       17.309        0.022      341.215       15.773      862.670
09/01/2014  07:54:00      -78.031      -94.369       -5.820       28.321       37.004       21.085      802.060     1369.299      444.567        0.882        0.131      122.451       19.264        0.025      341.181       15.718      862.674
09/01/2014  07:55:00      -68.851      -90.168       -7.033       26.534       31.223       19.065      704.037      974.860      363.492        0.748        0.102      113.449       18.883        0.028      341.205       15.757      862.671
09/01/2014  07:56:00      -46.441      -86.181       -0.200       44.902       39.701       28.585     2016.162     1576.186      817.114        0.700        0.220       97.897       29.115        0.088      341.247       15.828      862.671
09/01/2014  07:57:00      -39.248      -97.132        2.614       36.113       37.649       25.706     1304.122     1417.481      660.774        0.718        0.169      104.761       25.246        0.058      341.252       15.835      862.682
09/01/2014  07:58:00      -54.928     -136.885       -7.429       32.764       52.668       21.785     1073.473     2773.877      474.576        1.306        0.216      147.494       18.012        0.015      341.190       15.731      862.684
09/01/2014  07:59:00      -49.361     -126.240       -4.920       39.577       47.972       25.718     1566.338     2301.321      661.411        1.146        0.226      135.547       24.289        0.032      341.217       15.777      862.684
09/01/2014  08:00:00      -86.225     -104.195       -6.539       36.329       45.965       19.284     1319.799     2112.822      371.885        1.107        0.190      135.246       12.056        0.008      341.200       15.746      862.685
09/01/2014  08:01:00      -54.205      -86.632        4.791       33.791       48.464       26.304     1141.801     2348.717      691.885        0.732        0.209      102.192       18.047        0.031      341.280       15.884      862.685
09/01/2014  08:02:00      -59.891      -88.957        7.265       56.018       44.785       32.586     3137.987     2005.654     1061.869        0.888        0.310      107.239       24.090        0.050      341.234       15.805      862.683
09/01/2014  08:03:00      -95.610      -90.126        5.931       61.729       53.776       38.428     3810.503     2891.905     1476.720        1.274        0.409      131.393       42.308        0.104      341.256       15.844      862.685
09/01/2014  08:04:00      -56.163      -50.893        5.733       43.397       50.331       22.467     1883.265     2533.209      504.750        0.535        0.246       75.791       26.266        0.120      341.308       15.931      862.683
09/01/2014  08:05:00     -116.508     -110.742      -11.718       36.341       38.122       23.717     1320.697     1453.290      562.488        1.466        0.167      160.741       18.889        0.014      341.253       15.838      862.674
09/01/2014  08:06:00     -100.160     -104.865      -17.714       41.677       38.483       21.680     1736.959     1480.978      470.031        1.251        0.184      145.013       15.626        0.012      341.258       15.846      862.681
09/01/2014  08:07:00      -87.029      -90.179      -12.190       34.778       41.048       21.645     1209.522     1684.963      468.520        0.961        0.168      125.325        9.758        0.006      341.270       15.867      862.681
09/01/2014  08:08:00     -104.120      -70.716       -7.026       39.505       34.620       26.825     1560.626     1198.543      719.557        0.968        0.174      125.864       24.538        0.038      341.336       15.977      862.683
09/01/2014  08:09:00     -106.361     -102.823       -7.957       28.842       25.985       19.089      831.841      675.224      364.383        1.191        0.094      147.937       11.328        0.006      341.349       16.000      862.682
09/01/2014  08:10:00      -95.066      -84.014       -3.047       27.326       27.648       20.977      746.717      764.433      440.020        0.903        0.098      126.870        8.180        0.004      341.427       16.130      862.688
09/01/2014  08:11:00      -80.514     -112.414       -0.858       36.487       56.689       25.709     1331.306     3213.644      660.963        1.216        0.260      138.272       28.439        0.042      341.438       16.149      862.696
09/01/2014  08:12:00      -67.572      -86.468        1.665       44.976       48.451       26.667     2022.859     2347.478      711.153        0.856        0.254      109.739       25.702        0.055      341.463       16.193      862.697
09/01/2014  08:13:00      -52.181     -113.662        4.680       38.191       46.281       26.243     1458.566     2141.946      688.706        0.998        0.214      125.068       27.062        0.047      341.485       16.230      862.692
09/01/2014  08:14:00      -69.280      -79.406       -6.451       42.714       37.874       20.662     1824.500     1434.471      426.918        0.742        0.184      105.380       15.360        0.021      341.507       16.266      862.683
09/01/2014  08:15:00      -66.443     -108.591       -1.277       37.193       55.839       23.854     1383.324     3118.022      569.018        1.064        0.254      127.305       23.642        0.034      341.493       16.243      862.671
09/01/2014  08:16:00      -88.544     -129.727      -10.378       37.423       30.116       23.802     1400.484      906.987      566.524        1.382        0.144      157.064       18.389        0.014      341.502       16.259      862.668
09/01/2014  08:17:00      -98.145      -98.167       -9.713       49.827       40.962       27.680     2482.697     1677.920      766.171        1.214        0.246      138.814       26.043        0.035      341.509       16.270      862.668
09/01/2014  08:18:00      -58.835     -100.795       -3.836       29.092       34.531       17.311      846.359     1192.411      299.686        0.799        0.117      116.710       10.145        0.008      341.542       16.326      862.662
09/01/2014  08:19:00      -91.033     -108.763       -5.379       48.843       42.249       26.335     2385.677     1784.991      693.519        1.250        0.243      141.832       23.295        0.027      341.617       16.455      862.654
09/01/2014  08:20:00      -71.672      -88.626        0.159       41.219       30.415       23.890     1698.991      925.050      570.752        0.809        0.160      113.980       16.238        0.020      341.673       16.548      862.652
09/01/2014  08:21:00      -64.649      -77.094        1.253       40.421       30.260       26.792     1633.849      915.692      717.809        0.670        0.163      100.613       19.037        0.036      341.713       16.617      862.649
09/01/2014  08:22:00      -59.394      -86.841       -0.631       36.690       53.034       23.704     1346.129     2812.643      561.856        0.789        0.236      105.210       28.553        0.074      341.742       16.665      862.658
09/01/2014  08:23:00      -52.136      -55.827        6.496       40.394       51.456       26.205     1631.657     2647.696      686.687        0.542        0.248       76.386       33.007        0.187      341.844       16.839      862.659
09/01/2014  08:24:00      -80.530      -69.573       -2.393       46.629       34.050       23.090     2174.280     1159.397      533.146        0.760        0.193      106.421       21.658        0.041      341.699       16.595      862.655
09/01/2014  08:25:00      -63.733      -98.922       -3.145       19.625       17.918       14.830      385.150      321.057      219.934        0.739        0.046      117.675        7.601        0.004      341.706       16.606      862.655
09/01/2014  08:26:00      -47.531      -88.742        6.755       24.311       38.097       15.817      591.010     1451.386      250.171        0.624        0.115      100.670       11.611        0.013      341.803       16.769      862.653
09/01/2014  08:27:00      -56.682     -128.185       -1.165       20.502       18.906       14.203      420.322      357.446      201.720        1.031        0.049      140.157        9.198        0.004      341.739       16.659      862.645
09/01/2014  08:28:00      -71.203      -95.983       -2.488       33.498       35.742       21.849     1122.147     1277.524      477.367        0.858        0.144      119.509       22.593        0.036      341.836       16.823      862.636
09/01/2014  08:29:00      -92.273      -67.725       -5.849       26.628       29.474       18.979      709.047      868.712      360.214        0.754        0.097      114.460       17.511        0.023      341.893       16.921      862.627
09/01/2014  08:30:00      -95.371      -77.423       -8.593       25.405       22.851       19.226      645.438      522.157      369.628        0.835        0.077      122.841       12.076        0.010      341.920       16.967      862.621
09/01/2014  08:31:00      -75.145      -59.829        1.325       31.214       32.308       20.274      974.318     1043.793      411.040        0.583        0.121       96.054       20.791        0.047      341.966       17.048      862.627
09/01/2014  08:32:00      -90.742      -32.520        0.101       32.881       24.025       17.901     1081.170      577.210      320.463        0.563        0.099       96.394       20.489        0.045      342.100       17.273      862.627
09/01/2014  08:33:00      -83.121      -70.189       -4.586       28.482       24.201       13.822      811.239      585.681      191.041        0.672        0.079      108.792       12.598        0.013      342.007       17.116      862.639
09/01/2014  08:34:00      -61.761      -49.864        0.934       19.388       22.658       13.625      375.879      513.371      185.652        0.369        0.054       79.377       11.280        0.020      342.069       17.220      862.640
09/01/2014  08:35:00      -49.118      -45.653        2.285       22.031       31.692       15.851      485.346     1004.399      251.247        0.312        0.087       67.059       14.179        0.045      342.172       17.396      862.643
09/01/2014  08:36:00      -49.198      -63.005        2.848       25.751       23.926       14.212      663.133      572.435      201.995        0.392        0.072       79.938        9.972        0.016      342.128       17.321      862.645
09/01/2014  08:37:00      -75.546      -65.173       -6.795       20.629       15.890       15.673      425.574      252.493      245.638        0.546        0.046       99.773       11.033        0.012      342.096       17.266      862.640
09/01/2014  08:38:00      -93.421      -52.594       -3.312       21.772       25.910       21.391      474.028      671.318      457.581        0.655        0.080      107.209       14.029        0.017      342.176       17.404      862.642
09/01/2014  08:39:00      -35.042      -36.440       -3.820       46.951       31.684       21.623     2204.378     1003.897      467.564        0.312        0.184       50.555       24.851        0.242      342.477       17.914      862.637
09/01/2014  08:40:00      -73.103      -35.827       12.635       41.056       35.930       29.565     1685.614     1291.001      874.061        0.532        0.193       81.410       23.981        0.087      342.449       17.868      862.634
09/01/2014  08:41:00      -77.403      -30.829        6.633       47.406       30.079       28.845     2247.299      904.720      832.034        0.548        0.199       83.316       23.944        0.083      342.417       17.812      862.637
09/01/2014  08:42:00      -55.896      -34.018        7.568       35.752       33.324       23.815     1278.223     1110.503      567.171        0.365        0.148       65.434       12.968        0.039      342.413       17.805      862.631
09/01/2014  08:43:00      -69.923      -36.811        5.678       40.041       33.944       19.287     1603.265     1152.198      371.999        0.470        0.156       79.020       20.970        0.070      342.484       17.926      862.647
09/01/2014  08:44:00      -81.034      -49.056        7.801       45.508       31.519       21.667     2070.977      993.429      469.454        0.628        0.177       94.726       22.231        0.055      342.457       17.881      862.649
09/01/2014  08:45:00      -77.167      -63.216       -4.498       30.314       30.600       18.269      918.909      936.342      333.757        0.608        0.109       99.755       12.765        0.016      342.344       17.688      862.650
09/01/2014  08:46:00      -80.415      -64.049       -7.716       24.985       21.775       15.209      624.274      474.136      231.313        0.598        0.066      102.804        9.522        0.009      342.364       17.722      862.648
09/01/2014  08:47:00      -62.802      -32.267        5.101       39.778       31.671       22.962     1582.286     1003.082      527.274        0.406        0.156       70.607       21.394        0.092      342.555       18.045      862.646
09/01/2014  08:48:00      -41.434      -27.622        4.214       39.068       23.783       20.570     1526.278      565.639      423.117        0.251        0.126       49.797       22.737        0.208      342.810       18.483      862.639
09/01/2014  08:49:00      -44.298      -22.348        6.645       43.661       19.431       16.282     1906.275      377.544      265.110        0.253        0.127       49.616       18.991        0.146      342.725       18.337      862.633
09/01/2014  08:50:00      -48.760      -43.753       -3.872       26.603       27.455       15.493      707.706      753.776      240.047        0.300        0.085       65.512       12.081        0.034      342.498       17.951      862.630
09/01/2014  08:51:00      -46.310      -14.862        2.310       28.545       22.000       16.797      814.804      484.018      282.146        0.198        0.079       48.637       20.047        0.170      342.822       18.501      862.628
09/01/2014  08:52:00      -50.154      -15.330        5.462       33.608       23.392       14.700     1129.492      547.164      216.089        0.234        0.095       52.445       17.388        0.110      342.796       18.457      862.628
09/01/2014  08:53:00      -79.154      -58.290       -6.487       13.722       20.579       11.122      188.285      423.496      123.695        0.522        0.037       98.301        4.817        0.002      342.520       17.987      862.621
09/01/2014  08:54:00      -78.857      -54.849       -4.843       24.397       21.826       14.237      595.215      476.381      202.706        0.526        0.064       96.057        7.254        0.006      342.536       18.014      862.626
09/01/2014  08:55:00      -48.857      -44.470        3.374       24.255       27.942       18.463      588.319      780.747      340.866        0.304        0.085       66.065       16.566        0.063      342.652       18.213      862.625
09/01/2014  08:56:00      -35.314      -14.887       -3.639        7.237        6.978        6.178       52.377       48.690       38.173        0.081        0.007       38.324        2.974        0.006      342.601       18.124      862.616
09/01/2014  08:57:00      -35.562      -33.482       -7.137       18.164       14.687       13.175      329.943      215.722      173.593        0.158        0.036       48.844       12.235        0.063      342.662       18.229      862.605
09/01/2014  08:58:00      -32.650      -35.330       -2.839       15.362       22.526       11.836      236.005      507.428      140.079        0.160        0.044       48.106        9.225        0.037      342.637       18.186      862.598
09/01/2014  08:59:00      -24.075        8.963       13.679       15.855       16.722       13.018      251.388      279.630      169.470        0.077        0.035       25.689        7.052        0.075      343.144       19.050      862.593
09/01/2014  09:00:00        7.895       14.844       40.679       25.690       35.699       23.756      659.969     1274.412      564.363        0.222        0.125       16.813       25.467        2.294      343.497       19.652      862.582
09/01/2014  09:01:00        8.975        4.857       37.699       25.403       35.924       28.269      645.324     1290.559      799.122        0.213        0.137       10.205       23.560        5.330      343.620       19.859      862.582
09/01/2014  09:02:00       32.468       48.968       65.201       35.380       29.105       16.020     1251.742      847.101      256.639        0.503        0.118       58.755       11.618        0.039      343.276       19.274      862.580
09/01/2014  09:03:00       52.853       61.722       44.811       23.300       20.470       21.424      542.903      419.006      458.987        0.502        0.071       81.259        8.450        0.011      342.863       18.569      862.580
09/01/2014  09:04:00       41.354       21.454      -10.225       18.280       15.420       12.462      334.151      237.789      155.292        0.150        0.036       46.588       12.243        0.069      342.810       18.479      862.577
09/01/2014  09:05:00       -8.427       22.172      -27.462       36.594       33.160       19.129     1339.116     1099.562      365.932        0.206        0.140       23.719       12.296        0.269      343.208       19.158      862.580
09/01/2014  09:06:00      -29.817       41.487      -16.961       29.940       19.997       15.973      896.395      399.886      255.129        0.222        0.078       51.090       13.336        0.068      343.079       18.939      862.581
09/01/2014  09:07:00      -48.888      -10.061        0.844       36.979       40.295       17.003     1367.441     1623.656      289.098        0.289        0.164       49.913        7.272        0.021      343.246       19.223      862.581
09/01/2014  09:08:00       10.217      -74.727       -7.832       38.009       27.188       26.571     1444.653      739.200      706.041        0.432        0.144       75.422       22.878        0.092      343.388       19.465      862.592
09/01/2014  09:09:00      -40.652      -36.203       -1.883       38.172       22.073       14.662     1457.116      487.238      214.961        0.256        0.108       54.435       12.638        0.054      343.248       19.227      862.602
09/01/2014  09:10:00      -37.014      -24.938        3.377       26.729       19.148       14.894      714.433      366.630      221.829        0.165        0.065       44.631       12.085        0.073      343.197       19.139      862.601
09/01/2014  09:11:00      -14.549      -20.686        7.737       24.736       19.345       18.705      611.867      374.232      349.872        0.102        0.067       25.290       11.201        0.196      343.720       20.031      862.608
09/01/2014  09:12:00      -29.345       -5.628       -5.374        8.804       11.525       10.882       77.513      132.834      118.421        0.063        0.016       29.880        5.044        0.028      343.245       19.221      862.621
09/01/2014  09:13:00      -42.680       24.679       22.155       29.379       29.900       28.338      863.130      893.983      803.060        0.274        0.128       49.301        5.979        0.015      343.714       20.020      862.626
09/01/2014  09:14:00      -11.832       12.321       39.186       26.538       19.591       22.116      704.285      383.819      489.119        0.170        0.079       17.082       13.751        0.648      344.415       21.218      862.626
09/01/2014  09:15:00       35.941       22.458       27.572       41.013       22.947       26.032     1682.040      526.576      677.640        0.272        0.144       42.380       26.207        0.382      344.114       20.702      862.615
09/01/2014  09:16:00       84.710       65.186        8.277       37.542       37.196       25.770     1409.386     1383.551      664.114        0.747        0.173      106.888       16.719        0.024      343.314       19.339      862.608
09/01/2014  09:17:00       63.355       49.567       50.313       51.820       39.688       32.349     2685.312     1575.169     1046.428        0.715        0.265       80.441       23.278        0.084      343.586       19.802      862.602
09/01/2014  09:18:00        9.106       68.475       77.334       27.819       30.285       22.391      773.888      917.164      501.350        0.647        0.110       69.078       20.134        0.085      343.820       20.201      862.606
09/01/2014  09:19:00       61.463       71.593        2.829       24.898       20.558       30.241      619.901      422.632      914.505        0.543        0.098       94.357       16.994        0.032      343.413       19.506      862.603
09/01/2014  09:20:00      123.485       56.071       20.030       67.348       43.340       36.988     4535.706     1878.394     1368.093        1.329        0.389      135.619       33.006        0.059      343.477       19.615      862.604
09/01/2014  09:21:00       33.375       40.090       13.910       47.997       35.897       26.424     2303.709     1288.594      698.246        0.360        0.215       52.164       28.913        0.307      343.931       20.390      862.609
09/01/2014  09:22:00        7.346       21.616       51.019       41.027       44.195       31.025     1683.247     1953.237      962.531        0.386        0.230       22.830       26.638        1.361      344.011       20.527      862.607
09/01/2014  09:23:00       -1.081       10.270       44.347       17.036       31.978       18.151      290.208     1022.622      329.473        0.186        0.082       10.327       18.280        3.134      344.281       20.988      862.605
09/01/2014  09:24:00       -6.453       -1.647       43.992       20.684       31.166       19.218      427.837      971.300      369.346        0.187        0.088        6.660       17.321        6.764      344.498       21.359      862.602
09/01/2014  09:25:00       15.407       30.231       68.019       35.844       35.475       26.691     1284.769     1258.481      712.417        0.452        0.163       33.931       18.472        0.296      344.394       21.183      862.600
09/01/2014  09:26:00       -6.618       17.692       51.973       25.168       34.957       23.524      633.440     1221.983      553.371        0.273        0.120       18.889       16.584        0.771      344.484       21.336      862.591
09/01/2014  09:27:00       83.475       43.350       46.431       61.242       46.687       40.486     3750.549     2179.699     1639.148        0.928        0.378       94.060       32.575        0.120      343.771       20.117      862.595
09/01/2014  09:28:00       53.588       44.319       13.486       43.262       42.517       32.665     1871.588     1807.667     1066.978        0.488        0.237       69.540       23.899        0.118      343.797       20.162      862.602
09/01/2014  09:29:00       45.742       25.222       30.366       39.292       55.324       33.569     1543.830     3060.766     1126.872        0.469        0.287       52.235       15.730        0.091      344.064       20.618      862.595
09/01/2014  09:30:00       30.601       43.529       12.262       49.852       23.840       27.702     2485.238      568.335      767.400        0.340        0.191       53.209       21.645        0.165      343.635       19.886      862.587
09/01/2014  09:31:00      -48.314       21.528      -26.601       17.839       20.887       18.200      318.212      436.264      331.245        0.230        0.054       52.893        6.618        0.016      343.629       19.876      862.585
09/01/2014  09:32:00      -44.512       -8.096      -14.725       15.731       20.229       13.081      247.460      409.204      171.108        0.155        0.041       45.243       10.876        0.058      343.632       19.879      862.576
09/01/2014  09:33:00       -8.863       -0.101       -4.156       24.280       16.771       25.612      589.521      281.251      655.969        0.081        0.076        8.863       16.322        3.391      344.031       20.562      862.579
09/01/2014  09:34:00       26.948       16.024       26.331       27.581       22.144       20.340      760.684      490.355      413.698        0.167        0.083       31.352       16.147        0.265      344.376       21.150      862.574
09/01/2014  09:35:00       78.025       81.722        1.003       47.489       40.208       33.303     2255.233     1616.701     1109.123        0.887        0.249      112.988       22.344        0.039      344.002       20.512      862.571
09/01/2014  09:36:00       31.393       78.326      -10.933       29.189       39.041       28.249      851.992     1524.215      797.981        0.521        0.159       84.383       22.091        0.069      343.835       20.227      862.563
09/01/2014  09:37:00        2.451       49.066       -8.105       15.746       33.251       21.965      247.950     1105.632      482.457        0.216        0.092       49.127       14.786        0.091      343.828       20.215      862.565
09/01/2014  09:38:00      -10.907       21.979      -14.899       18.160       22.897       14.565      329.788      524.282      212.126        0.094        0.053       24.536        7.768        0.100      343.901       20.340      862.559
09/01/2014  09:39:00      -24.408      -42.170        0.062       31.477       38.794       27.502      990.793     1504.977      756.338        0.281        0.163       48.725       13.488        0.077      343.927       20.383      862.537
09/01/2014  09:40:00      -28.193      -15.483        2.168       18.550       19.527       20.397      344.087      381.290      416.046        0.109        0.057       32.165       18.074        0.316      344.007       20.520      862.530
09/01/2014  09:41:00       31.320       41.434       43.957       76.681       41.206       51.059     5880.030     1697.927     2607.066        0.741        0.509       51.940       36.999        0.507      344.344       21.098      862.519
09/01/2014  09:42:00      116.731       49.665       15.575       50.788       44.490       44.204     2579.470     1979.349     1953.979        1.142        0.326      126.857       17.053        0.018      343.868       20.284      862.508
09/01/2014  09:43:00       22.518       53.002       64.195       47.050       39.992       28.826     2213.662     1599.383      830.930        0.604        0.232       57.588       18.416        0.102      344.415       21.218      862.501
09/01/2014  09:44:00       36.575       55.134       73.889       57.519       54.901       47.208     3308.378     3014.115     2228.565        0.919        0.428       66.163       44.913        0.461      344.455       21.286      862.483
09/01/2014  09:45:00       54.515       71.665       26.049       48.569       29.131       38.827     2358.996      848.633     1507.513        0.675        0.236       90.043       35.670        0.157      343.939       20.405      862.473
09/01/2014  09:46:00       -7.924       26.769        3.279       24.792       26.927       20.232      614.663      725.049      409.317        0.127        0.087       27.917       13.334        0.228      344.345       21.097      862.463
09/01/2014  09:47:00       -6.690       33.246       16.395       23.867       31.370       25.741      569.653      984.078      662.624        0.182        0.111       33.912       20.783        0.376      344.554       21.456      862.456
09/01/2014  09:48:00       33.866       30.015       12.481       37.724       41.476       31.223     1423.130     1720.249      974.876        0.316        0.206       45.253        8.200        0.033      344.498       21.361      862.444
09/01/2014  09:49:00       58.670       61.138       49.374       46.755       33.592       41.648     2186.015     1128.420     1734.597        0.733        0.252       84.734       36.642        0.187      344.464       21.303      862.434
09/01/2014  09:50:00       86.548       55.878       33.820       51.236       42.670       38.977     2625.125     1820.748     1519.185        0.886        0.298      103.019       21.666        0.044      344.707       21.717      862.430
09/01/2014  09:51:00       29.733      -20.688       21.568       52.781       65.195       38.473     2785.872     4250.424     1480.153        0.515        0.426       36.222       30.215        0.696      345.059       22.319      862.426
09/01/2014  09:52:00       58.687       39.519        0.552       43.342       34.425       33.326     1878.544     1185.104     1110.649        0.459        0.209       70.752       18.619        0.069      344.765       21.817      862.428
09/01/2014  09:53:00      102.669       92.172       22.039       67.852       46.815       45.886     4603.953     2191.656     2105.487        1.421        0.445      137.973       35.184        0.065      344.448       21.273      862.415
09/01/2014  09:54:00       75.593       70.266       51.104       81.165       41.797       57.796     6587.725     1746.951     3340.395        1.247        0.584      103.206       54.526        0.279      344.546       21.442      862.422
09/01/2014  09:55:00      103.347       91.251       -2.500       62.191       42.937       34.346     3867.747     1843.571     1179.652        1.295        0.345      137.867       23.742        0.030      344.236       20.912      862.416
09/01/2014  09:56:00       47.688       38.629       20.440       47.729       38.728       39.648     2278.093     1499.834     1571.940        0.477        0.267       61.371       28.808        0.220      344.520       21.397      862.420
09/01/2014  09:57:00       46.819       60.307       54.094       51.692       36.689       38.156     2672.066     1346.113     1455.871        0.711        0.274       76.347       20.269        0.070      344.541       21.433      862.414
09/01/2014  09:58:00       44.135       96.017      104.776       76.330       53.610       42.641     5826.332     2874.042     1818.240        1.633        0.526      105.675       46.856        0.197      344.274       20.976      862.408
09/01/2014  09:59:00       82.162       50.727        3.398       53.185       25.177       22.170     2828.668      633.881      491.510        0.664        0.198       96.559       21.755        0.051      343.822       20.206      862.412
09/01/2014  10:00:00       30.245       18.855       38.935       30.603       26.965       22.464      936.516      727.100      504.611        0.248        0.108       35.641       21.276        0.356      344.781       21.844      862.406
09/01/2014  10:01:00       37.117      -29.307       -1.225       37.272       29.167       41.668     1389.213      850.713     1736.218        0.311        0.199       47.292       12.928        0.075      344.387       21.169      862.414
09/01/2014  10:02:00       15.403        6.221       42.241       35.145       49.505       39.803     1235.187     2450.776     1584.280        0.366        0.264       16.612       38.756        5.443      344.827       21.923      862.414
09/01/2014  10:03:00       81.984       59.744       51.846       60.391       53.407       38.879     3647.074     2852.257     1511.569        1.049        0.401      101.443       32.652        0.104      344.942       22.119      862.404
09/01/2014  10:04:00       59.661       63.597       30.242       49.304       50.907       51.537     2430.897     2591.497     2656.096        0.810        0.384       87.201       36.494        0.175      344.909       22.063      862.413
09/01/2014  10:05:00      161.689       68.170       16.284       78.509       53.595       44.038     6163.599     2872.387     1939.374        2.101        0.549      175.472       23.311        0.018      344.304       21.026      862.405
09/01/2014  10:06:00       86.854       70.481       46.168       78.172       58.477       64.345     6110.843     3419.510     4140.269        1.415        0.684      111.853       44.150        0.156      344.931       22.099      862.401
09/01/2014  10:07:00       15.583        7.693       27.915       70.791       59.040       34.923     5011.353     3485.719     1219.612        0.540        0.486       17.379       32.214        3.436      345.297       22.729      862.403
09/01/2014  10:08:00       50.338     -116.213        5.721       58.459       88.609       51.915     3417.405     7851.554     2695.118        1.502        0.698      126.647       66.350        0.274      344.911       22.066      862.407
09/01/2014  10:09:00       34.769      -34.185       24.293       36.996       47.326       45.279     1368.674     2239.784     2050.185        0.431        0.283       48.760       29.348        0.362      345.076       22.349      862.404
09/01/2014  10:10:00        1.816       20.712       47.448       23.454       58.100       32.309      550.099     3375.598     1043.865        0.383        0.248       20.791       38.177        3.372      345.185       22.535      862.407
09/01/2014  10:11:00       12.136       39.855       55.146       33.150       40.202       29.434     1098.918     1616.222      866.351        0.418        0.179       41.661       27.705        0.442      345.119       22.422      862.400
09/01/2014  10:12:00       -9.364       15.120       57.441       22.379       40.570       18.556      500.808     1645.891      344.340        0.305        0.125       17.785       12.623        0.504      345.519       23.109      862.404
09/01/2014  10:13:00      -23.994       13.580       36.590       31.552       43.678       43.835      995.548     1907.732     1921.529        0.346        0.241       27.571       36.144        1.719      345.277       22.692      862.400
09/01/2014  10:14:00      -29.474       -6.400      -25.945       19.442       31.065       17.980      378.004      965.059      323.279        0.162        0.083       30.161       13.322        0.195      344.599       21.532      862.404
09/01/2014  10:15:00      -15.684        1.196      -11.746       23.637       16.075       17.796      558.684      258.412      316.690        0.076        0.057       15.729        7.465        0.225      344.820       21.909      862.399
09/01/2014  10:16:00       16.161        3.463       39.673       34.994       66.872       42.395     1224.564     4471.873     1797.357        0.467        0.375       16.528       39.569        5.731      345.187       22.539      862.388
09/01/2014  10:17:00       -7.590       -1.272       32.581       29.529       39.993       25.410      871.952     1599.427      645.658        0.212        0.156        7.696       18.779        5.955      345.396       22.897      862.382
09/01/2014  10:18:00       30.948      -81.477       17.495       35.237       63.865       40.644     1241.670     4078.739     1651.955        0.744        0.349       87.157       38.430        0.194      345.065       22.331      862.374
09/01/2014  10:19:00       84.551       65.672       23.711       47.404       39.368       32.062     2247.157     1549.831     1027.949        0.842        0.241      107.059       16.353        0.023      345.182       22.531      862.361
09/01/2014  10:20:00        9.435       29.221       71.241       43.732       60.505       40.165     1912.518     3660.866     1613.250        0.660        0.359       30.707       36.419        1.407      345.683       23.389      862.358
09/01/2014  10:21:00       40.257       28.881       64.353       59.947       42.008       38.275     3593.594     1764.653     1464.996        0.671        0.341       49.545       38.896        0.616      345.259       22.660      862.351
09/01/2014  10:22:00        8.442        7.316       44.564       27.418       31.203       16.862      751.724      973.619      284.340        0.206        0.100       11.171       11.285        1.020      345.236       22.623      862.344
09/01/2014  10:23:00       77.426       68.905       59.539       33.367       34.547       30.861     1113.363     1193.474      952.407        0.877        0.163      103.647       19.997        0.037      344.759       21.806      862.335
09/01/2014  10:24:00      157.824      118.441       42.853       68.743       56.559       51.264     4725.548     3198.946     2627.972        2.566        0.528      197.324       35.877        0.033      344.840       21.942      862.329
09/01/2014  10:25:00       35.222       61.900       61.521       74.588       48.672       43.469     5563.334     2368.933     1889.549        0.934        0.491       71.220       28.157        0.156      345.502       23.078      862.323
09/01/2014  10:26:00      120.307       78.890       47.853       61.503       68.418       63.277     3782.574     4681.034     4004.008        1.773        0.623      143.866       41.774        0.084      345.108       22.402      862.316
09/01/2014  10:27:00       54.191      125.301      129.728       88.285       79.065       50.578     7794.236     6251.300     2558.113        2.603        0.830      136.518       46.215        0.115      345.288       22.709      862.313
09/01/2014  10:28:00      156.373       99.947       49.277       61.805       45.580       49.839     3819.874     2077.531     2483.911        2.262        0.419      185.585       31.756        0.029      344.750       21.789      862.315
09/01/2014  10:29:00      149.222       89.503       24.542       44.354       38.855       49.792     1967.321     1509.719     2479.259        1.842        0.298      174.005       21.889        0.016      344.774       21.829      862.321
09/01/2014  10:30:00       42.945       52.263       37.380       64.366       42.227       35.815     4142.939     1783.148     1282.694        0.659        0.360       67.644       30.748        0.207      345.065       22.330      862.317
09/01/2014  10:31:00       16.991      -21.178       13.318       42.029       45.255       35.072     1766.469     2048.051     1230.020        0.298        0.252       27.152       22.375        0.679      345.470       23.024      862.309
09/01/2014  10:32:00       56.566       61.654       75.905       96.834       67.032       37.207     9376.765     4493.317     1384.380        1.401        0.763       83.672       36.259        0.188      345.787       23.566      862.310
09/01/2014  10:33:00       88.845       79.622       37.721       75.920       45.951       46.512     5763.791     2111.474     2163.339        1.285        0.502      119.303       24.859        0.043      345.175       22.517      862.314
09/01/2014  10:34:00      121.837      118.901       81.607       64.332       56.468       52.647     4138.665     3188.687     2771.754        2.287        0.505      170.240       18.942        0.012      344.932       22.101      862.316
09/01/2014  10:35:00      120.422       77.734       59.971       97.976       75.457       58.096     9599.202     5693.726     3375.154        2.140        0.933      143.332       50.689        0.125      345.300       22.730      862.300
09/01/2014  10:36:00      101.707       58.630       40.535       80.595       67.617       51.977     6495.609     4572.061     2701.597        1.459        0.688      117.396       36.502        0.097      345.569       23.192      862.297
09/01/2014  10:37:00      149.993       79.535       37.837       61.968       60.838       47.824     3839.984     3701.307     2287.116        2.004        0.491      169.776       39.428        0.054      344.885       22.021      862.292
09/01/2014  10:38:00      115.502       80.604       12.005       59.698       46.035       48.834     3563.817     2119.189     2384.773        1.402        0.403      140.846       24.421        0.030      344.898       22.042      862.283
09/01/2014  10:39:00       61.633       60.597       56.839       49.420       39.007       47.836     2442.333     1521.558     2288.279        0.848        0.313       86.433       27.090        0.098      345.293       22.718      862.264
09/01/2014  10:40:00       90.992       71.980       35.708       54.612       36.695       54.442     2982.500     1346.499     2963.880        1.101        0.365      116.020       39.964        0.119      344.997       22.214      862.251
09/01/2014  10:41:00       58.390       39.108       40.024       77.539       54.498       36.956     6012.300     2970.083     1365.776        0.844        0.517       70.277       28.650        0.166      345.458       23.003      862.243
09/01/2014  10:42:00       32.522       35.150       22.085       36.312       42.853       40.015     1318.526     1836.380     1601.171        0.377        0.238       47.887       17.624        0.135      345.941       23.832      862.231
09/01/2014  10:43:00       21.970       39.777       23.405       27.477       41.448       30.605      754.991     1717.932      936.677        0.301        0.170       45.441       22.097        0.236      345.722       23.458      862.233
09/01/2014  10:44:00       11.239       51.215       98.692       56.189       70.799       70.289     3157.236     5012.557     4940.510        1.280        0.656       52.433       66.385        1.603      345.756       23.514      862.217
09/01/2014  10:45:00       76.380        1.520       22.271       50.489       63.576       57.877     2549.101     4041.947     3349.729        0.813        0.497       76.396       50.212        0.432      345.170       22.508      862.198
09/01/2014  10:46:00       78.600      -54.111       29.169       63.040       58.098       44.631     3973.980     3375.407     1991.909        0.965        0.467       95.425       40.845        0.183      345.249       22.646      862.188
09/01/2014  10:47:00       28.105       40.693       26.263       36.156       61.265       46.983     1307.224     3753.437     2207.359        0.520        0.363       49.456       37.931        0.588      345.740       23.488      862.161
09/01/2014  10:48:00       31.203      104.607       -2.759       47.546       56.824       30.038     2260.630     3228.998      902.296        0.916        0.320      109.162       18.514        0.029      345.568       23.193      862.145
09/01/2014  10:49:00      109.066       89.754       37.262       47.234       27.585       33.628     2231.005      760.926     1130.864        1.273        0.206      141.249       18.350        0.017      345.283       22.701      862.153
09/01/2014  10:50:00      132.405       87.767       18.035       58.269       38.419       37.796     3395.254     1476.027     1428.514        1.593        0.315      158.853       30.133        0.036      345.325       22.774      862.153
09/01/2014  10:51:00      110.824      107.161       81.139       83.799       55.551       50.057     7022.330     3085.966     2505.738        2.148        0.631      154.160       48.594        0.099      345.814       23.613      862.139
09/01/2014  10:52:00      125.971      115.610       76.954       97.990       68.468       70.325     9602.004     4687.843     4945.651        2.719        0.962      170.981       55.155        0.104      345.574       23.200      862.139
09/01/2014  10:53:00       83.699      -97.135        5.808       62.193       91.797       43.099     3867.958     8426.669     1857.563        1.531        0.708      128.222       40.694        0.101      345.398       22.899      862.125
09/01/2014  10:54:00      123.645       52.287       18.220       49.878       46.370       35.644     2487.826     2150.134     1270.482        1.213        0.295      134.246       21.861        0.027      345.654       23.338      862.126
09/01/2014  10:55:00       71.855       72.768       56.680       66.879       49.797       48.571     4472.831     2479.715     2359.148        1.149        0.466      102.266       36.745        0.129      345.960       23.863      862.111
09/01/2014  10:56:00      155.171      100.711       51.600       73.792       66.099       58.140     5445.278     4369.042     3380.292        2.504        0.660      184.988       23.337        0.016      345.831       23.640      862.111
09/01/2014  10:57:00      201.319      127.908       53.127      106.450       85.578       72.320    11331.497     7323.536     5230.182        4.179        1.194      238.516       67.107        0.079      345.657       23.341      862.108
09/01/2014  10:58:00      188.135      132.517       57.243       56.085       46.329       47.530     3145.475     2146.357     2259.084        3.189        0.378      230.120       26.601        0.013      345.412       22.918      862.097
09/01/2014  10:59:00       81.987      111.398      120.513       83.238       60.612       62.258     6928.509     3673.874     3876.082        2.406        0.724      138.316       49.391        0.128      345.897       23.755      862.092
09/01/2014  11:00:00      176.174      125.727      100.410       73.952       84.948       79.237     5468.962     7216.159     6278.547        3.794        0.948      216.436       65.562        0.092      345.555       23.164      862.078
09/01/2014  11:01:00       88.750       -9.128       63.268       81.012       79.363       60.303     6562.988     6298.547     3636.511        1.423        0.825       89.219       47.625        0.285      346.167       24.220      862.073
09/01/2014  11:02:00      146.392       33.859      116.032      115.761      112.003       76.168    13400.601    12544.592     5801.608        3.389        1.587      150.257       71.162        0.224      345.917       23.787      862.065
09/01/2014  11:03:00       69.294       33.618       75.931       86.019      108.488       67.163     7399.314    11769.623     4510.832        1.768        1.184       77.018       68.731        0.796      346.057       24.029      862.070
09/01/2014  11:04:00       84.579      -38.796       38.202       82.868      121.375       75.894     6867.031    14731.858     5759.824        1.873        1.368       93.052       87.060        0.875      346.037       23.996      862.074
09/01/2014  11:05:00       50.315        6.648       60.153       66.307       68.369       60.365     4396.649     4674.348     3643.873        0.945        0.636       50.752       55.704        1.205      346.201       24.277      862.068
09/01/2014  11:06:00       75.228        4.425       66.500       98.190      102.598       75.856     9641.321    10526.293     5754.123        1.801        1.296       75.358       83.807        1.237      346.090       24.088      862.074
09/01/2014  11:07:00       62.915       60.475       87.854       52.468       63.679       36.273     2752.901     4055.031     1315.714        1.173        0.406       87.267       39.119        0.201      346.217       24.306      862.078
09/01/2014  11:08:00        0.434       22.828       21.705       68.465       64.900       38.999     4687.407     4212.004     1520.918        0.570        0.521       22.832       42.660        3.491      346.148       24.186      862.064
09/01/2014  11:09:00       66.516       55.329       -5.643       42.615       56.192       33.656     1816.036     3157.537     1132.754        0.681        0.305       86.520       37.190        0.185      345.493       23.063      862.063
09/01/2014  11:10:00       57.570       32.095       30.295       73.149       35.626       45.095     5350.818     1269.177     2033.523        0.696        0.433       65.912       30.076        0.208      345.919       23.793      862.057
09/01/2014  11:11:00      155.022      124.049       98.670      100.578       89.004       63.612    10115.995     7921.657     4046.425        3.562        1.104      198.545       49.301        0.062      345.750       23.501      862.034
09/01/2014  11:12:00      166.575      119.354       16.329       70.405       64.694       52.439     4956.887     4185.345     2749.820        2.707        0.595      204.922       31.369        0.023      345.782       23.556      862.039
09/01/2014  11:13:00      110.281       98.927       20.632       81.551       60.110       46.880     6650.549     3613.237     2197.698        1.742        0.623      148.150       39.555        0.071      346.206       24.285      862.030
09/01/2014  11:14:00      100.210       87.173        8.182      102.647       74.715       48.366    10536.437     5582.264     2339.298        1.808        0.923      132.820       39.965        0.091      346.010       23.950      862.027
09/01/2014  11:15:00       24.929       19.464       16.565       45.825       47.899       32.886     2099.953     2294.313     1081.497        0.337        0.274       31.627       26.302        0.692      346.383       24.591      862.010
09/01/2014  11:16:00       91.768       75.322       19.871       47.089       35.509       27.712     2217.363     1260.862      767.981        0.937        0.212      118.721       16.540        0.019      345.820       23.625      862.012
09/01/2014  11:17:00      126.443      109.226       79.463       83.858       69.600       58.524     7032.093     4844.139     3425.073        2.476        0.765      167.087       35.833        0.046      346.037       23.996      862.005
09/01/2014  11:18:00       94.898      -94.041        8.686       64.576       71.701       48.873     4169.997     5141.098     2388.577        1.481        0.585      133.601       43.833        0.108      346.153       24.196      861.996
09/01/2014  11:19:00       84.557      -83.998        9.511       57.275       50.459       38.892     3280.417     2546.109     1512.588        1.082        0.367      119.187       31.160        0.068      345.923       23.801      861.994
09/01/2014  11:20:00        3.197      -82.791       -7.140       67.993       30.274       31.815     4623.008      916.539     1012.194        0.673        0.328       82.853       22.943        0.077      345.827       23.635      861.982
09/01/2014  11:21:00      -19.353        9.547       21.953       40.230       40.691       29.304     1618.458     1655.757      858.730        0.254        0.207       21.580       22.532        1.090      346.813       25.331      861.954
09/01/2014  11:22:00       43.297       57.160       34.337       79.547       55.340       37.929     6327.754     3062.568     1438.626        0.857        0.541       71.708       35.669        0.247      346.920       25.516      861.966
09/01/2014  11:23:00      137.564      124.907        8.955       84.147       54.988       62.928     7080.674     3023.666     3959.962        2.433        0.703      185.811       29.325        0.025      346.077       24.062      861.951
09/01/2014  11:24:00      178.592       78.138       11.622       85.219       58.681       42.057     7262.339     3443.467     1768.808        2.530        0.624      194.938       21.758        0.012      345.933       23.814      861.940
09/01/2014  11:25:00      133.049       92.894       60.325       86.771       67.131       65.202     7529.199     4506.560     4251.291        2.313        0.814      162.270       45.023        0.077      346.358       24.546      861.934
09/01/2014  11:26:00      167.704      113.829       78.195       89.597       78.825       72.609     8027.655     6213.412     5272.110        3.335        0.976      202.686       65.412        0.104      345.864       23.696      861.934
09/01/2014  11:27:00       47.080       89.308       82.660       58.074       51.791       51.807     3372.581     2682.312     2683.981        1.288        0.437      100.957       41.916        0.172      346.165       24.216      861.927
09/01/2014  11:28:00       76.763       60.452       19.275       73.055       58.753       39.257     5336.975     3451.915     1541.098        1.012        0.516       97.708       34.025        0.121      346.106       24.114      861.922
09/01/2014  11:29:00       35.339       66.200       48.782       49.968       36.813       38.715     2496.806     1355.211     1498.864        0.668        0.268       75.042       19.341        0.066      346.493       24.780      861.904
09/01/2014  11:30:00       90.050       59.131       27.557       63.280       48.064       33.462     4004.393     2310.196     1119.677        0.990        0.372      107.729       21.504        0.040      346.562       24.898      861.888
09/01/2014  11:31:00      142.746       90.423       28.550       43.721       46.435       45.964     1911.551     2156.190     2112.682        1.777        0.309      168.976       30.013        0.032      346.051       24.020      861.881
09/01/2014  11:32:00       73.274       48.931       91.556       75.470      107.739       64.408     5695.796    11607.617     4148.350        1.879        1.073       88.110       64.100        0.529      346.707       25.146      861.855
09/01/2014  11:33:00       38.489       94.696       87.359       50.185       65.147       53.648     2518.554     4244.072     2878.117        1.386        0.482      102.219       34.231        0.112      346.912       25.500      861.854
09/01/2014  11:34:00       71.588       42.331       40.542       46.231       65.044       30.460     2137.326     4230.696      927.786        0.793        0.365       83.167       22.640        0.074      346.504       24.800      861.840
09/01/2014  11:35:00       28.085      -61.197        9.020       43.270       45.544       34.785     1872.333     2074.220     1210.002        0.488        0.258       67.334       28.095        0.174      346.707       25.149      861.822
09/01/2014  11:36:00        1.515       -8.619       29.583       47.256       66.279       39.013     2233.086     4392.901     1522.019        0.455        0.407        8.752       22.589        6.662      347.082       25.794      861.819
09/01/2014  11:37:00      108.998       79.736       23.320       90.002       51.608       52.486     8100.437     2663.413     2754.824        1.615        0.676      135.050       28.203        0.044      346.743       25.208      861.811
09/01/2014  11:38:00      135.478       86.857       26.206       52.012       54.566       43.977     2705.294     2977.498     1933.958        1.710        0.381      160.930       23.981        0.022      346.529       24.841      861.811
09/01/2014  11:39:00      152.462       95.533       19.174       65.962       54.601       45.969     4351.029     2981.232     2113.115        2.109        0.472      179.920       32.950        0.034      346.385       24.592      861.806
09/01/2014  11:40:00       56.138       48.147       -0.682       58.279       35.362       25.798     3396.486     1250.503      665.519        0.539        0.266       73.957       25.333        0.117      346.025       23.974      861.799
09/01/2014  11:41:00        9.685       16.825       -7.551       22.171       43.789       24.695      491.556     1917.482      609.821        0.173        0.151       19.413       21.413        1.217      346.399       24.618      861.783
09/01/2014  11:42:00       16.639      -19.632       16.963       39.657       35.557       22.464     1572.671     1264.334      504.620        0.215        0.167       25.735       15.270        0.352      346.617       24.994      861.773
09/01/2014  11:43:00       41.921        1.629       31.547       58.611       46.477       38.509     3435.280     2160.137     1482.939        0.492        0.354       41.952       37.959        0.819      346.735       25.197      861.754
09/01/2014  11:44:00       22.680        6.924       11.170       32.383       22.165       28.931     1048.681      491.273      836.998        0.153        0.119       23.714        8.614        0.132      346.646       25.046      861.757
09/01/2014  11:45:00       -7.863      -24.322        8.683       15.976       32.605       24.262      255.227     1063.107      588.631        0.132        0.095       25.562       15.708        0.378      346.645       25.041      861.743
09/01/2014  11:46:00       41.912       40.182       20.611       63.660       52.168       33.926     4052.568     2721.480     1150.997        0.586        0.396       58.062       13.010        0.050      347.127       25.871      861.729
09/01/2014  11:47:00       64.057      103.664        0.952       59.392       57.923       48.417     3527.415     3355.081     2344.173        1.204        0.461      121.859       38.068        0.098      346.421       24.657      861.724
09/01/2014  11:48:00       76.955       39.159        1.133       47.902       47.257       29.277     2294.578     2233.263      857.141        0.642        0.269       86.345       20.376        0.056      346.233       24.335      861.713
09/01/2014  11:49:00       51.218      106.056      -11.280       34.439       49.457       41.040     1186.068     2446.029     1684.322        0.966        0.266      117.776       32.636        0.077      346.463       24.729      861.701
09/01/2014  11:50:00       27.970       36.857       17.300       31.018       49.025       26.433      962.141     2403.493      698.707        0.325        0.203       46.268       29.707        0.412      346.959       25.581      861.701
09/01/2014  11:51:00       85.952       89.405       83.394       85.642       72.840       69.557     7334.533     5305.706     4838.220        1.990        0.874      124.020       62.075        0.251      347.044       25.728      861.686
09/01/2014  11:52:00      134.117      129.027      132.069       95.954      108.412       68.195     9207.203    11753.124     4650.573        3.884        1.281      186.106       64.661        0.121      346.688       25.113      861.667
09/01/2014  11:53:00       62.328      143.730      121.853       77.754       79.666       52.101     6045.632     6346.673     2714.550        2.725        0.755      156.662       30.167        0.037      347.067       25.765      861.658
09/01/2014  11:54:00       81.661      105.473       97.169       74.516       69.695       48.359     5552.563     4857.399     2338.559        1.999        0.637      133.390       19.290        0.021      347.097       25.818      861.661
09/01/2014  11:55:00      136.531       71.465       44.549       68.965       61.713       55.729     4756.205     3808.526     3105.763        1.870        0.584      154.104       39.690        0.066      346.581       24.930      861.659
09/01/2014  11:56:00       52.385       45.466       14.264       53.536       37.899       30.965     2866.052     1436.322      958.804        0.514        0.263       69.364       23.032        0.110      346.903       25.486      861.647
09/01/2014  11:57:00       89.944       43.801       -3.584       33.260       31.192       25.670     1106.205      972.915      658.944        0.638        0.137      100.042       15.800        0.025      346.760       25.239      861.638
09/01/2014  11:58:00       50.444       50.958       16.615       30.435       27.308       30.320      926.293      745.732      919.285        0.400        0.130       71.702       23.542        0.108      346.717       25.167      861.626
09/01/2014  11:59:00      -44.744      -48.664       -3.556       37.417       48.515       24.381     1400.043     2353.731      594.439        0.436        0.217       66.107       21.415        0.105      346.807       25.320      861.623
09/01/2014  12:00:00      -12.019      -39.990       13.883       44.657       65.841       35.460     1994.221     4335.102     1257.439        0.476        0.379       41.758       27.295        0.427      347.056       25.749      861.612
09/01/2014  12:01:00       21.596      -78.354       23.403       35.813       73.809       39.737     1282.590     5447.740     1579.058        0.773        0.415       81.275       39.887        0.241      347.206       26.007      861.606
09/01/2014  12:02:00      136.662       95.356       67.174      110.994       58.005       53.113    12319.576     3364.531     2820.987        2.539        0.925      166.641       45.745        0.075      347.029       25.700      861.593
09/01/2014  12:03:00      224.788      177.786       82.548       84.352       60.825       69.850     7115.183     3699.700     4879.017        5.232        0.785      286.597       52.445        0.033      346.383       24.586      861.580
09/01/2014  12:04:00      206.504      112.440       34.010       52.980       42.050       45.063     2806.922     1768.209     2030.655        3.152        0.330      235.131       34.619        0.022      346.387       24.593      861.556
09/01/2014  12:05:00      139.899       79.239       40.292       73.581       61.717       57.345     5414.167     3809.034     3288.470        1.999        0.626      160.781       47.175        0.086      346.645       25.040      861.538
09/01/2014  12:06:00      138.545      103.707        2.607       86.002       64.849       54.553     7396.278     4205.422     2976.057        2.226        0.729      173.060       42.963        0.062      346.724       25.177      861.529
09/01/2014  12:07:00       57.792       90.672       22.995       57.209       66.451       51.341     3272.853     4415.793     2635.849        1.121        0.516      107.524       43.999        0.167      347.030       25.704      861.512
09/01/2014  12:08:00      148.706      123.094        7.911       61.531       87.479       69.876     3786.082     7652.539     4882.665        2.682        0.816      193.043       59.543        0.095      346.960       25.582      861.490
09/01/2014  12:09:00      141.636      109.344       10.388      109.773       78.969       64.153    12050.101     6236.050     4115.601        2.726        1.120      178.933       30.417        0.029      347.026       25.696      861.457
09/01/2014  12:10:00      223.180      141.643       11.392       92.792       60.502       45.997     8610.286     3660.459     2115.724        4.219        0.719      264.333       32.628        0.015      346.843       25.379      861.448
09/01/2014  12:11:00       48.283       67.574       12.122       68.168       68.604       35.359     4646.876     4706.558     1250.249        0.882        0.530       83.051       39.528        0.227      347.140       25.894      861.433
09/01/2014  12:12:00       94.200      109.582       18.025       72.858       41.323       40.717     5308.255     1707.589     1657.889        1.494        0.434      144.506       31.839        0.049      346.807       25.321      861.420
09/01/2014  12:13:00       79.888       61.751       41.660       93.096       62.726       51.605     8666.941     3934.593     2663.040        1.359        0.763      100.972       27.765        0.076      347.462       26.448      861.411
09/01/2014  12:14:00      121.442      110.833       76.958       90.854       86.451       74.166     8254.365     7473.831     5500.603        2.709        1.061      164.414       71.179        0.187      347.527       26.557      861.383
09/01/2014  12:15:00       78.880      104.590       64.922       93.317       75.326       72.297     8708.063     5673.990     5226.905        2.049        0.980      131.001       54.411        0.173      347.651       26.775      861.380
09/01/2014  12:16:00       90.382       23.339       24.899      100.452       73.135       47.865    10090.563     5348.748     2291.070        1.353        0.887       93.346       24.745        0.070      347.277       26.129      861.379
09/01/2014  12:17:00      127.445      100.979       22.775       85.131       56.623       52.770     7247.336     3206.183     2784.626        2.010        0.662      162.601       41.893        0.066      346.876       25.436      861.379
09/01/2014  12:18:00       90.665       65.085       11.301       42.827       37.687       43.934     1834.177     1420.316     1930.198        0.888        0.259      111.608       14.050        0.016      346.911       25.499      861.363
09/01/2014  12:19:00       77.009       52.169       18.941       45.337       37.289       34.014     2055.470     1390.493     1156.960        0.681        0.230       93.016       14.940        0.026      346.834       25.367      861.349
09/01/2014  12:20:00       41.507       57.098        4.720       61.065       70.778       43.811     3728.955     5009.589     1919.418        0.783        0.533       70.590       39.182        0.308      347.303       26.174      861.338
09/01/2014  12:21:00       42.886      123.444        1.030       55.220       95.934       54.987     3049.293     9203.238     3023.618        1.617        0.764      130.681       54.749        0.176      346.982       25.621      861.348
09/01/2014  12:22:00        8.218       20.915       34.720       34.902       60.988       33.277     1218.181     3719.523     1107.345        0.388        0.302       22.471       34.524        2.360      347.386       26.319      861.331
09/01/2014  12:23:00       69.897      -35.198        7.975       70.700      103.004       47.366     4998.496    10609.771     2243.563        1.202        0.893       78.260       61.061        0.609      346.899       25.477      861.313
09/01/2014  12:24:00      146.656      107.436       13.902       63.459       55.995       52.069     4027.025     3135.423     2711.205        2.156        0.494      181.797       30.329        0.028      347.064       25.760      861.299
09/01/2014  12:25:00      127.181      111.887        3.601       88.403       85.539       67.135     7815.167     7316.915     4507.148        2.417        0.982      169.392       49.945        0.087      347.099       25.823      861.276
09/01/2014  12:26:00       89.235      123.883       41.799      103.436       77.064       79.356    10698.918     5938.904     6297.306        2.399        1.147      152.676       63.286        0.172      347.390       26.322      861.251
09/01/2014  12:27:00      216.537      149.754       18.731       89.690       82.639       65.011     8044.300     6829.165     4226.397        4.438        0.955      263.277       45.771        0.030      347.154       25.913      861.261
09/01/2014  12:28:00      133.383      115.728       11.146       93.891       65.543       53.529     8815.518     4295.874     2865.353        2.364        0.799      176.590       33.160        0.035      347.122       25.860      861.249
09/01/2014  12:29:00      136.029      113.993       13.252       67.239       50.461       51.532     4521.066     2546.330     2655.510        2.070        0.486      177.478       43.764        0.061      346.952       25.568      861.253
09/01/2014  12:30:00      144.546       48.208       16.504       63.678       46.066       40.048     4054.830     2122.118     1603.842        1.563        0.389      152.373       29.675        0.038      346.919       25.512      861.251
09/01/2014  12:31:00      232.562      107.422        5.140       85.773       52.252       57.703     7356.971     2730.224     3329.645        3.953        0.671      256.173       43.373        0.029      347.073       25.775      861.220
09/01/2014  12:32:00      126.902       96.807       49.685       93.965       63.436       66.820     8829.431     4024.066     4464.900        2.263        0.866      159.612       34.782        0.047      347.475       26.471      861.219
09/01/2014  12:33:00      239.800      153.399       25.803       79.185       45.840       47.412     6270.293     2101.274     2247.940        4.616        0.531      284.667       12.611        0.002      346.834       25.363      861.204
09/01/2014  12:34:00      115.954       81.392       36.476       50.590       41.608       40.030     2559.393     1731.208     1602.422        1.365        0.295      141.669       21.309        0.023      347.189       25.978      861.189
09/01/2014  12:35:00       39.054       75.311       24.284       83.735       77.728       47.476     7011.493     6041.706     2253.936        1.154        0.765       84.835       34.621        0.167      347.742       26.931      861.176
09/01/2014  12:36:00      139.602       73.165       35.863       65.269       59.690       45.459     4260.077     3562.897     2066.514        1.801        0.494      157.613       36.747        0.054      347.142       25.898      861.173
09/01/2014  12:37:00      110.599       96.119       23.932       55.957       45.882       50.074     3131.134     2105.137     2507.357        1.489        0.387      146.529       25.947        0.031      347.179       25.959      861.150
09/01/2014  12:38:00       56.893       64.159       -2.234       73.625       53.854       45.840     5420.670     2900.291     2101.339        0.889        0.521       85.751       34.657        0.163      347.264       26.108      861.142
09/01/2014  12:39:00      116.749      103.877       17.936      113.297       73.073       58.272    12836.238     5339.689     3395.659        2.315        1.079      156.271       41.183        0.069      347.341       26.239      861.110
09/01/2014  12:40:00      191.370      126.615      101.525      135.592      128.067      101.594    18385.263    16401.098    10321.403        5.403        2.255      229.465       94.906        0.171      347.566       26.625      861.040
09/01/2014  12:41:00      267.552       78.895       33.014      124.615       96.080       81.126    15528.811     9231.376     6581.506        5.511        1.567      278.942       52.824        0.036      347.185       25.968      861.061
09/01/2014  12:42:00       99.616      132.245      110.555      126.425       83.006       94.255    15983.205     6890.026     8884.014        3.569        1.588      165.566       85.420        0.266      347.516       26.539      861.058
09/01/2014  12:43:00       95.853      124.862      110.458       87.513       88.064       78.846     7658.566     7755.190     6216.743        2.930        1.082      157.411       59.990        0.145      347.374       26.295      861.051
09/01/2014  12:44:00      113.088       68.611       48.034       59.648       66.766       53.553     3557.860     4457.700     2867.886        1.534        0.544      132.274       37.687        0.081      347.417       26.370      861.047
09/01/2014  12:45:00       44.395       -7.465       42.393       59.607       39.720       32.576     3553.026     1577.717     1061.195        0.501        0.310       45.018       30.703        0.465      348.013       27.399      861.030
09/01/2014  12:46:00       63.524      -97.815       -3.361       81.066      109.777       56.226     6571.688    12051.091     3161.391        1.769        1.089      116.632       68.960        0.350      347.857       27.129      860.999
09/01/2014  12:47:00       46.903      -39.325       50.534       80.165      124.754       63.637     6426.507    15563.464     4049.605        1.616        1.302       61.207       84.697        1.915      347.991       27.361      860.983
09/01/2014  12:48:00      178.934      124.275       84.930      138.397      114.702       72.420    19153.853    13156.658     5244.586        4.611        1.878      217.857       60.940        0.078      347.711       26.876      860.982
09/01/2014  12:49:00      117.539       45.661       67.587       85.404      100.592       62.070     7293.775    10118.835     3852.659        2.086        1.063      126.097       52.545        0.174      347.761       26.963      860.969
09/01/2014  12:50:00       39.323      -29.569       58.243       71.873      106.359       67.407     5165.771    11312.291     4543.707        1.341        1.051       49.200       58.453        1.412      348.131       27.602      860.946
09/01/2014  12:51:00       70.925      -33.802       61.965       76.410      124.711       60.297     5838.437    15552.906     3635.669        1.751        1.251       78.567       79.541        1.025      347.901       27.205      860.953
09/01/2014  12:52:00       47.847      -19.734       40.970       45.874       80.591       47.464     2104.409     6494.868     2252.834        0.760        0.543       51.756       47.557        0.844      347.960       27.310      860.949
09/01/2014  12:53:00      103.818      -96.940       11.112       59.139      102.375       49.752     3497.468    10480.572     2475.224        1.837        0.823      142.041       60.165        0.179      347.722       26.896      860.922
09/01/2014  12:54:00      100.053     -219.696      -10.249       37.281       52.415       26.164     1389.904     2747.306      684.554        3.160        0.241      241.406       17.158        0.005      347.024       25.690      860.900
09/01/2014  12:55:00       47.181      -50.092       27.648       45.729       97.855       49.311     2091.106     9575.685     2431.561        0.980        0.705       68.813       62.549        0.826      347.568       26.631      860.877
09/01/2014  12:56:00       97.509      -31.349       55.485       66.436       99.844       57.538     4413.808     9968.767     3310.652        1.563        0.885      102.425       64.634        0.398      347.688       26.838      860.855
09/01/2014  12:57:00       59.680       78.668       92.461       70.334       70.571       51.267     4946.903     4980.226     2628.344        1.542        0.628       98.744       53.707        0.296      348.120       27.584      860.833
09/01/2014  12:58:00      148.502       87.185       46.756       95.740      101.709       80.530     9166.164    10344.819     6485.075        2.891        1.300      172.204       65.149        0.143      347.404       26.346      860.818
09/01/2014  12:59:00      137.169       72.314       12.352       94.745       72.115       55.646     8976.556     5200.510     3096.466        2.073        0.864      155.064       29.947        0.037      347.575       26.642      860.801
09/01/2014  13:00:00       46.911       31.424        8.277       38.561       40.537       28.739     1486.939     1643.250      825.945        0.361        0.198       56.464       19.378        0.118      347.758       26.960      860.796
09/01/2014  13:01:00      -30.512      -57.797        9.556       33.177       45.124       33.631     1100.743     2036.163     1131.052        0.431        0.213       65.356       24.954        0.146      347.771       26.984      860.780
09/01/2014  13:02:00       15.702      -45.024        9.095       40.469       45.576       27.306     1637.719     2077.142      745.623        0.341        0.223       47.683       25.899        0.295      348.083       27.522      860.747
09/01/2014  13:03:00        3.030       11.305        7.993       39.000       36.201       32.120     1521.027     1310.546     1031.693        0.203        0.193       11.704       26.486        5.121      348.259       27.826      860.731
09/01/2014  13:04:00       20.568      -49.606       -3.645       68.621       44.217       35.814     4708.828     1955.179     1282.630        0.542        0.397       53.701       23.562        0.193      347.869       27.152      860.718
09/01/2014  13:05:00       33.386      -36.577       44.224       35.799       88.036       47.230     1281.566     7750.396     2230.687        0.783        0.563       49.523       46.998        0.901      348.183       27.693      860.685
09/01/2014  13:06:00       74.027       72.869      109.115       88.468       98.398       82.156     7826.660     9682.233     6749.663        2.347        1.213      103.874       69.786        0.451      348.167       27.664      860.655
09/01/2014  13:07:00      225.204      181.121      137.260      141.849       88.711      105.528    20121.090     7869.668    11136.064        7.074        1.956      289.001       97.904        0.115      347.526       26.556      860.653
09/01/2014  13:08:00      193.387      173.065      104.858       88.950       79.098       94.224     7912.184     6256.516     8878.218        5.069        1.152      259.519       61.676        0.056      347.376       26.296      860.652
09/01/2014  13:09:00      101.521      103.164      112.347      100.867       90.668       62.228    10174.092     8220.710     3872.286        2.791        1.113      144.739       69.055        0.228      347.619       26.718      860.650
09/01/2014  13:10:00       43.640       80.529       85.498       57.360       71.447       52.898     3290.205     5104.676     2798.173        1.344        0.560       91.593       51.908        0.321      347.683       26.830      860.632
09/01/2014  13:11:00       42.032      -72.387       16.543       65.884       95.078       44.781     4340.744     9039.857     2005.317        1.133        0.769       83.706       57.051        0.465      347.776       26.988      860.612
09/01/2014  13:12:00       62.259      -31.562       38.075       62.453       73.113       40.154     3900.363     5345.438     1612.335        0.859        0.543       69.802       45.165        0.419      347.872       27.155      860.611
09/01/2014  13:13:00      176.303       71.528       27.470       99.917       95.072       54.519     9983.441     9038.775     2972.292        2.947        1.100      190.260       29.182        0.024      347.814       27.055      860.605
09/01/2014  13:14:00       81.120       90.801       20.009       94.742       54.236       46.826     8976.117     2941.492     2192.670        1.467        0.706      121.759       29.077        0.057      348.043       27.450      860.591
09/01/2014  13:15:00       96.790       67.709        4.132       58.478       34.456       39.442     3419.705     1187.228     1555.648        1.006        0.308      118.122       16.066        0.018      347.796       27.025      860.576
09/01/2014  13:16:00       23.130       50.089       17.603       52.008       47.087       36.504     2704.839     2217.157     1332.526        0.480        0.313       55.172       22.921        0.173      348.021       27.414      860.585
09/01/2014  13:17:00      -27.596      152.051       -8.668       39.129       57.304       28.720     1531.070     3283.767      824.828        1.480        0.282      154.535       22.686        0.022      347.946       27.282      860.582
09/01/2014  13:18:00      -25.211        2.396        7.296       59.485       70.484       37.234     3538.443     4968.037     1386.374        0.529        0.495       25.324       20.907        0.682      348.561       28.347      860.586
09/01/2014  13:19:00       20.579      -67.349       33.421       40.610       61.175       44.298     1649.152     3742.410     1962.282        0.671        0.368       70.423       34.737        0.243      348.243       27.798      860.566
09/01/2014  13:20:00       69.483      -22.572       21.881       62.746       49.201       44.955     3937.090     2420.700     2020.987        0.710        0.419       73.057       43.080        0.348      348.191       27.709      860.558
09/01/2014  13:21:00       32.869      -70.702       -0.597       38.916       44.195       34.182     1514.427     1953.205     1168.432        0.536        0.232       77.969       26.663        0.117      348.121       27.586      860.552
09/01/2014  13:22:00       14.670       31.840       83.627       65.729      101.539       61.858     4320.327    10310.165     3826.387        1.334        0.923       35.057       67.139        3.668      348.348       27.978      860.544
09/01/2014  13:23:00       78.670       54.235       97.036       81.668      117.155       69.849     6669.710    13725.228     4878.929        2.191        1.264       95.553       78.296        0.671      348.016       27.402      860.530
09/01/2014  13:24:00      118.791      -87.616        6.292       84.931      109.952       71.367     7213.208    12089.418     5093.273        2.311        1.220      147.607       80.668        0.299      348.152       27.639      860.545
09/01/2014  13:25:00       82.138      -52.563       29.414       89.011      107.702       70.534     7922.922    11599.748     4975.020        1.743        1.225       97.517       52.834        0.294      348.024       27.418      860.551
09/01/2014  13:26:00       44.368       27.821       86.819       70.461      106.597       67.293     4964.710    11362.886     4528.306        1.556        1.043       52.369       72.164        1.899      348.285       27.869      860.539
09/01/2014  13:27:00       16.795      -41.923       -0.167       57.786       75.820       40.348     3339.214     5748.640     1627.968        0.638        0.536       45.162       42.619        0.891      348.154       27.643      860.531
09/01/2014  13:28:00      -99.512        8.393       -0.871       47.545       32.530       26.483     2260.494     1058.221      701.361        0.700        0.201       99.866       29.239        0.086      347.728       26.908      860.509
09/01/2014  13:29:00      -22.760        3.153       15.960       33.444       25.458       23.338     1118.499      648.093      544.672        0.155        0.116       22.977       20.867        0.825      348.503       28.247      860.500
09/01/2014  13:30:00      -31.498       34.817        5.245       44.394       67.309       53.241     1970.840     4530.437     2834.581        0.578        0.467       46.951       48.382        1.062      348.506       28.252      860.500
09/01/2014  13:31:00       11.113        8.723        2.722       24.778       38.507       27.060      613.946     1482.778      732.228        0.152        0.141       14.128       24.003        2.887      348.542       28.315      860.517
09/01/2014  13:32:00       14.858       62.406       57.984       39.763       38.858       32.404     1581.062     1509.957     1049.988        0.581        0.207       64.150       23.713        0.137      348.801       28.762      860.537
09/01/2014  13:33:00      189.862      115.176       36.783      117.950       99.873       74.102    13912.302     9974.677     5491.094        4.002        1.469      222.065       56.083        0.064      348.220       27.754      860.510
09/01/2014  13:34:00      157.711      104.053       19.065       71.335       54.719       36.046     5088.640     2994.158     1299.339        2.272        0.469      188.944       16.171        0.007      347.933       27.260      860.507
09/01/2014  13:35:00      158.367      139.592        6.499       89.222       64.031       50.708     7960.526     4099.929     2571.331        2.962        0.732      211.106       30.509        0.021      348.038       27.440      860.499
09/01/2014  13:36:00      150.957      104.681       14.257       59.454       46.712       47.362     3534.739     2182.024     2243.147        2.095        0.398      183.701       33.858        0.034      347.920       27.237      860.493
09/01/2014  13:37:00      167.292      102.242       12.161       72.088       51.959       54.029     5196.675     2699.784     2919.081        2.470        0.541      196.061       32.023        0.027      347.931       27.255      860.465
09/01/2014  13:38:00       62.307       71.037       10.209       63.564       51.958       42.114     4040.390     2699.590     1773.604        0.877        0.426       94.490       26.554        0.079      348.106       27.562      860.489
09/01/2014  13:39:00      129.762       92.894       24.584       64.415       61.735       52.273     4149.308     3811.234     2732.444        1.838        0.535      159.585       29.248        0.034      347.939       27.272      860.467
09/01/2014  13:40:00      171.617      113.463       41.152      116.260      107.808       84.040    13516.325    11622.484     7062.771        3.810        1.610      205.734       61.552        0.090      348.454       28.160      860.449
09/01/2014  13:41:00       33.426      -11.877        7.667       57.708       50.318       31.003     3330.218     2531.946      961.213        0.407        0.341       35.474       19.701        0.308      348.613       28.438      860.462
09/01/2014  13:42:00      239.082      102.069       43.082      114.658       79.664       77.300    13146.530     6346.399     5975.302        4.745        1.273      259.959       49.756        0.037      348.312       27.913      860.453
09/01/2014  13:43:00      213.409      132.356       85.089      126.315       86.650      107.377    15955.367     7508.284    11529.895        5.264        1.750      251.120       92.360        0.135      348.231       27.771      860.446
09/01/2014  13:44:00      151.932      123.012       90.864      118.358      109.007       86.530    14008.600    11882.418     7487.370        3.992        1.669      195.487       65.653        0.113      348.178       27.681      860.474
09/01/2014  13:45:00      117.561       92.928       84.570      103.130       72.379       48.991    10635.708     5238.779     2400.160        2.394        0.914      149.853       33.054        0.049      348.256       27.817      860.468
09/01/2014  13:46:00       32.523      -13.209       44.690       42.429       65.421       46.530     1800.220     4279.846     2165.025        0.574        0.412       35.104       33.088        0.888      348.242       27.796      860.456
09/01/2014  13:47:00       64.422       92.597       69.836       73.451       46.177       45.744     5395.076     2132.346     2092.468        1.361        0.481      112.803       41.344        0.134      347.973       27.329      860.438
09/01/2014  13:48:00        9.473       32.075       45.946       26.598       28.447       19.905      707.441      809.252      396.225        0.257        0.096       33.445       19.924        0.355      348.415       28.094      860.419
09/01/2014  13:49:00        6.748      -10.686       37.432       19.339       36.434       22.906      373.987     1327.445      524.684        0.189        0.111       12.638       11.732        0.862      348.575       28.370      860.402
09/01/2014  13:50:00       37.522       83.093      100.033       69.088       75.600       38.160     4773.119     5715.313     1456.222        1.513        0.597       91.172       38.805        0.181      348.526       28.286      860.391
09/01/2014  13:51:00       98.636       31.184       25.716       52.298       55.862       42.666     2735.083     3120.612     1820.373        0.952        0.384      103.448       18.387        0.032      348.123       27.590      860.397
09/01/2014  13:52:00       -9.379      -45.175       10.362       30.727       41.469       28.833      944.141     1719.649      831.345        0.286        0.175       46.138       23.068        0.250      348.208       27.735      860.368
09/01/2014  13:53:00       34.745       62.534      -10.670       53.160       59.114       34.760     2825.967     3494.493     1208.269        0.638        0.376       71.538       25.477        0.127      348.384       28.040      860.342
09/01/2014  13:54:00       32.219       87.796       -1.155       42.378       49.207       34.495     1795.908     2421.319     1189.904        0.708        0.270       93.521       28.835        0.095      348.321       27.933      860.324
09/01/2014  13:55:00       19.947       77.187        1.671       34.488       39.105       34.456     1189.434     1529.238     1187.230        0.513        0.195       79.723       21.696        0.074      348.293       27.881      860.311
09/01/2014  13:56:00        9.413       57.285        0.423       28.632       32.813       27.121      819.810     1076.669      735.530        0.300        0.132       58.053       22.108        0.145      348.333       27.952      860.307
09/01/2014  13:57:00       -9.596       53.821      -13.076       42.331       38.204       29.526     1791.945     1459.547      871.784        0.364        0.206       54.670       23.876        0.191      348.134       27.609      860.292
09/01/2014  13:58:00       19.948        9.573       31.661       33.425       54.315       34.461     1117.210     2950.157     1187.587        0.337        0.263       22.126       24.430        1.219      348.740       28.657      860.265
09/01/2014  13:59:00       77.965       15.197       54.538       50.150       34.813       39.917     2514.989     1211.947     1593.397        0.730        0.266       79.432       35.006        0.194      348.271       27.847      860.259
09/01/2014  14:00:00       51.457       46.227       55.737       42.376       36.700       30.271     1795.707     1346.875      916.325        0.597        0.203       69.172       20.969        0.092      348.248       27.806      860.240
09/01/2014  14:01:00       -3.636      -26.489       -5.751       36.885       26.328       26.841     1360.506      693.143      720.441        0.176        0.139       26.737       17.987        0.453      348.180       27.688      860.225
09/01/2014  14:02:00      -38.692       15.442       14.623       35.620       30.254       29.011     1268.762      915.291      841.666        0.249        0.151       41.659       26.259        0.397      348.725       28.632      860.217
09/01/2014  14:03:00      -40.652       14.468        9.690       29.192       20.268       23.499      852.150      410.795      552.209        0.189        0.091       43.150       19.013        0.194      349.158       29.381      860.199
09/01/2014  14:04:00       38.751       44.777       21.103       64.317       38.259       28.287     4136.684     1463.730      800.159        0.517        0.320       59.217       15.646        0.070      348.891       28.920      860.197
09/01/2014  14:05:00      -28.665      157.146      -25.757       72.871      114.624       34.567     5310.255    13138.630     1194.864        2.291        0.982      159.739       48.020        0.090      348.298       27.892      860.192
09/01/2014  14:06:00       99.482      119.467      -12.154       93.134       73.409       53.201     8673.978     5388.841     2830.395        2.060        0.845      155.464       31.690        0.042      348.493       28.228      860.174
09/01/2014  14:07:00       43.644      168.511      -23.608       60.913       74.827       38.475     3710.354     5599.013     1480.299        2.082        0.539      174.071       37.602        0.047      348.402       28.070      860.160
09/01/2014  14:08:00       43.751      138.140      -11.111       89.045       68.514       43.241     7928.948     4694.132     1869.771        1.780        0.725      144.903       36.113        0.062      348.341       27.965      860.146
09/01/2014  14:09:00      154.558       91.951       14.677       98.094       66.893       60.780     9622.498     4474.728     3694.190        2.517        0.890      179.842       26.840        0.022      348.488       28.219      860.139
09/01/2014  14:10:00       10.019       32.737       -5.361       39.128       27.146       23.045     1531.030      736.908      531.092        0.200        0.140       34.236        9.981        0.085      348.801       28.765      860.125
09/01/2014  14:11:00        0.314      -30.384       10.617       33.783       36.417       31.652     1141.321     1326.200     1001.873        0.225        0.173       30.386       19.494        0.412      349.001       29.108      860.114
09/01/2014  14:12:00       44.203       44.942       44.966       49.563       37.560       36.333     2456.490     1410.787     1320.062        0.559        0.259       63.037       20.743        0.108      349.076       29.237      860.107
09/01/2014  14:13:00      126.454       76.002       32.509       79.206       54.347       42.060     6273.563     2953.591     1769.071        1.691        0.550      147.536       44.148        0.090      348.720       28.622      860.079
09/01/2014  14:14:00      137.069       65.010       10.602       52.552       46.630       45.484     2761.664     2174.353     2068.778        1.506        0.350      151.704       11.921        0.006      348.389       28.049      860.069
09/01/2014  14:15:00       44.387       53.541       63.719       50.009       35.964       34.018     2500.889     1293.444     1157.205        0.692        0.248       69.548       25.165        0.131      348.841       28.832      860.058
09/01/2014  14:16:00       68.765       22.711       25.199       58.189       43.956       42.932     3385.974     1932.137     1843.180        0.652        0.358       72.418       22.321        0.095      348.681       28.556      860.054
09/01/2014  14:17:00        8.618       36.534       16.513       46.433       47.078       27.457     2155.986     2216.371      753.904        0.340        0.256       37.537       20.334        0.293      349.098       29.277      860.038
09/01/2014  14:18:00       25.012      -38.901       22.270       45.559       64.941       48.984     2075.644     4217.278     2399.448        0.566        0.435       46.248       41.519        0.806      349.101       29.281      860.016
09/01/2014  14:19:00       -0.375      -11.328       38.941       26.812       74.776       24.986      718.881     5591.455      624.285        0.429        0.347       11.335       22.423        3.914      348.888       28.912      860.001
09/01/2014  14:20:00       38.353      -21.295       18.957       47.291       49.064       32.054     2236.415     2407.283     1027.462        0.398        0.284       43.868       28.298        0.416      348.828       28.810      859.979
09/01/2014  14:21:00       28.215       13.339       38.631       39.420       48.879       23.960     1553.917     2389.119      574.074        0.349        0.226       31.209       25.931        0.690      349.100       29.281      859.974
09/01/2014  14:22:00       47.325       22.683        9.303       41.151       39.596       32.917     1693.425     1567.823     1083.546        0.359        0.217       52.480       14.722        0.079      348.971       29.056      859.961
09/01/2014  14:23:00      112.968       57.565       33.996      108.686       81.345       55.436    11812.717     6617.070     3073.104        1.936        1.075      126.789       30.295        0.057      349.209       29.470      859.952
09/01/2014  14:24:00      190.949      133.302       25.742      100.797       67.187       54.814    10160.022     4514.123     3004.540        3.628        0.884      232.876       39.254        0.028      348.591       28.396      859.961
09/01/2014  14:25:00      210.278      144.464       29.887       90.516       81.885       65.879     8193.164     6705.115     4340.042        4.261        0.962      255.121       40.645        0.025      348.457       28.164      859.949
09/01/2014  14:26:00      188.266      125.784       25.590       81.903       79.481       54.427     6708.107     6317.242     2962.278        3.395        0.799      226.420       17.203        0.006      348.619       28.444      859.941
09/01/2014  14:27:00      154.238      100.837       10.162       65.962       65.511       41.561     4350.970     4291.677     1727.315        2.221        0.518      184.275       37.824        0.042      348.471       28.190      859.929
09/01/2014  14:28:00      220.536      113.609       32.350       92.252       70.698       60.711     8510.500     4998.157     3685.879        3.989        0.860      248.079       51.759        0.044      348.695       28.576      859.909
09/01/2014  14:29:00      137.444       50.094       47.458      125.099       69.526       73.814    15649.866     4833.861     5448.502        2.479        1.297      146.288       53.076        0.132      348.728       28.634      859.894
09/01/2014  14:30:00      102.206       51.117       29.672       65.987      103.212       48.987     4354.329    10652.712     2399.738        1.567        0.870      114.276       30.145        0.070      348.828       28.808      859.874
09/01/2014  14:31:00      228.042      108.283       56.725      106.325       63.218       49.518    11304.963     3996.529     2452.047        4.235        0.888      252.445       41.386        0.027      348.622       28.449      859.866
09/01/2014  14:32:00      238.309      120.568       48.437      130.422       88.221       69.610    17009.893     7782.982     4845.559        5.165        1.482      267.073       24.815        0.009      348.502       28.242      859.833
09/01/2014  14:33:00      114.550       78.426       16.410       76.764       49.844       50.150     5892.757     2484.390     2515.065        1.521        0.545      138.825       33.061        0.057      348.687       28.563      859.823
09/01/2014  14:34:00       78.611      125.356        1.835       78.088       98.110       63.852     6097.784     9625.588     4077.109        2.084        0.990      147.966       67.597        0.209      348.701       28.587      859.810
09/01/2014  14:35:00       31.717      142.296      -11.334       49.896       70.067       46.090     2489.591     4909.342     2124.303        1.545        0.476      145.788       39.183        0.072      348.459       28.169      859.795
09/01/2014  14:36:00       85.521       63.644       52.318       67.936       58.590       53.044     4615.268     3432.803     2813.704        1.248        0.543      106.604       35.291        0.110      348.734       28.645      859.765
09/01/2014  14:37:00      131.289       92.560       48.634      104.558       62.639       69.000    10932.353     3923.695     4761.048        2.389        0.981      160.637       67.273        0.175      348.702       28.589      859.761
09/01/2014  14:38:00      197.045      132.942       78.815      132.590      116.078       93.093    17580.030    13474.165     8666.288        5.121        1.986      237.698       76.480        0.104      348.757       28.682      859.733
09/01/2014  14:39:00       87.828       79.182      127.192      127.865      101.149       75.536    16349.574    10231.149     5705.710        3.122        1.614      118.252       74.228        0.394      348.718       28.617      859.718
09/01/2014  14:40:00       51.731       41.287      104.465       72.356       99.840       70.309     5235.364     9968.006     4943.344        1.772        1.007       66.187       62.008        0.878      348.856       28.857      859.702
09/01/2014  14:41:00       15.546       59.718       81.154       32.114       39.945       21.766     1031.333     1595.593      473.770        0.675        0.155       61.708       20.089        0.106      348.658       28.515      859.697
09/01/2014  14:42:00      115.279       68.264       39.075       68.882       39.863       46.340     4744.668     1589.097     2147.431        1.398        0.424      133.974       36.022        0.072      348.559       28.343      859.677
09/01/2014  14:43:00      196.364       74.198       26.546       97.961       77.198       67.552     9596.260     5959.570     4563.222        3.244        1.006      209.914       42.878        0.042      348.788       28.737      859.662
09/01/2014  14:44:00      182.752      108.019       11.449       55.521       52.923       44.480     3082.574     2800.882     1978.448        2.653        0.393      212.289       30.407        0.021      348.574       28.367      859.664
09/01/2014  14:45:00      102.164        8.363       -7.243       59.738       45.245       32.328     3568.591     2047.117     1045.090        0.861        0.333      102.506       13.352        0.017      348.571       28.364      859.654
09/01/2014  14:46:00        1.486      -35.435        6.749       35.393       45.698       20.777     1252.696     2088.352      431.691        0.254        0.189       35.466       17.349        0.239      348.896       28.928      859.637
09/01/2014  14:47:00        9.650       77.808       -4.015       34.623       52.354       26.170     1198.779     2740.897      684.863        0.539        0.231       78.404       27.255        0.121      348.814       28.785      859.628
09/01/2014  14:48:00       34.471      103.103       -0.654       49.580       64.304       42.385     2458.202     4135.016     1796.481        1.010        0.419      108.713       41.208        0.144      348.670       28.535      859.623
09/01/2014  14:49:00      105.224       28.071       24.625       47.266       42.301       36.049     2234.066     1789.369     1299.533        0.889        0.266      108.904       25.750        0.056      348.760       28.691      859.614
09/01/2014  14:50:00       93.460       68.817       17.702       39.033       41.072       43.582     1523.612     1686.914     1899.424        0.945        0.255      116.063       30.960        0.071      348.612       28.435      859.609
09/01/2014  14:51:00       90.375       51.784      -17.396       57.509       44.794       31.425     3307.259     2006.485      987.548        0.873        0.315      104.159       24.285        0.054      348.598       28.411      859.603
09/01/2014  14:52:00      112.700       73.355       14.144       67.989       57.340       39.796     4622.462     3287.820     1583.719        1.389        0.475      134.470       39.490        0.086      348.728       28.634      859.590
09/01/2014  14:53:00       17.041       16.340       28.930       29.022       23.676       25.468      842.294      560.574      648.629        0.172        0.103       23.609       13.122        0.309      349.174       29.409      859.569
09/01/2014  14:54:00       56.794       12.605       28.045       59.831       29.416       27.430     3579.770      865.316      752.424        0.468        0.260       58.176       26.123        0.202      349.278       29.589      859.538
09/01/2014  14:55:00       86.069       47.949        6.231       82.565       62.075       51.753     6816.958     3853.357     2678.369        1.154        0.667       98.524       32.037        0.106      348.811       28.779      859.520
09/01/2014  14:56:00      178.626      135.073        7.155      143.793      103.335       62.634    20676.496    10678.162     3923.015        4.273        1.764      223.946       50.012        0.050      348.953       29.022      859.526
09/01/2014  14:57:00       94.512      154.159        4.278       98.122      129.218       75.435     9627.855    16697.179     5690.384        3.236        1.601      180.824       71.766        0.158      348.896       28.924      859.516
09/01/2014  14:58:00       53.113      196.044      -10.692       78.833      112.148       59.607     6214.571    12577.197     3552.937        3.185        1.117      203.112       61.550        0.092      348.715       28.611      859.513
09/01/2014  14:59:00       34.033      191.691       -9.731       85.752      124.355       64.471     7353.426    15464.210     4156.524        3.248        1.349      194.689       69.155        0.126      348.983       29.076      859.497
09/01/2014  15:00:00       61.190      212.650      -20.905       82.248      110.914       68.424     6764.729    12301.835     4681.882        3.657        1.187      221.278       66.966        0.092      348.900       28.930      859.492
09/01/2014  15:01:00       29.905      195.068      -21.831       62.868      100.207       52.800     3952.343    10041.500     2787.855        2.810        0.839      197.347       56.737        0.083      348.786       28.732      859.485
09/01/2014  15:02:00       38.970      184.320      -29.691       44.829       58.043       30.683     2009.646     3368.946      941.445        2.135        0.316      188.395       28.636        0.023      348.613       28.434      859.473
09/01/2014  15:03:00      -47.672       56.054        1.553       45.967       48.132       32.765     2112.966     2316.670     1073.545        0.546        0.275       73.584       30.788        0.175      349.199       29.453      859.453
09/01/2014  15:04:00       42.567       34.130       21.883       27.126       16.480       24.726      735.811      271.601      611.369        0.254        0.081       54.560       14.549        0.071      349.188       29.433      859.436
09/01/2014  15:05:00        5.968       12.441        6.908       27.959       43.897       31.154      781.696     1926.945      970.568        0.196        0.184       13.798       15.269        1.225      349.241       29.524      859.416
09/01/2014  15:06:00      126.023     -101.921       21.901       97.982       50.229       42.045     9600.541     2522.941     1767.811        2.032        0.695      162.079       46.705        0.083      348.881       28.900      859.405
09/01/2014  15:07:00       71.741       64.857      115.426       81.603       79.719       71.785     6659.097     6355.048     5153.071        2.042        0.908       96.712       70.450        0.531      348.923       28.972      859.390
09/01/2014  15:08:00       66.739      -34.704       35.768       66.037      106.612       69.227     4360.841    11366.084     4792.412        1.372        1.026       75.223       65.218        0.752      348.802       28.763      859.379
09/01/2014  15:09:00       20.198       78.285       83.226       62.953       63.780       61.668     3963.060     4067.911     3802.925        1.265        0.592       80.849       41.969        0.269      349.292       29.612      859.344
09/01/2014  15:10:00       83.412       55.382       86.604       61.400       89.077       60.918     3769.968     7934.627     3711.004        1.647        0.771      100.123       63.021        0.396      348.878       28.895      859.340
09/01/2014  15:11:00       51.286      -13.886       48.681       49.099       65.269       48.706     2410.663     4260.021     2372.253        0.712        0.452       53.133       52.796        0.987      348.794       28.750      859.330
09/01/2014  15:12:00       55.601      -93.228       18.187       58.553       76.512       55.643     3428.479     5854.027     3096.138        1.224        0.619      108.549       52.317        0.232      349.012       29.127      859.305
09/01/2014  15:13:00      -14.928        1.522       17.087       75.820       59.289       37.594     5748.746     3515.188     1413.327        0.560        0.534       15.005       34.706        5.350      349.216       29.480      859.290
09/01/2014  15:14:00      -32.029        3.930        4.241       45.951       55.788       27.954     2111.452     3112.339      781.448        0.353        0.300       32.270       20.031        0.385      349.486       29.951      859.261
09/01/2014  15:15:00       40.116       27.158       27.030       39.066       40.214       31.956     1526.186     1617.179     1021.157        0.362        0.208       48.444       13.825        0.081      349.271       29.576      859.254
09/01/2014  15:16:00      104.807       40.161       31.287       81.281       56.891       44.945     6606.664     3236.629     2020.072        1.272        0.593      112.238       32.830        0.086      349.077       29.239      859.242
09/01/2014  15:17:00      118.445      108.999       14.446       83.301       62.393       53.260     6939.021     3892.849     2836.594        1.989        0.683      160.966       26.623        0.027      349.002       29.109      859.241
09/01/2014  15:18:00      184.733      112.837       17.519       69.092       55.281       45.525     4773.636     3056.035     2072.550        2.853        0.495      216.468       29.580        0.019      348.918       28.960      859.240
09/01/2014  15:19:00       68.967       53.426        0.192       79.090       39.538       31.547     6255.279     1563.226      995.196        0.821        0.441       87.239       27.029        0.096      348.859       28.861      859.229
09/01/2014  15:20:00       -5.828      130.276      -24.367       35.891       52.552       24.456     1288.144     2761.724      598.118        1.112        0.232      130.406       27.480        0.044      348.983       29.079      859.209
09/01/2014  15:21:00       64.992      105.244        4.674       77.176       59.010       39.554     5956.207     3482.166     1564.542        1.316        0.550      123.694       32.039        0.067      348.928       28.982      859.185
09/01/2014  15:22:00      157.921       80.276       19.900      105.533       64.308       45.725    11137.294     4135.514     2090.767        2.457        0.868      177.153       30.829        0.030      349.041       29.176      859.170
09/01/2014  15:23:00       95.589       85.955       26.789       82.731       53.182       49.331     6844.407     2828.329     2433.580        1.467        0.605      128.552       38.807        0.091      349.197       29.446      859.164
09/01/2014  15:24:00       95.573       80.458        7.998       61.061       46.335       43.418     3728.480     2146.915     1885.113        1.171        0.388      124.931       18.192        0.021      349.055       29.202      859.167
09/01/2014  15:25:00       17.665       31.837        2.329       37.459       36.190       22.758     1403.159     1309.724      517.912        0.228        0.162       36.410       13.155        0.131      349.207       29.466      859.147
09/01/2014  15:26:00      -19.588      110.510       -6.381       34.715       38.902       27.037     1205.132     1513.364      730.975        0.804        0.172      112.233       18.684        0.028      349.197       29.447      859.121
09/01/2014  15:27:00      -67.840      164.599      -21.377       63.827       66.559       39.303     4073.909     4430.060     1544.709        2.110        0.502      178.031       37.430        0.044      349.164       29.389      859.119
09/01/2014  15:28:00      -84.267       63.583      -19.392       38.807       46.929       25.150     1505.955     2202.339      632.536        0.793        0.217      105.564       20.446        0.038      349.215       29.479      859.108
09/01/2014  15:29:00     -101.675       64.615      -22.365       59.099       51.823       29.607     3492.739     2685.598      876.551        1.103        0.353      120.470       31.994        0.071      349.133       29.338      859.102
09/01/2014  15:30:00      -74.026       18.887      -14.709       70.760       67.055       26.423     5006.945     4496.353      698.169        0.813        0.510       76.397       22.697        0.088      349.256       29.550      859.089
09/01/2014  15:31:00      -76.515       52.171      -12.607       56.796       66.254       32.617     3225.825     4389.648     1063.891        0.871        0.434       92.609       40.802        0.194      349.679       30.284      859.085
09/01/2014  15:32:00      -62.709       82.613       -4.439       57.096       49.798       33.513     3259.922     2479.838     1123.093        0.882        0.343      103.718       19.928        0.037      349.317       29.656      859.067
09/01/2014  15:33:00      -76.567       26.044      -31.828       52.558       22.570       17.682     2762.352      509.425      312.636        0.557        0.179       80.875       18.076        0.050      348.971       29.057      859.065
09/01/2014  15:34:00       32.291       19.662      -12.414       30.312       20.066       22.384      918.794      402.659      501.022        0.170        0.091       37.806        9.779        0.067      349.038       29.173      859.072
09/01/2014  15:35:00       89.144      -12.687        9.925       23.901       26.412       27.576      571.238      697.619      760.462        0.512        0.101       90.042        8.772        0.009      348.919       28.965      859.078
09/01/2014  15:36:00       15.330       20.454       -5.634       38.402       17.011       19.627     1474.689      289.369      385.212        0.142        0.107       25.561        8.665        0.115      349.024       29.148      859.071
09/01/2014  15:37:00       18.974      -22.347      -12.986       40.697       26.496       18.172     1656.228      702.019      330.235        0.186        0.134       29.315       18.333        0.391      349.266       29.568      859.051
09/01/2014  15:38:00       88.117     -124.818      -15.605       73.395       36.211       20.105     5386.884     1311.237      404.221        1.534        0.355      152.788       22.118        0.021      349.083       29.250      859.043
09/01/2014  15:39:00       13.732       -4.286       42.140       51.378       55.732       37.726     2639.741     3106.101     1423.270        0.457        0.358       14.386       38.027        6.988      349.363       29.735      859.037
09/01/2014  15:40:00      -29.476      -20.213       34.796       81.591       85.091       64.989     6657.059     7240.415     4223.634        1.030        0.906       35.741       55.968        2.452      349.795       30.484      859.004
09/01/2014  15:41:00       75.504       39.403       69.965       78.651       63.696       52.679     6185.976     4057.148     2775.088        1.258        0.651       85.167       48.248        0.321      349.501       29.975      859.003
09/01/2014  15:42:00       48.701        2.210       68.684       78.856       96.743       61.654     6218.313     9359.161     3801.223        1.323        0.969       48.751       64.622        1.757      349.470       29.920      859.009
09/01/2014  15:43:00       86.235      -54.669       45.512       81.072      138.220       85.119     6572.599    19104.679     7245.216        2.270        1.646      102.104       84.735        0.689      349.388       29.778      858.995
09/01/2014  15:44:00      102.119       93.732      111.427      124.012       83.967       67.576    15378.933     7050.448     4566.479        2.931        1.350      138.615       54.528        0.155      349.400       29.800      858.986
09/01/2014  15:45:00      121.787      133.635      123.096      103.756       97.222       70.655    10765.277     9452.155     4992.155        3.652        1.260      180.805       61.924        0.117      349.004       29.110      858.984
09/01/2014  15:46:00       60.883       -6.264       18.605       89.152       78.177       48.964     7948.078     6111.698     2397.470        1.027        0.823       61.205       29.525        0.233      349.335       29.687      858.982
09/01/2014  15:47:00       34.866      -92.787      -15.573       37.596       51.858       28.506     1413.443     2689.260      812.592        0.749        0.246       99.122       21.331        0.046      349.089       29.260      858.992
09/01/2014  15:48:00       67.178      -63.956       16.573       74.775       81.870       39.372     5591.350     6702.686     1550.116        1.136        0.692       92.754       37.605        0.164      349.403       29.805      858.959
09/01/2014  15:49:00       56.179      -62.141       47.883       66.993      128.995       68.924     4488.046    16639.736     4750.485        1.759        1.294       83.771       80.521        0.924      349.552       30.063      858.930
09/01/2014  15:50:00      118.394     -234.323      -27.533       91.421       66.899       46.640     8357.807     4475.472     2175.322        4.234        0.750      262.534       41.920        0.025      349.318       29.656      858.922
09/01/2014  15:51:00      223.244     -279.118      -49.423       64.983       71.952       38.817     4222.842     5177.038     1506.787        7.054        0.545      357.414       32.555        0.008      349.033       29.163      858.904
09/01/2014  15:52:00      123.156     -114.243       12.479       97.832      101.130       56.238     9571.015    10227.205     3162.749        2.566        1.148      167.984       65.369        0.151      349.410       29.814      858.906
09/01/2014  15:53:00      145.334     -138.061      -13.240       77.215       87.094       53.819     5962.196     7585.383     2896.513        2.840        0.822      200.457       62.073        0.096      349.308       29.636      858.903
09/01/2014  15:54:00       77.543      -41.567       40.327       69.767       95.687       50.639     4867.401     9156.008     2564.332        1.297        0.829       87.982       62.552        0.505      349.370       29.748      858.899
09/01/2014  15:55:00      109.155     -126.128        1.320       50.903       95.921       48.980     2591.082     9200.932     2399.006        2.101        0.710      166.802       58.613        0.123      349.118       29.310      858.882
09/01/2014  15:56:00       94.353       13.305       23.934       63.492       77.328       51.757     4031.222     5979.637     2678.793        1.117        0.634       95.286       37.897        0.158      349.217       29.482      858.878
09/01/2014  15:57:00      119.103      -70.604       22.590       59.718       92.556       68.563     3566.213     8566.679     4700.895        1.825        0.842      138.457       70.475        0.259      349.239       29.520      858.871
09/01/2014  15:58:00      133.208     -125.293      -19.728       53.195       74.363       55.412     2829.723     5529.861     3070.501        2.263        0.572      182.874       56.918        0.097      349.167       29.393      858.872
09/01/2014  15:59:00       81.925     -124.474      -12.558       52.725       47.881       28.744     2779.941     2292.623      826.216        1.413        0.295      149.015       27.575        0.034      349.002       29.107      858.876
09/01/2014  16:00:00      102.325      -62.125       17.876       58.915       83.722       39.651     3470.924     7009.335     1572.171        1.335        0.603      119.708       36.523        0.093      349.226       29.497      858.858
09/01/2014  16:01:00      106.118     -171.713       -1.325       50.565       69.234       40.662     2556.870     4793.342     1653.375        2.487        0.450      201.858       28.871        0.020      349.113       29.299      858.847
09/01/2014  16:02:00       51.322      -21.043       31.203       57.237       61.224       50.147     3276.110     3748.410     2514.672        0.679        0.477       55.469       49.952        0.811      349.247       29.534      858.850
09/01/2014  16:03:00       69.408        7.021       61.875       61.043       92.632       57.067     3726.213     8580.696     3256.588        1.213        0.778       69.763       59.262        0.722      349.429       29.849      858.853
09/01/2014  16:04:00       43.784      -41.380       36.856       54.463       64.792       48.669     2966.176     4198.006     2368.650        0.726        0.477       60.244       36.886        0.375      349.575       30.104      858.831
09/01/2014  16:05:00       61.875      -88.039        7.896       54.126       62.389       42.232     2929.648     3892.409     1783.581        1.012        0.430      107.607       38.234        0.126      349.534       30.033      858.835
09/01/2014  16:06:00       21.535       62.000       82.599       40.061       82.341       59.310     1604.892     6780.035     3517.652        1.151        0.595       65.634       58.708        0.800      349.454       29.893      858.827
09/01/2014  16:07:00       35.419      -85.916       10.081       40.402       56.275       38.504     1632.337     3166.925     1482.553        0.751        0.314       92.930       33.819        0.132      349.535       30.034      858.816
09/01/2014  16:08:00       -4.680       -2.886       56.062       33.439       57.851       39.098     1118.169     3346.695     1528.676        0.458        0.300        5.499       32.799       35.583      349.827       30.542      858.801
09/01/2014  16:09:00       79.519      -94.400        0.555       56.798       59.407       35.507     3226.001     3529.246     1260.761        1.162        0.401      123.429       23.587        0.037      349.613       30.167      858.789
09/01/2014  16:10:00        3.112      -89.878        6.375       63.036       61.271       37.161     3973.590     3754.185     1380.937        0.862        0.455       89.932       20.836        0.054      349.603       30.153      858.786
09/01/2014  16:11:00       23.906      -63.347       29.965       91.881       96.544       45.911     8442.160     9320.801     2107.826        1.267        0.994       67.708       53.731        0.630      349.421       29.836      858.781
09/01/2014  16:12:00      -26.542        2.877       23.308       35.005       46.650       34.907     1225.327     2176.197     1218.505        0.294        0.231       26.698       32.541        1.486      349.762       30.429      858.783
09/01/2014  16:13:00      -10.123       98.104        0.726       39.371       53.881       32.517     1550.096     2903.166     1057.365        0.762        0.276       98.625       35.741        0.131      349.531       30.028      858.805
09/01/2014  16:14:00      -67.744       54.862      -22.302       47.626       61.776       20.715     2268.217     3816.222      429.125        0.730        0.326       87.172       12.145        0.019      349.368       29.744      858.786
09/01/2014  16:15:00      -10.089       12.939       23.813       59.981       28.880       35.227     3597.709      834.073     1240.908        0.325        0.284       16.407       39.367        5.757      349.603       30.153      858.772
09/01/2014  16:16:00      125.382       94.217       67.357       90.309       56.034       62.932     8155.787     3139.754     3960.480        2.219        0.763      156.836       55.248        0.124      349.428       29.846      858.773
09/01/2014  16:17:00      147.473       93.063      102.852      106.977       91.432       70.922    11444.039     8359.810     5029.916        3.291        1.242      174.382       60.016        0.118      349.449       29.881      858.772
09/01/2014  16:18:00       13.739       83.267      102.185       47.272       67.149       50.535     2234.672     4509.021     2553.832        1.343        0.465       84.393       40.312        0.228      349.553       30.065      858.770
09/01/2014  16:19:00      100.670       58.115       47.103       75.056       85.098       52.029     5633.452     7241.592     2707.038        1.565        0.779      116.241       38.943        0.112      349.505       29.981      858.779
09/01/2014  16:20:00      181.043      105.219       26.926      104.191       77.297       66.829    10855.820     5974.864     4466.157        3.293        1.065      209.398       45.111        0.046      349.487       29.947      858.784
09/01/2014  16:21:00      163.989      112.800       24.196       88.533       58.765       57.646     7838.141     3453.330     3323.039        2.741        0.731      199.038       42.944        0.047      349.338       29.690      858.781
09/01/2014  16:22:00      174.141      124.011       26.703       82.128       58.504       60.824     6744.944     3422.766     3699.564        3.014        0.693      213.784       35.736        0.028      349.351       29.713      858.779
09/01/2014  16:23:00      109.480       53.971        3.852       85.540       71.690       46.061     7317.163     5139.505     2121.598        1.474        0.729      122.061       25.676        0.044      349.608       30.160      858.791
09/01/2014  16:24:00       70.090      122.256       -9.449       97.338       87.174       54.092     9474.593     7599.281     2925.956        1.997        1.000      140.922       52.960        0.141      349.456       29.895      858.785
09/01/2014  16:25:00       20.187       90.786       -8.518       69.408       63.546       32.854     4817.528     4038.132     1079.354        0.933        0.497       93.003       33.267        0.128      349.469       29.918      858.791
09/01/2014  16:26:00      -39.262      120.503      -16.184       32.972       50.524       25.437     1087.183     2552.719      647.053        1.030        0.214      126.738       29.805        0.055      349.343       29.701      858.784
09/01/2014  16:27:00      -16.973       64.996      -20.356       17.269       30.759        9.596      298.211      946.111       92.091        0.313        0.067       67.176       13.719        0.042      349.233       29.510      858.783
09/01/2014  16:28:00      -50.996       22.160      -19.002       36.236       22.641       17.219     1313.082      512.637      296.483        0.279        0.106       55.603       18.051        0.105      349.595       30.138      858.767
09/01/2014  16:29:00      -68.188       -3.203      -23.993       26.357       18.841       25.888      694.694      354.982      670.199        0.348        0.086       68.263        9.745        0.020      349.477       29.935      858.749
09/01/2014  16:30:00     -121.476      -40.273       -6.382       48.902       38.595       23.702     2391.412     1489.594      561.772        1.043        0.222      127.977       11.998        0.009      349.731       30.376      858.720
09/01/2014  16:31:00     -103.000      -22.448        2.910       48.326       26.291       24.297     2335.421      691.237      590.361        0.737        0.181      105.418       24.368        0.053      349.633       30.204      858.723
09/01/2014  16:32:00       18.455       27.710       16.162       28.223       21.356       15.237      796.547      456.066      232.152        0.143        0.074       33.293       10.577        0.101      349.617       30.177      858.738
09/01/2014  16:33:00       49.076       68.358       -2.407       52.453       36.920       22.917     2751.333     1363.077      525.183        0.586        0.232       84.150       17.169        0.042      349.514       29.998      858.739
09/01/2014  16:34:00       64.754       82.715        4.649       71.100       46.973       36.436     5055.272     2206.434     1327.557        0.982        0.429      105.047       29.764        0.080      349.551       30.061      858.733
09/01/2014  16:35:00       62.906       26.543       13.679       88.983       45.164       47.423     7918.008     2039.780     2248.956        0.853        0.610       68.277       29.269        0.184      349.617       30.175      858.728
09/01/2014  16:36:00       55.653      -43.947       17.113       60.676       98.464       57.807     3681.549     9695.111     3341.600        1.102        0.836       70.913       66.026        0.867      349.644       30.223      858.717
09/01/2014  16:37:00       34.252      -56.488       10.567       41.723       40.430       32.788     1740.783     1634.616     1075.043        0.446        0.223       66.061       28.867        0.191      349.808       30.509      858.719
09/01/2014  16:38:00       19.019      -65.783      -22.149       42.293       34.550       25.739     1788.736     1193.683      662.495        0.441        0.182       68.477       22.111        0.104      349.551       30.061      858.707
09/01/2014  16:39:00        4.267       -4.448        1.298       31.632       27.212       16.588     1000.605      740.483      275.152        0.103        0.101        6.164        9.738        2.496      349.611       30.166      858.709
09/01/2014  16:40:00        3.002       11.037        7.311       15.524       13.787       14.849      240.981      190.084      220.479        0.042        0.033       11.438        8.885        0.603      349.431       29.854      858.705
09/01/2014  16:41:00       -1.223       69.959      -11.486       33.636       42.802       23.432     1131.397     1832.028      549.073        0.427        0.176       69.969       19.836        0.080      349.409       29.816      858.712
09/01/2014  16:42:00       57.908       53.884       -2.113       55.027       35.512       29.803     3028.018     1261.083      888.233        0.572        0.259       79.100       19.251        0.059      349.443       29.874      858.701
09/01/2014  16:43:00      117.944       91.374       11.775       68.399       54.021       45.656     4678.482     2918.270     2084.445        1.604        0.484      149.197       32.303        0.047      349.433       29.857      858.685
09/01/2014  16:44:00       42.000       75.290       -3.944       58.147       48.709       34.195     3381.106     2372.544     1169.324        0.718        0.346       86.213       19.014        0.049      349.441       29.870      858.680
09/01/2014  16:45:00       -7.831       19.623       -8.400       19.388       29.877       15.946      375.889      892.662      254.265        0.102        0.076       21.128       11.094        0.276      349.527       30.020      858.660
09/01/2014  16:46:00      -48.058       28.094       -0.858       51.514       26.281       21.826     2653.681      690.693      476.366        0.346        0.191       55.667        9.095        0.027      349.609       30.160      858.644
09/01/2014  16:47:00      -68.892       -3.144       -3.341       30.364       32.118       24.896      921.948     1031.552      619.833        0.367        0.129       68.964       13.164        0.036      349.543       30.046      858.638
09/01/2014  16:48:00      -22.065        1.300       18.777       51.261       29.651       22.040     2627.639      879.153      485.762        0.242        0.200       22.103       20.322        0.845      350.040       30.912      858.612
09/01/2014  16:49:00       31.428      -77.135      -10.608       47.571       40.522       24.496     2263.018     1642.063      600.066        0.578        0.225       83.292       11.214        0.018      349.611       30.165      858.608
09/01/2014  16:50:00       32.601      -45.826        2.354       45.044       73.609       33.602     2028.961     5418.303     1129.093        0.587        0.429       56.239       24.823        0.195      349.496       29.967      858.600
09/01/2014  16:51:00        1.004      -37.463       15.414       40.449       76.429       43.978     1636.082     5841.468     1934.097        0.552        0.471       37.476       47.713        1.621      349.727       30.367      858.599
09/01/2014  16:52:00       27.048      -66.105       28.481       41.374       94.186       42.942     1711.783     8870.999     1844.019        0.917        0.621       71.424       36.174        0.257      349.584       30.120      858.605
09/01/2014  16:53:00       26.866      -68.332      -14.859       63.985       78.411       35.869     4094.078     6148.218     1286.603        0.857        0.576       73.424       33.047        0.203      349.428       29.849      858.626
09/01/2014  16:54:00      -50.969      -73.680      -25.836       37.426       39.617       26.570     1400.734     1569.523      705.949        0.618        0.184       89.591       24.746        0.076      349.465       29.914      858.606
09/01/2014  16:55:00       26.530     -107.744       -8.993       43.660       48.486       26.976     1906.204     2350.908      727.730        0.869        0.249      110.962       28.190        0.065      349.575       30.103      858.587
09/01/2014  16:56:00        1.604       20.114        6.740       21.423       49.734       29.529      458.944     2473.464      871.952        0.213        0.190       20.178       30.921        2.348      349.625       30.190      858.567
09/01/2014  16:57:00       11.234       69.148        4.573       28.839       26.317       20.172      831.694      692.606      406.916        0.343        0.097       70.054       15.965        0.052      349.523       30.013      858.576
09/01/2014  16:58:00      140.613       60.119       20.376       94.273       73.957       58.749     8887.319     5469.661     3451.498        2.080        0.890      152.925       47.760        0.098      349.569       30.090      858.587
09/01/2014  16:59:00      203.415       97.839       15.858       63.293       45.125       40.458     4005.951     2036.285     1636.882        2.944        0.384      225.721       32.094        0.020      349.359       29.726      858.602
09/01/2014  17:00:00       87.494       48.337      -13.194       36.039       49.106       28.186     1298.805     2411.416      794.478        0.733        0.225       99.959       21.916        0.048      349.356       29.725      858.605
09/01/2014  17:01:00       81.994       89.065       13.717       59.808       35.763       36.613     3577.021     1278.974     1340.480        1.052        0.310      121.060       20.495        0.029      349.429       29.849      858.578
09/01/2014  17:02:00       46.657       91.489       -0.371       68.074       34.056       38.479     4634.097     1159.790     1480.627        0.891        0.364      102.699       25.211        0.060      349.555       30.069      858.580
09/01/2014  17:03:00       85.845       92.038        9.268       56.710       59.014       41.776     3216.028     3482.662     1745.221        1.218        0.422      125.859       33.412        0.070      349.600       30.147      858.576
09/01/2014  17:04:00      119.179       80.806       16.592       58.328       52.411       39.617     3402.112     2746.868     1569.531        1.436        0.386      143.991       16.941        0.014      349.624       30.187      858.583
09/01/2014  17:05:00       80.074      165.532       -9.904      105.039       74.252       45.537    11033.203     5513.338     2073.643        2.626        0.931      183.882       49.788        0.073      349.532       30.026      858.583
09/01/2014  17:06:00       62.396      102.930      -20.814       78.901       69.118       40.433     6225.424     4777.306     1634.845        1.378        0.632      120.365       43.177        0.129      349.388       29.777      858.583
09/01/2014  17:07:00       60.374      143.868      -14.916       42.007       74.744       47.289     1764.565     5586.620     2236.287        1.707        0.479      156.022       49.140        0.099      349.325       29.670      858.584
09/01/2014  17:08:00      -12.408       29.442        6.407       70.018       42.262       26.169     4902.533     1786.090      684.840        0.422        0.369       31.949       31.556        0.976      349.821       30.532      858.570
09/01/2014  17:09:00      -55.498       66.301       -8.861       25.344       31.334       23.053      642.319      981.845      531.446        0.485        0.108       86.463        9.347        0.012      349.772       30.446      858.566
09/01/2014  17:10:00      -48.518      176.878      -28.561       39.132       57.354       29.438     1531.329     3289.485      866.582        2.007        0.284      183.412       27.673        0.023      349.486       29.947      858.560
09/01/2014  17:11:00       15.473      180.220      -30.988       30.299       40.233       21.811      918.004     1618.687      475.717        1.835        0.151      180.883       20.838        0.013      349.415       29.826      858.559
09/01/2014  17:12:00       26.873       48.532      -12.640       24.636       44.423       20.460      606.937     1973.393      418.615        0.312        0.150       55.476       22.170        0.160      349.487       29.952      858.553
09/01/2014  17:13:00       21.568      -39.644       -0.652       16.164       39.256       22.679      261.266     1541.055      514.359        0.218        0.116       45.132       13.639        0.091      349.650       30.232      858.537
09/01/2014  17:14:00       13.923      -73.860       -3.999       46.593       35.338       23.375     2170.867     1248.789      546.385        0.481        0.198       75.161       21.642        0.083      349.690       30.304      858.525
09/01/2014  17:15:00       66.778     -174.391      -21.461       31.784       38.229       26.970     1010.252     1461.483      727.357        1.926        0.160      186.739       11.279        0.004      349.537       30.037      858.514
09/01/2014  17:16:00       54.542      -91.952      -10.191       30.645       62.601       27.319      939.115     3918.914      746.303        0.857        0.280      106.911       32.829        0.094      349.454       29.893      858.515
09/01/2014  17:17:00       35.129      -81.918      -12.336       19.998       22.384       14.828      399.930      501.048      219.873        0.461        0.056       89.132        9.341        0.011      349.558       30.074      858.496
09/01/2014  17:18:00      -13.294       18.264        2.276       34.389       31.916       18.779     1182.593     1018.660      352.635        0.153        0.128       22.590       15.725        0.485      349.676       30.279      858.491
09/01/2014  17:19:00       -7.291       59.983       12.587       19.038       30.689       21.305      362.442      941.835      453.911        0.278        0.088       60.424       18.934        0.098      349.557       30.073      858.491
09/01/2014  17:20:00       -8.918       26.777       -1.249       33.824       39.946       20.226     1144.039     1595.694      409.084        0.197        0.157       28.223       17.056        0.365      349.582       30.116      858.490
09/01/2014  17:21:00      -37.826       95.351      -28.163       15.749       18.338       10.748      248.024      336.294      115.522        0.601        0.035      102.580        2.482        0.001      349.455       29.894      858.486
09/01/2014  17:22:00      -12.580       57.213       -3.178       16.588       19.041       19.732      275.172      362.556      389.366        0.223        0.051       58.580       16.872        0.083      349.532       30.032      858.468
09/01/2014  17:23:00       15.832      118.857      -12.188       26.839       37.027       16.147      720.313     1371.031      260.727        0.844        0.118      119.906       18.380        0.023      349.521       30.010      858.459
09/01/2014  17:24:00       -4.862      100.678      -12.622       18.953       20.561       12.790      359.216      422.764      163.573        0.563        0.047      100.795        7.800        0.006      349.608       30.160      858.450
09/01/2014  17:25:00        8.584       38.018      -17.739       24.158       28.802       13.256      583.601      829.557      175.710        0.171        0.079       38.975       11.945        0.094      349.732       30.374      858.436
09/01/2014  17:26:00       16.774       24.154        0.747       19.491       27.831       19.952      379.888      774.577      398.078        0.121        0.078       29.407       16.333        0.308      349.630       30.198      858.426
09/01/2014  17:27:00       22.054       62.151      -12.667       23.272       25.293       13.486      541.572      639.740      181.868        0.294        0.068       65.948       13.334        0.041      349.517       30.003      858.413
09/01/2014  17:28:00       34.608       -0.721        1.873       13.448       21.321       15.772      180.858      454.599      248.740        0.104        0.044       34.616        9.336        0.073      349.602       30.150      858.397
09/01/2014  17:29:00       24.199      -30.296        7.004       32.610       43.831       25.506     1063.385     1921.126      650.558        0.259        0.182       38.775       21.574        0.310      349.468       29.919      858.383
09/01/2014  17:30:00      132.250     -140.538      -10.065       66.472       68.377       41.780     4418.462     4675.479     1745.548        2.409        0.542      192.979       42.388        0.048      349.608       30.159      858.361
09/01/2014  17:31:00       65.340     -133.685       -1.065       48.347       71.792       40.173     2337.456     5154.123     1613.897        1.562        0.455      148.799       47.702        0.103      349.533       30.031      858.347
09/01/2014  17:32:00      126.573     -158.382      -23.913       52.221       46.795       31.681     2727.062     2189.778     1003.684        2.380        0.296      202.745       32.205        0.025      349.542       30.045      858.345
09/01/2014  17:33:00       30.086      -42.744       33.799       40.176       62.766       35.246     1614.124     3939.534     1242.245        0.533        0.340       52.271       37.669        0.519      349.744       30.397      858.336
09/01/2014  17:34:00       34.166      -72.402       -4.356       23.570       31.220       21.334      555.567      974.698      455.138        0.421        0.099       80.059       12.376        0.024      349.628       30.195      858.332
09/01/2014  17:35:00       55.875      -31.257       20.750       43.725       51.981       35.782     1911.891     2701.987     1280.372        0.521        0.295       64.023       33.007        0.266      349.468       29.918      858.328
09/01/2014  17:36:00       60.434     -128.892       -4.380       61.370       89.455       32.934     3766.307     8002.238     1084.652        1.657        0.643      142.356       35.754        0.063      349.707       30.331      858.323
09/01/2014  17:37:00      151.905     -234.175      -27.938       68.374       51.308       37.391     4674.970     2632.528     1398.113        4.370        0.435      279.129       27.404        0.010      349.560       30.074      858.312
09/01/2014  17:38:00      118.429     -176.278      -21.432       63.246       77.043       38.566     3999.999     5935.594     1487.339        2.849        0.571      212.366       31.030        0.021      349.602       30.149      858.322
09/01/2014  17:39:00       94.966     -118.903       17.301       63.590       72.289       43.399     4043.671     5225.690     1883.440        1.730        0.558      152.173       46.303        0.093      349.610       30.164      858.331
09/01/2014  17:40:00      102.871     -122.585        6.298       62.353       79.462       48.466     3887.835     6314.268     2348.941        1.910        0.628      160.030       42.037        0.069      349.807       30.505      858.324
09/01/2014  17:41:00       32.800      -41.141       44.066       54.262       92.057       48.491     2944.346     8474.471     2351.361        0.924        0.689       52.615       57.434        1.192      349.690       30.302      858.325
09/01/2014  17:42:00       85.180      -82.324        7.896       71.092      102.755       59.566     5054.124    10558.489     3548.064        1.662        0.958      118.460       68.188        0.331      349.588       30.124      858.326
09/01/2014  17:43:00       50.157        5.351       29.254       50.782       40.449       32.094     2578.855     1636.128     1029.994        0.432        0.262       50.442       23.613        0.219      349.585       30.121      858.318
09/01/2014  17:44:00       56.305     -101.242        1.810       42.077       45.866       40.838     1770.492     2103.666     1667.704        0.948        0.277      115.846       30.106        0.068      349.550       30.061      858.310
09/01/2014  17:45:00       66.516     -156.749       -9.169       37.097       40.185       34.754     1376.185     1614.857     1207.869        1.664        0.210      170.278       11.055        0.004      349.555       30.067      858.318
09/01/2014  17:46:00       39.163     -112.488       -2.095       40.540       41.363       29.174     1643.501     1710.924      851.105        0.920        0.210      119.110       19.741        0.027      349.640       30.218      858.318
09/01/2014  17:47:00        8.245       -4.248       40.416       31.588       34.936       23.266      997.782     1220.529      541.320        0.224        0.138        9.275       21.061        5.157      349.727       30.368      858.317
09/01/2014  17:48:00       13.283      -87.577      -16.464       32.566       32.453       25.306     1060.543     1053.199      640.416        0.544        0.138       88.578       18.065        0.042      349.868       30.612      858.319
09/01/2014  17:49:00       21.050      -10.913       28.317       54.582       32.929       29.406     2979.180     1084.332      864.703        0.315        0.246       23.711       24.065        1.030      349.792       30.479      858.322
09/01/2014  17:50:00      -14.682       -7.673       14.896       62.887       38.300       22.605     3954.808     1466.891      510.972        0.321        0.297       16.566       22.649        1.869      349.597       30.142      858.326
09/01/2014  17:51:00       48.089     -125.306      -20.221       56.833       58.395       36.075     3229.967     3410.009     1301.423        1.318        0.397      134.217       40.136        0.089      349.550       30.060      858.330
09/01/2014  17:52:00       34.191      -38.570       25.279       58.499       82.752       44.748     3422.138     6847.928     2002.362        0.778        0.614       51.543       58.351        1.282      349.502       29.977      858.334
09/01/2014  17:53:00       13.145      -10.620       18.079       33.892       40.116       21.354     1148.636     1609.318      455.985        0.191        0.161       16.899       19.941        1.392      349.415       29.825      858.339
09/01/2014  17:54:00      -19.025      -61.189        1.502       36.840       41.983       20.746     1357.150     1762.569      430.407        0.383        0.178       64.078       17.712        0.076      349.670       30.269      858.342
09/01/2014  17:55:00      -19.604      -64.422        1.366       35.395       34.158       20.053     1252.777     1166.750      402.138        0.368        0.141       67.339        9.157        0.018      349.642       30.219      858.344
09/01/2014  17:56:00        8.847      -75.404      -12.327       26.432       29.198       21.434      698.648      852.537      459.423        0.396        0.101       75.922       14.572        0.037      349.631       30.202      858.342
09/01/2014  17:57:00       12.395      -43.043       11.786       26.190       54.592       32.652      685.940     2980.270     1066.125        0.344        0.237       44.792       29.214        0.425      349.615       30.173      858.344
09/01/2014  17:58:00       37.469      -93.218       -3.165       58.186       83.229       46.099     3385.565     6927.004     2125.143        1.127        0.622      100.467       35.022        0.122      349.597       30.141      858.345
09/01/2014  17:59:00      118.703     -106.436        3.973       61.399       91.115       59.092     3769.865     8301.939     3491.886        2.050        0.778      159.433       70.741        0.197      349.595       30.135      858.345
09/01/2014  18:00:00       86.122      -58.989        9.887       45.959       37.374       31.923     2112.189     1396.781     1019.096        0.776        0.226      104.388       30.178        0.084      349.572       30.100      858.358
09/01/2014  18:01:00       39.129      -60.180       24.087       40.977       70.435       31.985     1679.111     4961.020     1023.039        0.670        0.383       71.782       36.416        0.257      349.645       30.225      858.354
09/01/2014  18:02:00      106.420     -157.964      -25.378       33.300       30.786       20.884     1108.885      947.776      436.129        1.971        0.125      190.467       15.565        0.007      349.601       30.151      858.347
09/01/2014  18:03:00       69.859     -107.364       -1.996       52.635       71.486       34.440     2770.446     5110.310     1186.106        1.274        0.453      128.091       33.410        0.068      349.694       30.309      858.345
09/01/2014  18:04:00       29.148     -113.378      -13.760       38.004       41.783       25.614     1444.301     1745.859      656.100        0.887        0.192      117.065       13.009        0.012      349.573       30.101      858.338
09/01/2014  18:05:00       33.477      -22.933       18.261       36.494       39.050       29.476     1331.819     1524.874      868.843        0.285        0.186       40.579       33.077        0.664      349.687       30.297      858.346
09/01/2014  18:06:00       18.617      -14.037       10.912       24.265       34.496       19.993      588.776     1189.992      399.711        0.142        0.109       23.316       16.356        0.492      349.479       29.937      858.350
09/01/2014  18:07:00        9.630      -38.362        1.144       24.885       29.733       21.857      619.287      884.068      477.721        0.177        0.099       39.552        8.934        0.051      349.418       29.832      858.349
09/01/2014  18:08:00        1.560      -38.624        2.722       17.222       28.770       13.820      296.600      827.708      191.005        0.141        0.066       38.655        6.589        0.029      349.680       30.288      858.343
09/01/2014  18:09:00        1.279        7.443      -10.468       17.230       23.049       10.871      296.866      531.261      118.178        0.056        0.047        7.552       11.199        2.199      349.756       30.419      858.336
09/01/2014  18:10:00       23.787       89.503        8.248       54.064       42.728       24.760     2922.906     1825.678      613.080        0.700        0.268       92.610       22.830        0.061      349.429       29.851      858.322
09/01/2014  18:11:00       45.239       72.783       -3.841       55.898       66.852       36.948     3124.576     4469.165     1365.173        0.816        0.448       85.697       28.665        0.112      349.495       29.967      858.317
09/01/2014  18:12:00       63.899      120.399      -18.492       24.538       76.066       32.912      602.135     5786.046     1083.197        1.319        0.374      136.305       45.025        0.109      349.503       29.979      858.315
09/01/2014  18:13:00        5.803       84.903      -12.668       28.749       44.647       24.382      826.512     1993.398      594.492        0.541        0.171       85.101       29.205        0.118      349.551       30.063      858.309
09/01/2014  18:14:00       19.062       23.560        1.581       17.984       30.536       14.184      323.429      932.472      201.189        0.119        0.073       30.306       17.457        0.332      349.586       30.122      858.304
09/01/2014  18:15:00       13.577       -9.296       16.815       20.360       20.370       16.541      414.532      414.946      273.595        0.083        0.055       16.455        7.723        0.220      349.407       29.812      858.287
09/01/2014  18:16:00      -26.880       -6.542        8.402       36.206       33.754       20.243     1310.905     1139.307      409.797        0.185        0.143       27.664       20.126        0.529      349.632       30.203      858.277
09/01/2014  18:17:00       24.184      -26.936       -1.025       19.884       17.116       15.412      395.393      292.973      237.525        0.112        0.046       36.200       14.431        0.159      349.266       29.569      858.274
09/01/2014  18:18:00       11.324       22.115       15.907       17.195       16.073       15.294      295.659      258.354      233.910        0.083        0.039       24.846        7.355        0.088      349.267       29.570      858.273
09/01/2014  18:19:00        9.684       18.278        1.536        7.481        7.668        7.445       55.958       58.791       55.425        0.030        0.009       20.685        2.865        0.019      349.517       30.002      858.269
09/01/2014  18:20:00       -0.315       14.498        4.124       17.973       16.506       12.064      323.030      272.463      145.537        0.048        0.037       14.501        9.606        0.439      349.514       29.997      858.254
09/01/2014  18:21:00       23.050       71.788      -10.781       30.692       23.176        9.798      942.001      537.128       95.998        0.369        0.079       75.398        5.818        0.006      349.559       30.076      858.247
09/01/2014  18:22:00      -13.812       72.800      -14.873       11.452       13.048        7.532      131.154      170.259       56.735        0.303        0.018       74.099        3.433        0.002      349.560       30.079      858.242
09/01/2014  18:23:00      -10.348       85.735      -16.147       19.421       13.784        7.531      377.172      189.996       56.714        0.417        0.031       86.358        3.646        0.002      349.516       30.002      858.242
09/01/2014  18:24:00       41.799       61.286       -7.182       35.056       30.775       19.612     1228.937      947.115      384.637        0.406        0.128       74.183       15.196        0.042      349.557       30.072      858.252
09/01/2014  18:25:00      105.974       54.766        7.824       34.492       18.893       18.391     1189.732      356.940      338.227        0.809        0.094      119.289       16.085        0.018      349.513       29.994      858.244
09/01/2014  18:26:00        7.746       92.867      -17.813       29.682       33.935       11.822      881.044     1151.554      139.766        0.559        0.109       93.189       14.902        0.026      349.537       30.037      858.241
09/01/2014  18:27:00       21.886       95.014      -10.029       34.090       36.481       21.435     1162.158     1330.894      459.447        0.628        0.148       97.503       21.008        0.046      349.464       29.911      858.237
09/01/2014  18:28:00       68.855       23.335       26.761       46.312       33.900       30.425     2144.839     1149.198      925.691        0.511        0.211       72.702       17.265        0.056      349.420       29.836      858.237
09/01/2014  18:29:00      136.488       77.911       26.398       69.204       57.376       30.872     4789.157     3292.049      953.076        1.721        0.452      157.159       29.619        0.036      349.342       29.697      858.230
09/01/2014  18:30:00       89.296       33.319       28.871       58.984       40.090       34.794     3479.129     1607.180     1210.634        0.811        0.315       95.310       22.091        0.054      349.466       29.914      858.233
09/01/2014  18:31:00       63.401       55.365       -2.823       56.330       38.731       23.797     3173.103     1500.070      566.297        0.617        0.262       84.172       12.800        0.023      349.399       29.799      858.235
09/01/2014  18:32:00       53.552       58.597        0.712       42.502       32.883       31.767     1806.400     1081.283     1009.171        0.510        0.195       79.381       23.862        0.090      349.446       29.879      858.238
09/01/2014  18:33:00       38.526       41.995       -3.121       36.631       30.120       22.009     1341.844      907.208      484.377        0.299        0.137       56.990       13.776        0.058      349.433       29.856      858.247
09/01/2014  18:34:00      118.442       77.056       17.839       51.124       34.649       25.099     2613.661     1200.546      629.957        1.236        0.222      141.301       15.900        0.013      349.472       29.924      858.255
09/01/2014  18:35:00      110.575       24.245       21.084       65.381       56.712       29.842     4274.696     3216.201      890.573        1.082        0.419      113.202       29.251        0.067      349.311       29.646      858.256
09/01/2014  18:36:00      137.403       57.233       32.727       48.958       49.224       36.343     2396.923     2423.039     1320.815        1.468        0.307      148.846       31.857        0.046      349.374       29.754      858.254
09/01/2014  18:37:00       85.516       40.279       20.638       64.695       49.673       33.636     4185.464     2467.450     1131.371        0.857        0.389       94.527       18.992        0.040      349.162       29.388      858.251
09/01/2014  18:38:00       31.577       46.080       30.952       32.859       28.572       33.317     1079.683      816.336     1110.018        0.354        0.150       55.861       19.950        0.128      349.267       29.568      858.245
09/01/2014  18:39:00       77.185       26.433       15.637       34.955       28.129       19.490     1221.829      791.230      379.844        0.465        0.120       81.586       17.013        0.043      349.407       29.811      858.249
09/01/2014  18:40:00       78.418       28.175        7.496       33.088       21.222       21.889     1094.808      450.373      479.112        0.451        0.101       83.326        6.679        0.006      349.377       29.758      858.243
09/01/2014  18:41:00       90.714       31.483       14.400       31.035       42.845       23.957      963.168     1835.675      573.916        0.640        0.169       96.022       17.742        0.034      349.229       29.504      858.243
09/01/2014  18:42:00       90.481       34.141       24.542       35.062       34.975       27.803     1229.340     1223.234      772.986        0.659        0.161       96.707       21.732        0.050      349.303       29.633      858.239
09/01/2014  18:43:00       63.597       21.883       21.706       64.061       40.163       32.719     4103.835     1613.086     1070.511        0.589        0.339       67.256       32.160        0.229      349.374       29.756      858.239
09/01/2014  18:44:00       74.644       48.187       14.020       49.557       34.162       32.227     2455.916     1167.014     1038.578        0.637        0.233       88.847       22.561        0.064      349.270       29.575      858.246
09/01/2014  18:45:00       30.456       67.046       -8.621       43.097       37.373       25.741     1857.384     1396.771      662.625        0.471        0.196       73.639       19.510        0.070      349.370       29.749      858.254
09/01/2014  18:46:00       17.773      174.371      -26.321       52.437       60.498       33.911     2749.588     3660.048     1149.984        1.949        0.378      175.275       34.392        0.039      349.344       29.701      858.260
09/01/2014  18:47:00       41.766      121.888       -0.928       47.057       93.084       45.457     2214.364     8664.543     2066.311        1.477        0.647      128.845       50.562        0.154      349.314       29.650      858.260
09/01/2014  18:48:00      114.289       92.629        6.338       66.669       49.420       35.895     4444.771     2442.287     1288.416        1.493        0.409      147.112       29.768        0.041      349.320       29.661      858.256
09/01/2014  18:49:00       75.208      116.010      -11.992       46.451       50.536       37.865     2157.692     2553.934     1433.740        1.270        0.307      138.256       32.477        0.055      349.307       29.639      858.253
09/01/2014  18:50:00       32.209       43.068        4.294       33.865       31.870       23.911     1146.859     1015.701      571.725        0.282        0.137       53.780       18.950        0.124      349.260       29.559      858.250
09/01/2014  18:51:00       42.162      151.606      -15.634       40.034       75.150       36.856     1602.705     5647.489     1358.387        1.681        0.430      157.359       40.188        0.065      349.277       29.586      858.266
09/01/2014  18:52:00       33.288      148.752      -24.429       32.030       47.926       20.347     1025.911     2296.862      414.015        1.378        0.187      152.432       21.507        0.020      349.286       29.602      858.269
09/01/2014  18:53:00       34.688      111.055       -1.680       37.013       79.255       42.946     1369.976     6281.373     1844.392        1.152        0.475      116.346       53.509        0.212      349.267       29.569      858.269
09/01/2014  18:54:00       24.493      103.046       -6.271       41.979       49.663       28.758     1762.260     2466.391      827.023        0.816        0.253      105.917       26.002        0.060      349.237       29.519      858.272
09/01/2014  18:55:00       45.182      167.936      -28.266       46.512       46.609       25.644     2163.353     2172.417      657.611        1.802        0.250      173.908       23.116        0.018      349.252       29.543      858.270
09/01/2014  18:56:00       81.839       64.909       14.874       42.019       25.648       31.330     1765.605      657.832      981.577        0.727        0.170      104.455       22.469        0.046      349.187       29.431      858.267
09/01/2014  18:57:00       83.666       59.384        9.918       58.076       33.846       27.535     3372.802     1145.561      758.166        0.795        0.264      102.599       21.200        0.043      349.176       29.412      858.275
09/01/2014  18:58:00       98.323       80.150        9.445       81.251       60.990       42.736     6601.772     3719.775     1826.343        1.416        0.607      126.852       24.025        0.036      349.087       29.256      858.284
09/01/2014  18:59:00       26.055      209.491      -29.202       46.989      112.414       31.473     2207.958    12636.936      990.557        3.062        0.792      211.105       48.100        0.052      349.070       29.225      858.293
09/01/2014  19:00:00       23.362      208.482      -29.467       47.091       54.736       29.892     2217.546     2996.067      893.533        2.549        0.305      209.787       26.971        0.017      349.054       29.197      858.287
09/01/2014  19:01:00       25.422      169.327      -20.074       56.934       80.825       37.439     3241.531     6532.724     1401.653        2.045        0.559      171.225       44.266        0.067      349.045       29.181      858.296
09/01/2014  19:02:00       34.079      207.106      -27.331       42.062       64.144       29.262     1769.176     4114.482      856.283        2.577        0.337      209.891       30.790        0.022      349.066       29.218      858.311
09/01/2014  19:03:00       19.777      203.020      -17.195       48.046      111.690       49.100     2308.417    12474.576     2410.785        2.955        0.860      203.981       63.402        0.097      349.034       29.161      858.311
09/01/2014  19:04:00       55.400      137.497       -1.053       59.185       79.639       54.545     3502.812     6342.351     2975.193        1.740        0.641      148.239       50.081        0.114      348.986       29.082      858.312
09/01/2014  19:05:00       23.675      210.493      -27.831       38.366       61.028       35.699     1471.970     3724.474     1274.402        2.606        0.324      211.820       35.496        0.028      349.018       29.133      858.323
09/01/2014  19:06:00       27.267      184.823      -28.158       43.136       45.553       34.721     1860.745     2075.113     1205.535        2.042        0.257      186.823       29.877        0.026      349.006       29.117      858.342
09/01/2014  19:07:00       37.463      139.293       -3.525       61.628       90.951       51.207     3797.976     8272.063     2622.122        1.775        0.735      144.243       52.198        0.131      348.915       28.960      858.354
09/01/2014  19:08:00       57.228      256.164      -44.238       81.335       91.439       38.853     6615.345     8361.017     1509.533        4.367        0.824      262.478       34.435        0.017      348.896       28.924      858.354
09/01/2014  19:09:00       48.647      123.083       -2.044       85.377       89.252       47.961     7289.166     7965.899     2300.257        1.753        0.878      132.348       49.800        0.142      348.796       28.754      858.358
09/01/2014  19:10:00       66.911      144.992        1.375       72.884      133.103       58.038     5312.057    17716.534     3368.447        2.594        1.320      159.687       68.730        0.185      348.760       28.689      858.374
09/01/2014  19:11:00       10.881       96.669       -0.831       61.679       71.091       46.847     3804.354     5054.001     2194.605        1.026        0.553       97.279       38.107        0.153      348.702       28.589      858.380
09/01/2014  19:12:00      -24.434      177.178      -24.919       60.172       59.729       30.540     3620.713     3567.554      932.713        2.036        0.406      178.855       25.564        0.020      348.741       28.657      858.391
09/01/2014  19:13:00      -12.278      238.616      -37.338       64.849       65.330       37.506     4205.363     4267.972     1406.682        3.418        0.494      238.932       37.048        0.024      348.744       28.659      858.404
09/01/2014  19:14:00        4.512      225.033      -32.123       63.895       85.967       38.197     4082.626     7390.337     1458.979        3.231        0.647      225.078       40.593        0.033      348.676       28.544      858.405
09/01/2014  19:15:00       10.261      294.664      -38.113       77.284       75.953       39.007     5972.776     5768.932     1521.576        5.082        0.663      294.843       35.858        0.015      348.724       28.626      858.421
09/01/2014  19:16:00       14.828      354.133      -44.574       66.496       68.055       45.270     4421.700     4631.549     2049.334        6.936        0.555      354.443       42.561        0.014      348.707       28.596      858.431
09/01/2014  19:17:00      -21.031      249.486      -34.088       62.623       92.481       32.605     3921.587     8552.754     1063.078        3.869        0.677      250.371       42.046        0.028      348.697       28.578      858.439
09/01/2014  19:18:00       -0.964      179.510      -20.974       56.700       60.495       33.665     3214.843     3659.681     1133.359        2.033        0.400      179.512       31.913        0.032      348.619       28.446      858.463
09/01/2014  19:19:00       -9.678      199.947      -19.429       91.510       93.071       54.153     8374.058     8662.275     2932.574        3.021        0.998      200.181       56.577        0.080      348.627       28.459      858.464
09/01/2014  19:20:00      -83.952      142.104      -20.532       75.012       76.220       32.218     5626.780     5809.441     1037.987        2.007        0.624      165.050       17.621        0.011      348.581       28.380      858.483
09/01/2014  19:21:00      -48.973      163.516      -22.953       71.405       63.195       39.327     5098.717     3993.613     1546.607        2.015        0.532      170.692       38.249        0.050      348.503       28.245      858.500
09/01/2014  19:22:00      -70.573      143.969      -18.215       56.537       63.830       38.734     3196.421     4074.216     1500.296        1.740        0.439      160.336       41.962        0.068      348.475       28.196      858.496
09/01/2014  19:23:00      -80.667      163.632      -22.848       63.634       80.697       33.862     4049.298     6512.015     1146.652        2.275        0.585      182.435       34.946        0.037      348.495       28.230      858.514
09/01/2014  19:24:00      -77.357      186.226      -23.057       58.480       66.691       42.433     3419.939     4447.745     1800.529        2.543        0.483      201.653       39.924        0.039      348.495       28.230      858.517
09/01/2014  19:25:00     -103.294      175.878      -28.161       75.450       64.619       37.991     5692.659     4175.610     1443.353        2.685        0.566      203.967       34.505        0.029      348.471       28.189      858.511
09/01/2014  19:26:00      -94.823      134.862      -27.368       55.732       56.235       29.715     3106.069     3162.347      882.966        1.754        0.358      164.861       31.275        0.036      348.450       28.154      858.526
09/01/2014  19:27:00      -85.790       82.690      -18.533       40.052       44.797       23.859     1604.135     2006.730      569.241        0.936        0.209      119.153       22.495        0.036      348.416       28.096      858.527
09/01/2014  19:28:00      -76.139       67.616      -15.686       52.846       71.708       32.228     2792.698     5141.997     1038.643        0.979        0.449      101.829       42.558        0.175      348.372       28.020      858.533
09/01/2014  19:29:00      -92.861      102.108      -14.518       50.002       49.960       33.231     2500.214     2496.015     1104.301        1.268        0.305      138.019       29.840        0.047      348.372       28.020      858.535
09/01/2014  19:30:00     -103.881       98.493      -25.831       48.918       67.183       23.001     2392.923     4513.591      529.063        1.430        0.372      143.151       27.735        0.038      348.417       28.098      858.545
09/01/2014  19:31:00      -95.990      135.653      -28.057       54.821       45.357       29.451     3005.289     2057.237      867.360        1.717        0.296      166.180       29.860        0.032      348.447       28.149      858.557
09/01/2014  19:32:00      -60.388      105.614      -17.957       35.374       30.455       22.148     1251.290      927.531      490.556        0.890        0.133      121.659       20.801        0.029      348.348       27.978      858.570
09/01/2014  19:33:00      -27.720       85.635      -15.645       22.604       24.530       12.015      510.950      601.733      144.369        0.480        0.063       90.010        8.750        0.009      348.304       27.901      858.589
09/01/2014  19:34:00        9.832       68.217      -11.600       30.379       27.903       14.614      922.913      778.578      213.566        0.340        0.096       68.922        9.357        0.018      348.312       27.919      858.613
09/01/2014  19:35:00       77.818       34.195       15.702       21.780       24.938       20.622      474.351      621.908      425.275        0.450        0.076       85.000       15.610        0.034      348.132       27.605      858.625
09/01/2014  19:36:00       67.387       49.663       28.380       40.193       33.894       26.605     1615.471     1148.810      707.808        0.564        0.174       83.710       24.380        0.085      348.004       27.384      858.653
09/01/2014  19:37:00       56.266       76.038       -4.403       48.637       46.407       26.163     2365.512     2153.650      684.504        0.708        0.260       94.592       22.945        0.059      348.005       27.387      858.673
09/01/2014  19:38:00       46.648      150.055      -10.809       58.725       76.093       45.122     3448.585     5790.120     2035.963        1.804        0.564      157.139       51.597        0.108      348.114       27.573      858.693
09/01/2014  19:39:00       38.651      164.967      -22.943       52.485       84.948       49.779     2754.682     7216.231     2477.909        2.084        0.622      169.434       54.221        0.102      348.080       27.513      858.695
09/01/2014  19:40:00       -2.002      188.031      -24.103       48.754       42.111       27.363     2376.941     1773.344      748.748        2.042        0.245      188.042       23.296        0.015      348.032       27.431      858.707
09/01/2014  19:41:00       29.372      221.341      -26.740       56.285       69.742       42.955     3168.048     4863.936     1845.093        3.022        0.494      223.281       40.554        0.033      348.065       27.485      858.712
09/01/2014  19:42:00       -3.583      167.874      -12.157       71.866       80.728       46.022     5164.709     6517.074     2118.030        2.107        0.690      167.913       50.605        0.091      347.997       27.369      858.721
09/01/2014  19:43:00      -75.872      281.626      -43.911       40.649       84.509       30.429     1652.311     7141.715      925.926        4.836        0.486      291.667       34.631        0.014      348.121       27.582      858.728
09/01/2014  19:44:00      -48.717      177.368      -24.633       50.245       76.982       32.219     2524.610     5926.273     1038.093        2.196        0.474      183.937       35.119        0.036      348.099       27.546      858.741
09/01/2014  19:45:00      -52.668      165.592      -21.819       52.134       87.662       33.554     2717.960     7684.606     1125.846        2.110        0.576      173.766       36.372        0.044      348.094       27.538      858.746
09/01/2014  19:46:00     -112.370      132.857      -29.882       48.694       51.580       24.354     2371.071     2660.518      593.137        1.840        0.281      174.006       19.061        0.012      348.066       27.489      858.758
09/01/2014  19:47:00     -104.648      131.202      -28.865       39.446       45.700       22.932     1555.979     2088.483      525.887        1.658        0.209      167.825       19.278        0.013      348.025       27.420      858.770
09/01/2014  19:48:00      -62.135       52.543       -8.710       51.054       51.425       25.396     2606.517     2644.505      644.942        0.630        0.295       81.373       11.852        0.021      348.040       27.447      858.790
09/01/2014  19:49:00     -103.479       12.879      -15.723       41.327       49.187       26.561     1707.954     2419.336      705.468        0.798        0.242      104.278       27.294        0.069      348.058       27.476      858.791
09/01/2014  19:50:00     -128.073       60.306      -26.889       39.289       41.048       21.025     1543.606     1684.977      442.034        1.222        0.184      141.561       14.663        0.011      347.957       27.302      858.807
09/01/2014  19:51:00     -147.155      219.941      -42.734       76.108       69.322       49.075     5792.479     4805.582     2408.390        4.243        0.650      264.629       45.054        0.029      347.852       27.117      858.820
09/01/2014  19:52:00     -108.605      164.439      -29.923       48.006       62.274       34.193     2304.564     3878.082     1169.182        2.354        0.368      197.066       28.293        0.021      347.776       26.987      858.828
09/01/2014  19:53:00     -152.747      168.614      -37.754       50.239       72.196       36.064     2524.004     5212.259     1300.590        3.111        0.452      227.513       35.033        0.024      347.794       27.019      858.844
09/01/2014  19:54:00     -134.376      121.838      -34.969       50.480       55.910       26.629     2548.180     3125.932      709.078        2.025        0.319      181.388       28.741        0.025      347.795       27.019      858.863
09/01/2014  19:55:00     -174.570      171.368      -33.387       73.262       79.551       43.921     5367.330     6328.330     1929.056        3.729        0.681      244.626       40.525        0.027      347.788       27.007      858.877
09/01/2014  19:56:00     -158.250      176.573      -40.449       77.721       72.052       39.714     6040.621     5191.486     1577.173        3.533        0.640      237.110       45.720        0.037      347.752       26.945      858.899
09/01/2014  19:57:00     -156.072      173.810      -30.748       63.657       93.976       47.092     4052.222     8831.418     2217.651        3.530        0.755      233.599       50.149        0.046      347.705       26.866      858.920
09/01/2014  19:58:00     -154.702      160.318      -40.240       79.572       58.845       43.124     6331.707     3462.725     1859.668        3.145        0.583      222.788       44.643        0.040      347.740       26.925      858.936
09/01/2014  19:59:00     -132.516      129.644      -28.443       68.563       88.740       43.645     4700.918     7874.843     1904.900        2.483        0.724      185.386       46.493        0.063      347.738       26.922      858.948
09/01/2014  20:00:00     -102.198      124.448      -33.716       50.934       65.260       37.519     2594.314     4258.924     1407.685        1.766        0.413      161.033       30.023        0.035      347.760       26.962      858.959
09/01/2014  20:01:00      -88.329       88.721      -15.906       52.012       55.541       32.156     2705.253     3084.799     1033.988        1.137        0.341      125.193       39.373        0.099      347.667       26.801      858.973
09/01/2014  20:02:00     -110.870      141.931      -11.893       76.227       56.722       44.170     5810.484     3217.414     1950.971        2.178        0.549      180.102       37.107        0.042      347.693       26.844      858.987
09/01/2014  20:03:00     -105.517      177.146      -31.830       48.571       64.644       37.102     2359.156     4178.840     1376.589        2.572        0.396      206.191       32.080        0.024      347.764       26.966      858.998
09/01/2014  20:04:00     -161.371      123.494      -26.242       59.351       62.652       42.351     3522.488     3925.214     1793.603        2.561        0.462      203.203       34.718        0.029      347.745       26.933      858.999
09/01/2014  20:05:00     -155.845      144.140      -37.853       70.096       98.640       47.908     4913.454     9729.874     2295.195        3.171        0.847      212.283       42.017        0.039      347.764       26.967      859.016
09/01/2014  20:06:00     -109.677      158.405      -20.885       55.270       95.053       46.979     3054.722     9035.101     2207.059        2.592        0.715      192.669       40.377        0.044      347.707       26.870      859.030
09/01/2014  20:07:00     -139.462      154.875      -34.260       75.471       80.723       49.056     5695.851     6516.271     2406.520        2.961        0.731      208.413       55.676        0.071      347.729       26.905      859.043
09/01/2014  20:08:00     -146.150      153.266      -23.311       80.232       74.863       51.010     6437.194     5604.496     2602.009        3.002        0.732      211.779       53.710        0.064      347.735       26.916      859.049
09/01/2014  20:09:00     -149.181      177.039      -35.966       97.713       86.890       53.271     9547.887     7549.891     2837.839        3.741        0.997      231.512       59.084        0.065      347.707       26.868      859.066
09/01/2014  20:10:00     -137.315      132.464      -25.515      103.505       81.300       48.872    10713.209     6609.749     2388.521        2.838        0.986      190.793       55.939        0.086      347.706       26.867      859.074
09/01/2014  20:11:00     -161.409      225.915      -39.377       72.044       98.344       51.197     5190.291     9671.462     2621.109        4.806        0.874      277.652       48.540        0.031      347.770       26.975      859.090
09/01/2014  20:12:00     -135.945      115.264      -18.521       91.164       97.786       53.043     8310.943     9562.091     2813.573        2.639        1.034      178.232       56.569        0.101      347.823       27.069      859.088
09/01/2014  20:13:00     -119.326      208.013      -27.840       70.010      109.051       45.544     4901.460    11892.218     2074.288        3.857        0.943      239.808       43.690        0.033      347.849       27.112      859.083
09/01/2014  20:14:00     -152.034      297.043      -40.071       90.630      109.275       59.976     8213.738    11940.956     3597.119        6.835        1.188      333.690       61.469        0.034      347.871       27.151      859.098
09/01/2014  20:15:00     -124.424      268.455      -41.398       89.413      109.292       52.373     7994.635    11944.686     2742.961        5.597        1.134      295.888       53.886        0.033      347.850       27.114      859.108
09/01/2014  20:16:00     -117.473      224.491      -38.123       68.713      110.652       45.448     4721.521    12243.850     2065.492        4.234        0.952      253.369       50.741        0.040      347.865       27.139      859.103
09/01/2014  20:17:00     -103.022      179.975      -33.610       64.465       73.363       39.819     4155.677     5382.082     1585.581        2.763        0.556      207.375       35.656        0.030      347.855       27.125      859.104
09/01/2014  20:18:00     -116.380      162.019      -33.116       46.758       95.034       32.850     2186.337     9031.514     1079.142        2.659        0.615      199.485       31.540        0.025      347.769       26.976      859.109
09/01/2014  20:19:00     -170.669      144.494      -33.971       66.643       75.661       39.257     4441.235     5724.574     1541.126        3.143        0.585      223.621       39.337        0.031      347.701       26.857      859.120
09/01/2014  20:20:00     -180.685      174.011      -34.549       95.806       87.909       43.818     9178.723     7727.924     1920.033        4.147        0.941      250.852       34.253        0.019      347.609       26.699      859.139
09/01/2014  20:21:00     -173.363      201.988      -39.014       51.705       68.385       42.144     2673.448     4676.533     1776.075        4.075        0.456      266.184       38.067        0.020      347.590       26.664      859.156
09/01/2014  20:22:00     -126.656      167.625      -28.139       64.689       90.953       48.555     4184.675     8272.513     2357.603        2.987        0.741      210.095       42.591        0.041      347.560       26.615      859.178
09/01/2014  20:23:00     -137.637      140.839      -35.680       62.259       79.328       35.737     3876.135     6292.937     1277.124        2.575        0.572      196.925       28.645        0.021      347.534       26.570      859.190
09/01/2014  20:24:00     -158.800      144.849      -34.777       74.774       83.770       38.540     5591.100     7017.407     1485.357        3.075        0.705      214.938       36.073        0.028      347.512       26.533      859.198
09/01/2014  20:25:00     -146.317      134.035      -20.417       73.157      106.311       42.494     5351.886    11301.986     1805.703        2.912        0.923      198.429       38.444        0.038      347.514       26.537      859.213
09/01/2014  20:26:00     -119.271       90.850      -15.299       58.896       47.657       35.948     3468.700     2271.177     1292.229        1.487        0.352      149.931       29.640        0.039      347.422       26.379      859.219
09/01/2014  20:27:00     -114.865      176.469      -24.583       54.468       77.517       43.666     2966.724     6008.948     1906.701        2.791        0.544      210.560       43.197        0.042      347.427       26.385      859.216
09/01/2014  20:28:00     -137.887      184.463      -34.360       58.666      101.741       42.218     3441.694    10351.206     1782.351        3.489        0.779      230.303       42.743        0.034      347.449       26.424      859.215
09/01/2014  20:29:00     -128.497      188.239      -39.296       45.203       51.888       33.570     2043.348     2692.393     1126.918        2.967        0.293      227.916       23.368        0.011      347.448       26.420      859.231
09/01/2014  20:30:00      -82.289      113.446      -17.002       45.763       50.893       26.282     2094.250     2590.084      690.730        1.265        0.269      140.148       21.664        0.024      347.410       26.358      859.238
09/01/2014  20:31:00     -109.846      141.649      -22.762       47.627       68.012       35.501     2268.353     4625.621     1260.288        2.040        0.408      179.250       29.349        0.027      347.432       26.395      859.261
09/01/2014  20:32:00      -99.460      170.619      -23.707       41.188       89.745       38.009     1696.434     8054.092     1444.668        2.538        0.560      197.492       38.156        0.037      347.391       26.324      859.277
09/01/2014  20:33:00     -159.261      168.718      -33.151       71.122       82.339       35.454     5058.316     6779.632     1256.995        3.401        0.655      232.013       21.037        0.008      347.369       26.286      859.294
09/01/2014  20:34:00     -135.585      163.472      -32.663       66.536       92.968       41.085     4427.102     8643.112     1687.997        3.046        0.738      212.382       39.563        0.035      347.379       26.304      859.303
09/01/2014  20:35:00     -169.322      183.934      -33.341       55.368       89.849       49.796     3065.591     8072.902     2479.688        3.861        0.681      250.004       51.881        0.043      347.355       26.260      859.324
09/01/2014  20:36:00     -174.333      171.656      -41.788       60.340       56.693       40.803     3640.951     3214.086     1664.871        3.506        0.426      244.658       37.133        0.023      347.368       26.282      859.335
09/01/2014  20:37:00     -153.805      152.914      -27.101       82.359       73.490       44.598     6782.975     5400.788     1988.946        3.097        0.709      216.884       39.979        0.034      347.325       26.209      859.351
09/01/2014  20:38:00     -172.194      179.672      -49.327       47.280       69.643       30.444     2235.396     4850.114      926.843        3.619        0.401      248.863       26.729        0.012      347.311       26.183      859.363
09/01/2014  20:39:00     -102.764      144.942      -18.197       68.594       77.811       39.802     4705.082     6054.607     1584.203        2.212        0.617      177.675       41.702        0.055      347.249       26.079      859.370
09/01/2014  20:40:00      -98.693       98.692      -21.914       62.617       66.745       34.896     3920.875     4454.877     1217.764        1.478        0.480      139.573       30.066        0.046      347.192       25.982      859.382
09/01/2014  20:41:00     -102.083      145.251      -30.613       55.269       74.699       31.669     3054.642     5579.924     1002.945        2.104        0.482      177.535       27.631        0.024      347.308       26.181      859.379
09/01/2014  20:42:00      -88.884      141.112      -27.613       54.276       57.515       35.205     2945.831     3308.029     1239.413        1.803        0.375      166.772       26.568        0.025      347.342       26.239      859.384
09/01/2014  20:43:00     -123.014       99.448      -22.627       89.911       66.596       37.338     8083.933     4435.003     1394.090        1.972        0.696      158.185       44.195        0.078      347.278       26.130      859.379
09/01/2014  20:44:00     -149.212      151.191      -31.375       65.447       82.637       47.815     4283.276     6828.814     2286.307        2.975        0.670      212.422       49.905        0.055      347.307       26.178      859.382
09/01/2014  20:45:00     -184.713      200.387      -46.883       52.776       95.672       45.862     2785.272     9153.120     2103.331        4.525        0.702      272.532       45.897        0.028      347.349       26.250      859.379
09/01/2014  20:46:00     -187.280      208.101      -44.440       64.659       75.506       42.104     4180.741     5701.106     1772.766        4.600        0.583      279.963       35.771        0.016      347.367       26.282      859.391
09/01/2014  20:47:00     -186.725      249.779      -49.295       87.922       81.647       56.917     7730.365     6666.263     3239.589        5.866        0.882      311.859       57.685        0.034      347.398       26.335      859.392
09/01/2014  20:48:00     -151.473      197.881      -37.721       69.789       82.355       42.131     4870.500     6782.366     1775.012        3.847        0.671      249.200       34.132        0.019      347.350       26.251      859.399
09/01/2014  20:49:00     -157.535      169.464      -43.065       63.268       73.028       38.505     4002.806     5333.074     1482.650        3.310        0.541      231.377       43.128        0.035      347.395       26.330      859.405
09/01/2014  20:50:00     -181.782      204.616      -33.142       86.257       92.559       50.970     7440.305     8567.152     2597.928        4.730        0.930      273.701       35.186        0.017      347.379       26.299      859.414
09/01/2014  20:51:00     -182.500      194.551      -33.338      110.567       90.069       60.103    12225.096     8112.496     3612.329        4.810        1.197      266.751       64.247        0.058      347.377       26.298      859.429
09/01/2014  20:52:00     -150.861      173.581      -27.314       72.155       90.185       52.341     5206.310     8133.366     2739.622        3.485        0.804      229.977       41.324        0.032      347.294       26.156      859.435
09/01/2014  20:53:00     -207.057      172.582      -49.309       72.046       90.663       46.902     5190.668     8219.734     2199.779        4.535        0.781      269.550       41.284        0.023      347.389       26.318      859.451
09/01/2014  20:54:00     -148.401      151.669      -32.915       54.837       88.761       42.850     3007.115     7878.587     1836.156        2.941        0.636      212.194       43.352        0.042      347.314       26.192      859.456
09/01/2014  20:55:00     -121.978      115.530      -23.444       57.231       91.274       41.894     3275.390     8330.984     1755.095        2.107        0.668      168.005       43.430        0.067      347.321       26.203      859.485
09/01/2014  20:56:00     -168.637      155.217      -28.579       70.274       81.337       41.610     4938.432     6615.651     1731.359        3.331        0.664      229.196       38.397        0.028      347.329       26.215      859.491
09/01/2014  20:57:00     -144.014      163.785      -32.544       67.573       85.310       43.485     4566.166     7277.811     1890.958        3.118        0.687      218.095       37.015        0.029      347.283       26.137      859.510
09/01/2014  20:58:00     -185.487      119.848      -34.713       75.031       88.194       42.584     5629.658     7778.234     1813.395        3.259        0.761      220.837       51.829        0.055      347.285       26.141      859.519
09/01/2014  20:59:00     -165.569      138.051      -28.524       64.435       76.971       40.273     4151.933     5924.502     1621.940        2.949        0.585      215.572       34.084        0.025      347.252       26.083      859.531
09/01/2014  21:00:00     -164.442      175.825      -36.089       79.065       74.531       50.231     6251.208     5554.865     2523.183        3.679        0.716      240.740       52.938        0.048      347.317       26.195      859.540
09/01/2014  21:01:00     -152.567      163.028      -29.224       69.743       86.555       46.089     4864.129     7491.750     2124.184        3.259        0.724      223.282       41.629        0.035      347.274       26.122      859.539
09/01/2014  21:02:00     -168.694      184.232      -37.157       85.962       76.783       49.408     7389.516     5895.694     2441.136        3.975        0.786      249.798       50.970        0.042      347.303       26.171      859.545
09/01/2014  21:03:00     -133.655      201.679      -26.290       73.587       70.451       47.039     5415.115     4963.338     2212.712        3.591        0.630      241.947       46.713        0.037      347.311       26.184      859.542
09/01/2014  21:04:00     -134.940      120.867      -23.346       62.095       71.721       40.323     3855.848     5143.833     1625.958        2.199        0.531      181.156       27.282        0.023      347.241       26.066      859.553
09/01/2014  21:05:00     -167.370      208.683      -42.036       68.238      118.170       42.507     4656.486    13964.044     1806.830        4.687        1.021      267.510       41.909        0.025      347.296       26.158      859.555
09/01/2014  21:06:00     -182.448      124.614      -23.799       99.496       59.673       38.939     9899.548     3560.890     1516.223        3.218        0.749      220.943       28.199        0.016      347.267       26.111      859.562
09/01/2014  21:07:00     -123.770       98.929      -22.440       54.024       71.716       40.070     2918.562     5143.174     1605.627        1.764        0.483      158.449       33.865        0.046      347.246       26.075      859.568
09/01/2014  21:08:00     -108.003      189.493      -20.153       57.827       80.567       41.283     3343.971     6491.014     1704.280        2.976        0.577      218.110       39.843        0.033      347.228       26.043      859.573
09/01/2014  21:09:00     -164.504      169.543      -37.595       68.236       64.867       41.280     4656.212     4207.744     1703.997        3.389        0.528      236.234       35.367        0.022      347.287       26.143      859.579
09/01/2014  21:10:00     -150.875      128.894      -22.984       60.613       72.535       38.495     3673.973     5261.387     1481.859        2.516        0.521      198.436       37.673        0.036      347.237       26.058      859.586
09/01/2014  21:11:00     -139.264      192.613      -33.168       53.946       68.652       31.011     2910.175     4713.057      961.666        3.309        0.429      237.685       22.529        0.009      347.236       26.056      859.601
09/01/2014  21:12:00     -169.386      171.652      -36.960       59.431       95.019       37.966     3532.098     9028.600     1441.401        3.676        0.700      241.156       24.614        0.010      347.253       26.085      859.607
09/01/2014  21:13:00     -147.047      165.167      -36.021       77.254       69.663       44.824     5968.120     4852.955     2009.200        3.151        0.642      221.140       44.863        0.041      347.254       26.086      859.611
09/01/2014  21:14:00     -147.406      181.073      -34.206       74.586       82.813       44.850     5563.102     6857.997     2011.515        3.506        0.722      233.487       43.664        0.035      347.225       26.037      859.629
09/01/2014  21:15:00     -125.886      156.511      -20.970       63.416       74.151       45.066     4021.551     5498.406     2030.948        2.616        0.578      200.856       39.324        0.038      347.192       25.981      859.634
09/01/2014  21:16:00     -135.102      154.339      -28.616       54.062       87.985       44.675     2922.731     7741.391     1995.849        2.777        0.633      205.117       47.889        0.055      347.214       26.018      859.645
09/01/2014  21:17:00     -137.037      171.730      -39.136       56.737       67.139       33.921     3219.052     4507.653     1150.619        2.934        0.444      219.704       33.432        0.023      347.204       26.002      859.657
09/01/2014  21:18:00     -127.508      126.682      -25.396       58.699       57.544       31.722     3445.608     3311.331     1006.258        2.036        0.388      179.740       37.079        0.043      347.177       25.956      859.660
09/01/2014  21:19:00      -86.552       89.653      -15.424       55.389       54.976       36.703     3067.925     3022.375     1347.138        1.160        0.372      124.615       33.575        0.073      347.136       25.886      859.671
09/01/2014  21:20:00      -55.706      106.519       -0.545       49.018       55.943       40.085     2402.727     3129.661     1606.845        1.079        0.357      120.206       30.945        0.066      347.129       25.876      859.684
09/01/2014  21:21:00      -35.340       82.708       -9.340       51.258       61.968       39.023     2627.389     3840.018     1522.823        0.808        0.400       89.942       42.532        0.224      347.070       25.773      859.688
09/01/2014  21:22:00      -59.051      124.225       -8.050       44.042       49.043       28.812     1939.693     2405.170      830.149        1.208        0.259      137.546       26.429        0.037      347.086       25.801      859.694
09/01/2014  21:23:00      -49.567      132.793       -3.986       33.065       54.525       36.103     1093.317     2972.936     1303.397        1.274        0.268      141.743       31.073        0.048      347.067       25.769      859.708
09/01/2014  21:24:00      -98.559      101.316      -21.968       36.329       44.624       24.644     1319.815     1991.302      607.330        1.219        0.196      141.347       22.517        0.025      347.131       25.878      859.711
09/01/2014  21:25:00      -96.808       66.029      -18.765       42.648       33.094       25.705     1818.860     1095.212      660.759        0.883        0.179      117.182       22.958        0.038      347.108       25.836      859.729
09/01/2014  21:26:00      -74.041       74.674       -9.579       49.622       46.686       26.910     2462.336     2179.556      724.174        0.826        0.268      105.158       23.600        0.050      347.077       25.785      859.743
09/01/2014  21:27:00     -131.382      107.020      -29.676       56.198       74.400       32.179     3158.242     5535.415     1035.484        1.966        0.486      169.454       42.793        0.064      347.176       25.954      859.747
09/01/2014  21:28:00     -135.200      136.398      -39.525       39.365       52.338       30.049     1549.570     2739.295      902.942        2.182        0.260      192.050       29.327        0.023      347.218       26.026      859.752
09/01/2014  21:29:00      -99.520       93.254      -21.511       43.402       44.302       32.508     1883.717     1962.640     1056.777        1.198        0.245      136.384       29.670        0.047      347.121       25.860      859.767
09/01/2014  21:30:00      -76.670       58.887       -4.900       36.856       39.884       23.292     1358.339     1590.721      542.540        0.643        0.175       96.675       15.487        0.026      347.040       25.722      859.774
09/01/2014  21:31:00     -121.788      114.287      -31.767       39.395       52.262       26.095     1551.964     2731.364      680.972        1.693        0.248      167.015       29.057        0.030      347.134       25.881      859.775
09/01/2014  21:32:00     -126.382       97.046      -31.700       38.073       66.384       29.861     1449.539     4406.900      891.685        1.657        0.337      159.344       31.705        0.040      347.112       25.843      859.786
09/01/2014  21:33:00      -71.701       28.331       -5.779       20.504       30.217       19.493      420.412      913.088      379.984        0.384        0.086       77.095       14.978        0.038      347.038       25.718      859.800
09/01/2014  21:34:00      -79.647       38.679      -17.958       37.800       31.034       21.194     1428.856      963.083      449.196        0.550        0.142       88.542       13.246        0.022      347.037       25.717      859.801
09/01/2014  21:35:00      -50.180       -1.900       -8.722       44.931       34.499       21.036     2018.761     1190.185      442.507        0.312        0.183       50.216       20.981        0.175      347.008       25.665      859.805
09/01/2014  21:36:00      -10.057       34.302       -1.123       47.052       94.744       36.855     2213.887     8976.515     1358.258        0.691        0.627       35.746       19.184        0.288      346.940       25.548      859.821
09/01/2014  21:37:00      -32.920      -67.415      -15.314       38.372       43.111       18.108     1472.424     1858.541      327.908        0.476        0.183       75.023       20.608        0.075      346.931       25.533      859.835
09/01/2014  21:38:00      -26.173      -29.095       -3.245       21.272       18.612       13.455      452.503      346.406      181.041        0.126        0.049       39.135       12.875        0.108      346.879       25.442      859.861
09/01/2014  21:39:00      -53.896      -36.184       -2.060       34.152       38.196       16.961     1166.337     1458.926      287.662        0.357        0.146       64.916       16.803        0.067      346.724       25.179      859.871
09/01/2014  21:40:00      -30.647      -60.060        0.258       27.140       19.287       18.701      736.561      371.995      349.735        0.300        0.073       67.427       14.348        0.045      346.672       25.087      859.867
09/01/2014  21:41:00     -111.173      -58.789        1.565       36.292       28.903       22.951     1317.109      835.387      526.731        0.925        0.134      125.760       23.267        0.034      346.615       24.990      859.867
09/01/2014  21:42:00     -113.122      -75.386       -0.243       53.260       34.750       26.840     2836.590     1207.535      720.382        1.162        0.238      135.940       25.952        0.036      346.562       24.897      859.874
09/01/2014  21:43:00      -74.206      -59.029       -4.287       35.600       32.279       17.633     1267.353     1041.929      310.936        0.581        0.131       94.820        7.698        0.007      346.588       24.943      859.879
09/01/2014  21:44:00      -22.977     -109.490        9.403       49.640       39.208       32.361     2464.125     1537.244     1047.242        0.883        0.252      111.875       25.394        0.052      346.772       25.259      859.877
09/01/2014  21:45:00        5.640      -79.697       13.712       31.900       30.773       24.528     1017.606      947.005      601.616        0.457        0.128       79.896       13.195        0.027      346.723       25.176      859.876
09/01/2014  21:46:00       13.613      -19.896       13.246       40.096       25.592       23.833     1607.652      654.948      568.035        0.179        0.142       24.107       15.069        0.391      346.434       24.678      859.894
09/01/2014  21:47:00        6.600       -0.089       11.082        9.434       10.591        8.796       88.992      112.162       77.364        0.022        0.014        6.601        6.012        0.830      346.194       24.266      859.906
09/01/2014  21:48:00       22.082        5.641        6.603       17.733       21.576       10.825      314.459      465.503      117.187        0.073        0.045       22.791        8.211        0.130      346.191       24.262      859.915
09/01/2014  21:49:00        5.760      -20.454       -3.909       14.771       20.494       13.619      218.190      420.020      185.476        0.065        0.041       21.250       13.059        0.378      346.189       24.256      859.917
09/01/2014  21:50:00       -3.956      -58.648        5.083       30.237       24.023       19.347      914.302      577.119      374.318        0.267        0.093       58.781       14.616        0.062      346.361       24.554      859.932
09/01/2014  21:51:00      -18.213     -107.634       11.976       24.142       33.951       13.697      582.830     1152.646      187.603        0.699        0.096      109.165       10.341        0.009      346.601       24.966      859.935
09/01/2014  21:52:00      -19.883     -139.986        0.042       25.356       34.442       19.311      642.923     1186.276      372.908        1.110        0.110      141.391       15.745        0.012      346.679       25.100      859.942
09/01/2014  21:53:00      -47.418      -93.831        0.617       38.896       29.126       27.582     1512.866      848.346      760.748        0.709        0.156      105.132       24.317        0.053      346.636       25.027      859.944
09/01/2014  21:54:00      -47.675     -136.595       -6.743       32.929       37.360       19.627     1084.326     1395.796      385.232        1.192        0.143      144.676       11.960        0.007      346.670       25.084      859.955
09/01/2014  21:55:00      -73.077     -132.212       -6.855       39.470       42.954       26.093     1557.856     1845.044      680.844        1.347        0.204      151.064       24.852        0.027      346.643       25.037      859.947
09/01/2014  21:56:00      -82.211      -92.069       -0.515       52.066       43.947       28.410     2710.868     1931.349      807.151        1.034        0.272      123.432       27.797        0.051      346.554       24.886      859.948
09/01/2014  21:57:00     -109.191      -42.172       -4.566       28.430       30.059       26.572      808.281      903.529      706.059        0.807        0.121      117.052       20.405        0.030      346.470       24.742      859.968
09/01/2014  21:58:00     -102.574      -53.054       -6.160       32.591       15.532       16.367     1062.163      241.230      267.888        0.747        0.079      115.482       12.690        0.012      346.357       24.547      859.975
09/01/2014  21:59:00      -81.024      -35.613       -4.511       42.677       22.906       20.967     1821.301      524.685      439.635        0.532        0.139       88.505       23.400        0.070      346.342       24.520      859.973
09/01/2014  22:00:00      -98.656      -26.601      -18.523       13.930       17.988       14.684      194.045      323.555      215.617        0.576        0.037      102.180       10.680        0.011      346.365       24.560      859.965
09/01/2014  22:01:00     -101.994      -23.268      -15.650       15.869       13.969       10.837      251.841      195.144      117.442        0.588        0.028      104.615        9.878        0.009      346.323       24.487      859.968
09/01/2014  22:02:00      -94.194      -37.420       -0.981       19.529       15.534       13.066      381.364      241.300      170.722        0.553        0.040      101.354       11.184        0.012      346.361       24.554      859.954
09/01/2014  22:03:00      -66.480      -19.748       -4.724       22.065       19.172       10.262      486.869      367.573      105.302        0.290        0.048       69.352       10.805        0.024      346.339       24.514      859.955
09/01/2014  22:04:00      -39.735      -11.247       -1.188       18.187       16.327        8.819      330.765      266.558       77.775        0.119        0.034       41.296        7.556        0.033      346.210       24.293      859.962
09/01/2014  22:05:00      -64.674       -6.807       -6.521       20.356        9.448        7.266      414.363       89.267       52.792        0.241        0.028       65.031        4.683        0.005      346.325       24.492      859.963
09/01/2014  22:06:00      -80.367      -30.720       -3.251       25.068       24.185       13.348      628.420      584.912      178.174        0.440        0.070       86.038       13.625        0.025      346.384       24.592      859.957
09/01/2014  22:07:00     -111.248      -24.669       -8.049       12.282       13.993        9.000      150.852      195.799       81.001        0.674        0.021      113.950        6.303        0.003      346.337       24.510      859.965
09/01/2014  22:08:00      -59.235      -48.694       -4.458       19.924       12.002       11.713      396.958      144.041      137.205        0.329        0.034       76.681        7.913        0.011      346.258       24.375      859.971
09/01/2014  22:09:00      -64.699      -19.368       -8.690       10.895       14.487        6.652      118.703      209.884       44.244        0.250        0.019       67.536        5.785        0.007      346.268       24.394      859.965
09/01/2014  22:10:00      -44.189        1.496       -5.820       16.129        8.490        8.045      260.144       72.074       64.722        0.119        0.020       44.214        5.889        0.018      346.173       24.231      859.960
09/01/2014  22:11:00      -46.375       11.703       -3.890        8.498        9.742        8.791       72.210       94.904       77.281        0.127        0.012       47.829        7.119        0.022      346.259       24.376      859.958
09/01/2014  22:12:00      -41.431       -4.905       -5.511       11.865        9.670        8.205      140.778       93.517       67.326        0.104        0.015       41.721        2.845        0.005      346.237       24.340      859.958
09/01/2014  22:13:00      -70.845       -6.342       -8.094       22.846       24.569       13.544      521.921      603.611      183.452        0.322        0.065       71.128       10.918        0.024      346.243       24.348      859.948
09/01/2014  22:14:00      -82.343      -19.442       -9.236       17.302       12.954        9.231      299.349      167.798       85.205        0.390        0.028       84.607        8.764        0.011      346.097       24.098      859.946
09/01/2014  22:15:00     -110.461        7.941      -10.935       28.532       20.201       12.288      814.066      408.079      150.983        0.688        0.069      110.746       12.510        0.013      346.097       24.100      859.954
09/01/2014  22:16:00     -131.151       10.686      -16.262       28.412       17.978       11.860      807.261      323.193      140.654        0.942        0.064      131.586        8.865        0.005      346.076       24.063      859.943
09/01/2014  22:17:00     -136.068        3.654      -12.563       15.811       20.331       12.543      249.991      413.352      157.314        0.975        0.041      136.117       10.397        0.006      346.148       24.187      859.929
09/01/2014  22:18:00     -138.212        6.851      -14.701       18.837       19.916       12.368      354.844      396.652      152.972        1.013        0.045      138.382       10.702        0.006      346.073       24.059      859.939
09/01/2014  22:19:00     -137.096       26.135      -16.569       32.256       29.344       18.470     1040.422      861.045      341.146        1.100        0.112      139.565       17.226        0.015      346.008       23.946      859.944
09/01/2014  22:20:00     -135.908       18.290       -8.998       35.521       26.772       14.633     1261.749      716.752      214.124        1.054        0.110      137.133       14.175        0.011      346.153       24.194      859.939
09/01/2014  22:21:00     -108.537       14.151      -15.365       20.747       23.877       18.437      430.434      570.115      339.906        0.678        0.067      109.456       13.644        0.016      346.117       24.135      859.939
09/01/2014  22:22:00      -71.735      -25.019       -0.805       32.855       32.412       21.474     1079.442     1050.507      461.127        0.418        0.130       75.973       15.816        0.043      345.935       23.822      859.944
09/01/2014  22:23:00     -105.598      -63.198       -8.930       36.221       20.233       17.150     1311.937      409.390      294.124        0.862        0.101      123.065       20.103        0.027      345.712       23.439      859.941
09/01/2014  22:24:00      -90.505      -56.050       -8.667       22.961       15.018       16.937      527.187      225.548      286.877        0.622        0.052      106.456       12.325        0.013      345.757       23.516      859.941
09/01/2014  22:25:00      -83.754      -40.332       -5.065       14.509       11.306        9.946      210.503      127.827       98.928        0.455        0.022       92.960        7.760        0.007      345.762       23.525      859.956
09/01/2014  22:26:00      -88.913      -40.485      -11.566       11.536       10.239        7.432      133.083      104.834       55.229        0.499        0.015       97.696        4.746        0.002      345.734       23.478      859.958
09/01/2014  22:27:00      -90.339      -42.519       -2.359       18.045       21.794       12.979      325.607      474.982      168.462        0.547        0.048       99.845       10.290        0.011      345.675       23.375      859.960
09/01/2014  22:28:00      -57.987      -37.071        4.797       33.107       18.668       14.715     1096.057      348.508      216.537        0.321        0.083       68.824       10.216        0.022      345.562       23.181      859.978
09/01/2014  22:29:00        6.782      -22.664       12.033       24.479       15.159       17.962      599.210      229.787      322.623        0.093        0.058       23.657       14.929        0.398      345.463       23.011      859.982
09/01/2014  22:30:00      -28.468      -37.409       -0.723       33.787       28.591       14.740     1141.585      817.442      217.265        0.219        0.109       47.009       12.926        0.076      345.531       23.128      859.982
09/01/2014  22:31:00      -63.209      -30.479        1.158       23.690       20.944       13.513      561.196      438.670      182.594        0.305        0.059       70.174       10.275        0.021      345.617       23.276      859.980
09/01/2014  22:32:00      -54.984      -29.550       -1.506       21.230       18.344        8.321      450.702      336.488       69.235        0.238        0.043       62.422        9.331        0.022      345.470       23.024      859.973
09/01/2014  22:33:00      -59.734      -20.417       -5.173       12.047       13.925       10.424      145.122      193.904      108.667        0.223        0.022       63.127        6.631        0.011      345.487       23.053      859.962
09/01/2014  22:34:00      -68.714      -13.258       -4.470       14.212       13.574        8.601      201.991      184.244       73.977        0.269        0.023       69.981        7.143        0.010      345.512       23.096      859.957
09/01/2014  22:35:00      -91.219       -4.578       -9.300       17.286       11.892       10.729      298.791      141.408      115.106        0.449        0.028       91.334        7.364        0.007      345.501       23.076      859.955
09/01/2014  22:36:00      -82.034      -19.011       -5.900       22.563       21.930       10.883      509.074      480.934      118.450        0.412        0.055       84.208        9.272        0.012      345.419       22.935      859.941
09/01/2014  22:37:00      -75.123      -10.424       -3.443       21.458       19.673       11.196      460.456      387.020      125.346        0.337        0.049       75.842        6.893        0.008      345.301       22.734      859.945
09/01/2014  22:38:00     -103.119      -34.331        0.027       21.365       21.433       12.775      456.462      459.385      163.206        0.645        0.054      108.684       10.200        0.009      345.299       22.730      859.940
09/01/2014  22:39:00      -95.910      -27.936        3.093       31.559       22.977       17.390      995.942      527.934      302.421        0.591        0.091       99.895       18.093        0.033      345.200       22.559      859.934
09/01/2014  22:40:00     -127.036      -11.829       -6.109       26.633       21.517       16.526      709.305      462.997      273.116        0.888        0.072      127.586       17.160        0.018      345.207       22.573      859.937
09/01/2014  22:41:00     -111.182      -16.261       -3.399       30.136       15.839       14.918      908.181      250.874      222.549        0.701        0.069      112.365       15.999        0.020      345.104       22.397      859.926
09/01/2014  22:42:00      -89.349      -16.672       -4.178       35.583       18.900       15.167     1266.157      357.218      230.030        0.507        0.093       90.891       16.959        0.035      345.129       22.439      859.915
09/01/2014  22:43:00      -57.078       -3.913        6.679       35.173       22.623       19.227     1237.141      511.799      369.689        0.272        0.106       57.212       19.769        0.119      344.989       22.199      859.916
09/01/2014  22:44:00      -79.568      -14.788        0.322       30.686       20.733       18.884      941.645      429.838      356.587        0.414        0.086       80.930       17.121        0.045      345.072       22.341      859.915
09/01/2014  22:45:00      -55.695      -40.107        5.783       39.627       26.601       20.136     1570.260      707.635      405.440        0.371        0.134       68.632       21.639        0.099      344.956       22.141      859.923
09/01/2014  22:46:00      -78.841      -52.885       -9.231       36.150       19.571       17.551     1306.820      383.017      308.032        0.555        0.100       94.935       16.754        0.031      345.075       22.347      859.934
09/01/2014  22:47:00     -113.966      -26.917       -6.265       17.795       19.530       11.189      316.653      381.407      125.194        0.729        0.041      117.102        7.336        0.004      345.192       22.548      859.937
09/01/2014  22:48:00     -110.483      -21.966       -9.784       17.383       19.370       12.174      302.184      375.199      148.204        0.680        0.041      112.645        8.826        0.006      345.161       22.494      859.930
09/01/2014  22:49:00      -56.286       -0.573       -3.842       30.816       20.857       17.238      949.599      434.997      297.154        0.243        0.084       56.289       19.749        0.123      345.039       22.284      859.938
09/01/2014  22:50:00     -102.281       -9.775       -9.356       21.515       17.497       12.536      462.884      306.156      157.157        0.579        0.046      102.747        7.722        0.006      344.943       22.122      859.931
09/01/2014  22:51:00     -118.321      -45.487       -3.880       19.711       17.260       12.011      388.511      297.906      144.276        0.846        0.042      126.764        5.653        0.002      345.030       22.270      859.925
09/01/2014  22:52:00     -114.248      -54.493       -0.613       15.245       13.148       11.604      232.406      172.865      134.644        0.828        0.027      126.579        9.357        0.005      345.074       22.345      859.933
09/01/2014  22:53:00      -92.834      -23.855       -5.442       24.088       15.372       11.398      580.222      236.296      129.906        0.508        0.047       95.849       13.104        0.019      345.085       22.364      859.928
09/01/2014  22:54:00      -85.972      -27.198       -1.567       15.017       11.595        9.677      225.511      134.434       93.636        0.429        0.023       90.171        8.397        0.009      344.995       22.209      859.923
09/01/2014  22:55:00      -84.660      -23.447       -5.153       21.321       20.449       13.469      454.591      418.179      181.401        0.440        0.053       87.847       10.279        0.014      344.958       22.147      859.931
09/01/2014  22:56:00     -129.949      -42.814      -11.666       25.345       19.243       15.086      642.362      370.307      227.594        1.005        0.062      136.821        7.434        0.003      344.798       21.873      859.938
09/01/2014  22:57:00      -90.287      -51.402      -10.858       45.054       23.539       18.379     2029.819      554.066      337.776        0.692        0.146      103.893       17.248        0.028      344.728       21.752      859.945
09/01/2014  22:58:00     -118.677      -48.462       -7.369       35.936       24.742       15.942     1291.414      612.151      254.149        0.932        0.108      128.191       14.129        0.012      344.632       21.588      859.964
09/01/2014  22:59:00     -108.480      -31.351       -5.826       43.419       35.581       21.416     1885.237     1265.984      458.665        0.820        0.180      112.919       21.899        0.038      344.673       21.658      859.963
09/01/2014  23:00:00     -111.285      -42.688      -11.458       35.122       29.760       19.074     1233.572      885.661      363.831        0.841        0.124      119.191       13.581        0.013      344.547       21.444      859.958
09/01/2014  23:01:00     -100.150      -53.519       -7.407       37.415       23.629       21.043     1399.847      558.307      442.818        0.767        0.120      113.553       18.190        0.026      344.528       21.409      859.972
09/01/2014  23:02:00      -75.080      -36.951       -8.598       56.154       24.435       17.036     3153.262      597.086      290.225        0.556        0.202       83.680        8.837        0.011      344.470       21.311      859.977
09/01/2014  23:03:00      -33.416      -47.698        6.274       37.515       29.780       19.736     1407.393      886.867      389.513        0.306        0.134       58.238       16.011        0.076      344.449       21.276      859.985
09/01/2014  23:04:00      -70.789      -24.120        1.006       34.954       19.347       16.795     1221.770      374.312      282.072        0.374        0.094       74.786       14.423        0.037      344.459       21.295      860.010
09/01/2014  23:05:00     -112.321      -44.486       -7.103       17.025       19.221       12.450      289.849      369.464      155.008        0.773        0.041      120.810        7.637        0.004      344.468       21.308      860.025
09/01/2014  23:06:00     -107.851      -59.663       -9.779       32.374       18.485       18.393     1048.090      341.703      338.305        0.851        0.086      123.254       18.452        0.022      344.537       21.425      860.017
09/01/2014  23:07:00      -80.335      -65.580       -3.257       31.997       29.151       20.117     1023.837      849.785      404.692        0.652        0.114      103.704       17.913        0.030      344.540       21.432      860.021
09/01/2014  23:08:00      -97.192      -38.139       -2.179       19.849       21.258       15.310      393.970      451.907      234.386        0.599        0.054      104.407        8.249        0.006      344.610       21.549      860.012
09/01/2014  23:09:00      -73.739      -54.094      -11.641       32.453       17.400       17.136     1053.178      302.762      293.653        0.507        0.082       91.453       13.954        0.023      344.677       21.667      860.020
09/01/2014  23:10:00      -16.984      -26.392        7.808       26.380       16.927       18.152      695.914      286.534      329.499        0.118        0.066       31.384       16.778        0.286      344.524       21.404      860.014
09/01/2014  23:11:00      -23.147      -19.926       14.262       33.992       19.517       18.049     1155.484      380.895      325.775        0.150        0.093       30.542       18.514        0.367      344.449       21.276      860.008
09/01/2014  23:12:00      -74.366      -46.837       -1.194       52.821       25.614       18.446     2790.103      656.056      340.272        0.576        0.189       87.886       19.266        0.048      344.469       21.310      860.006
09/01/2014  23:13:00     -101.854      -68.302       -1.952       31.988       26.310       17.694     1023.209      692.219      313.064        0.854        0.101      122.635       16.008        0.017      344.478       21.325      860.004
09/01/2014  23:14:00     -105.468      -47.320       -5.773       36.475       25.396       21.345     1330.432      644.943      455.600        0.791        0.122      115.597       12.809        0.012      344.431       21.244      860.013
09/01/2014  23:15:00     -115.976      -66.313        1.690       42.241       27.342       21.910     1784.315      747.588      480.027        1.043        0.151      133.595       18.306        0.019      344.284       20.994      860.013
09/01/2014  23:16:00      -90.262      -56.975        7.777       50.408       32.952       24.233     2541.016     1085.832      587.215        0.783        0.211      106.740       25.147        0.056      344.312       21.042      860.016
09/01/2014  23:17:00     -103.453      -60.305        5.294       57.948       28.593       19.963     3357.934      817.550      398.516        0.947        0.229      119.746       21.706        0.033      344.383       21.163      860.023
09/01/2014  23:18:00      -89.793      -64.483        2.659       48.875       35.737       25.262     2388.757     1277.119      638.158        0.827        0.215      110.548       28.976        0.069      344.392       21.179      860.019
09/01/2014  23:19:00      -98.626      -65.321        4.924       43.522       39.759       25.031     1894.156     1580.772      626.536        0.906        0.205      118.296       24.076        0.041      344.404       21.197      860.014
09/01/2014  23:20:00      -85.641      -48.780        3.613       46.156       35.074       23.991     2130.358     1230.173      575.591        0.683        0.197       98.559       25.117        0.065      344.404       21.199      860.021
09/01/2014  23:21:00     -140.079      -49.379       -2.267       25.780       21.414       17.048      664.588      458.542      290.620        1.174        0.071      148.528       13.859        0.009      344.416       21.218      860.016
09/01/2014  23:22:00     -146.188      -44.816       -0.074       54.150       34.061       20.225     2932.231     1160.144      409.066        1.394        0.225      152.903       19.828        0.017      344.293       21.008      860.006
09/01/2014  23:23:00     -175.234      -45.364       -4.269       36.287       34.063       21.335     1316.769     1160.278      455.201        1.786        0.147      181.010       17.729        0.010      344.253       20.941      860.008
09/01/2014  23:24:00     -134.248      -22.153       -4.959       52.204       30.607       23.831     2725.237      936.793      567.905        1.138        0.211      136.063       26.120        0.037      344.206       20.859      860.004
09/01/2014  23:25:00     -133.189      -28.958       -2.780       33.246       29.666       20.373     1105.273      880.080      415.046        1.049        0.120      136.301       17.579        0.017      344.192       20.836      859.991
09/01/2014  23:26:00     -126.115      -19.411       -8.641       33.584       30.004       24.757     1127.876      900.239      612.889        0.950        0.132      127.600       22.080        0.030      344.153       20.769      859.980
09/01/2014  23:27:00      -74.677      -31.363        8.683       37.690       37.979       23.081     1420.549     1442.414      532.737        0.501        0.170       80.995       20.557        0.064      344.097       20.673      859.964
09/01/2014  23:28:00     -108.860      -30.345       -4.246       61.943       30.424       25.636     3836.892      925.602      657.203        0.910        0.271      113.010       35.332        0.098      344.051       20.597      859.959
09/01/2014  23:29:00     -106.933      -36.320       -3.994       33.243       26.622       16.637     1105.098      708.734      276.790        0.743        0.105      112.933       13.994        0.015      344.037       20.572      859.952
09/01/2014  23:30:00     -105.024      -42.251       -0.557       40.221       28.103       20.465     1617.753      789.763      418.831        0.782        0.141      113.205       16.511        0.021      344.047       20.589      859.956
09/01/2014  23:31:00     -100.735      -59.018       -3.739       45.875       38.032       21.784     2104.555     1446.458      474.529        0.883        0.201      116.750       23.625        0.041      344.055       20.601      859.951
09/01/2014  23:32:00     -130.015      -77.369       -4.364       33.508       23.223       19.304     1122.803      539.297      372.628        1.247        0.102      151.294       15.956        0.011      344.229       20.900      859.951
09/01/2014  23:33:00     -113.467      -64.683        3.633       37.347       36.698       21.110     1394.775     1346.753      445.624        1.013        0.159      130.609       18.938        0.021      344.220       20.885      859.946
09/01/2014  23:34:00     -112.816      -99.476      -11.638       32.831       33.462       26.756     1077.890     1119.724      715.868        1.284        0.146      150.409       18.228        0.015      344.232       20.905      859.937
09/01/2014  23:35:00      -81.784      -70.483        7.863       45.538       36.547       28.474     2073.699     1335.700      810.777        0.797        0.211      107.965       25.024        0.054      344.116       20.707      859.942
09/01/2014  23:36:00     -131.395      -83.646       -3.446       36.594       23.818       16.603     1339.098      567.309      275.668        1.323        0.109      155.760       11.565        0.006      344.185       20.825      859.934
09/01/2014  23:37:00      -79.283      -65.085        7.750       60.238       43.286       30.039     3628.590     1873.667      902.328        0.849        0.320      102.576       33.586        0.107      344.130       20.731      859.926
09/01/2014  23:38:00     -130.383      -56.221       -8.401       33.307       36.675       17.896     1109.356     1345.034      320.256        1.150        0.139      141.987        9.255        0.004      344.165       20.789      859.923
09/01/2014  23:39:00     -127.813      -61.162       -1.461       37.229       24.047       19.577     1386.010      578.257      383.251        1.121        0.117      141.693       18.415        0.017      344.137       20.742      859.908
09/01/2014  23:40:00     -137.394      -41.252       -4.056       28.621       24.810       16.483      819.136      615.513      271.689        1.115        0.085      143.453       15.517        0.012      344.109       20.693      859.915
09/01/2014  23:41:00      -94.209      -54.252        4.663       47.408       36.028       25.453     2247.504     1298.025      647.869        0.802        0.210      108.713       25.186        0.054      344.056       20.605      859.909
09/01/2014  23:42:00      -81.657      -60.925        4.181       42.986       36.484       18.000     1847.793     1331.053      323.982        0.695        0.175      101.881       16.159        0.025      344.049       20.594      859.906
09/01/2014  23:43:00     -125.135      -83.916        2.770       41.911       31.924       22.270     1756.549     1019.141      495.945        1.299        0.164      150.667       19.974        0.018      344.093       20.667      859.908
09/01/2014  23:44:00     -114.923      -84.151        4.593       51.973       45.334       29.505     2701.153     2055.132      870.519        1.297        0.281      142.438       28.292        0.039      344.133       20.734      859.898
09/01/2014  23:45:00      -84.505      -57.110        5.482       53.406       35.019       25.049     2852.228     1226.352      627.438        0.757        0.235      101.993       25.360        0.062      344.129       20.730      859.910
09/01/2014  23:46:00     -109.940      -70.367        4.225       32.597       26.370       20.639     1062.593      695.352      425.976        0.962        0.109      130.531       13.943        0.011      344.136       20.741      859.907
09/01/2014  23:47:00      -70.917      -57.666        1.075       53.092       30.738       21.086     2818.788      944.807      444.632        0.628        0.210       91.404       24.352        0.071      344.147       20.760      859.920
09/01/2014  23:48:00       -5.829      -11.748       10.556       35.780       28.335       20.778     1280.207      802.862      431.729        0.140        0.126       13.114       20.366        2.412      344.067       20.623      859.922
09/01/2014  23:49:00      -34.443      -24.915        0.120       43.272       34.196       22.698     1872.443     1169.343      515.216        0.268        0.178       42.510       23.229        0.299      343.962       20.443      859.917
09/01/2014  23:50:00      -64.397      -58.594        1.364       40.503       39.780       24.826     1640.498     1582.455      616.319        0.571        0.192       87.064       20.077        0.053      343.887       20.315      859.928
09/01/2014  23:51:00      -88.512      -66.404       -0.677       48.272       32.134       23.412     2330.189     1032.624      548.143        0.808        0.196      110.652       22.397        0.041      344.012       20.528      859.931
09/01/2014  23:52:00      -66.550      -70.608       -3.919       34.520       44.724       19.974     1191.613     2000.254      398.946        0.651        0.180       97.028       14.038        0.021      344.039       20.577      859.951
09/01/2014  23:53:00      -66.905      -80.770        1.199       59.604       42.926       34.822     3552.625     1842.640     1212.606        0.880        0.330      104.881       37.513        0.128      344.029       20.558      859.967
09/01/2014  23:54:00      -77.670      -59.562        5.723       49.405       45.307       25.481     2440.890     2052.685      649.269        0.738        0.257       97.879       23.626        0.058      344.000       20.508      859.964
09/01/2014  23:55:00      -96.013      -70.525        4.709       35.204       38.855       23.994     1239.333     1509.691      575.728        0.877        0.166      119.131       20.697        0.030      343.976       20.468      859.972
09/01/2014  23:56:00     -132.307      -69.452      -11.486       40.598       27.835       22.542     1648.233      774.810      508.124        1.270        0.147      149.428       17.139        0.013      344.018       20.538      859.977
09/01/2014  23:57:00     -105.858      -66.417       -2.167       33.842       24.466       17.863     1145.272      598.590      319.074        0.884        0.103      124.969       14.996        0.014      343.969       20.455      859.978
09/01/2014  23:58:00      -52.712      -27.438        5.130       44.906       24.626       20.823     2016.518      606.428      433.615        0.331        0.153       59.426       23.342        0.154      343.914       20.361      859.986
09/01/2014  23:59:00      -76.614      -56.278        5.045       33.095       28.081       20.803     1095.283      788.568      432.752        0.569        0.116       95.063       18.245        0.037      343.918       20.367      859.980
